[[{"header":{"parameterUnit":"m.s-1","parameterCategory":1,"la1":30.6,"la2":28.766,"lo1":-90.7593,"lo2":-88.6598,"dy":0.0162,"dx":0.0183,"nx":116,"ny":114,"refTime":"2023-08-15T06:00:00:Z","depth":0,"parameterNumber":2,"parameterNumberName":"U-component_of_WINDS"},"data":[0.0,0.0,0.0,0.0,0.0,0.0,0.0,0.0,0.0,0.0,0.0,0.0,0.0,0.0,0.0,0.0,0.0,0.0,0.0,0.0,0.0,0.0,0.0,0.0,0.0,0.0,0.0,0.0,0.0,0.0,0.0,0.0,0.0,0.0,0.0,0.0,0.0,0.0,0.0,0.0,0.0,0.0,0.0,0.0,0.0,0.0,0.0,0.0,0.0,0.0,0.0,0.0,0.0,0.0,0.0,0.0,0.0,0.0,0.0,0.0,0.0,0.0,0.0,0.0,0.0,0.0,0.0,0.0,0.0,0.0,0.0,0.0,0.0,0.0,0.0,0.0,0.0,0.0,0.0,0.0,0.0,0.0,0.0,0.0,0.0,0.0,0.0,0.0,0.0,0.0,0.0,0.0,0.0,0.0,0.0,0.0,0.0,0.0,0.0,0.0,0.0,0.0,0.0,0.0,0.0,0.0,0.0,0.0,0.0,0.0,0.0,0.0,0.0,0.0,0.0,0.0,0.0,0.0,0.0,0.0,0.0,0.0,0.0,0.0,0.0,0.0,0.0,0.0,0.0,0.0,0.0,0.0,0.0,0.0,0.0,0.0,0.0,0.0,0.0,0.0,0.0,0.0,0.0,0.0,0.0,0.0,0.0,0.0,0.0,0.0,0.0,0.0,0.0,0.0,0.0,0.0,0.0,0.0,0.0,0.0,0.0,0.0,0.0,0.0,0.0,0.0,0.0,0.0,0.0,0.0,0.0,0.0,0.0,0.0,0.0,0.0,0.0,0.0,0.0,0.0,0.0,0.0,0.0,0.0,0.0,0.0,0.0,0.0,0.0,0.0,0.0,0.0,0.0,0.0,0.0,0.0,0.0,0.0,0.0,0.0,0.0,0.0,0.0,0.0,0.0,0.0,0.0,0.0,0.0,0.0,0.0,0.0,0.0,0.0,0.0,0.0,0.0,0.0,0.0,0.0,0.0,0.0,0.0,0.0,0.0,0.0,0.0,0.0,0.0,0.0,0.0,0.0,0.0,0.0,0.0,0.0,0.0,0.0,0.0,0.0,0.0,0.0,0.0,0.0,0.0,0.0,0.0,0.0,0.0,0.0,0.0,0.0,0.0,0.0,0.0,0.0,0.0,0.0,0.0,0.0,0.0,0.0,0.0,0.0,0.0,0.0,0.0,0.0,0.0,0.0,0.0,0.0,0.0,0.0,0.0,0.0,0.0,0.0,0.0,0.0,0.0,0.0,0.0,0.0,0.0,0.0,0.0,0.0,0.0,0.0,0.0,0.0,0.0,0.0,0.0,0.0,0.0,0.0,0.0,0.0,0.0,0.0,0.0,0.0,0.0,0.0,0.0,0.0,0.0,0.0,0.0,0.0,0.0,0.0,0.0,0.0,0.0,0.0,0.0,0.0,0.0,0.0,0.0,0.0,0.0,0.0,0.0,0.0,0.0,0.0,0.0,0.0,0.0,0.0,0.0,0.0,0.0,0.0,0.0,0.0,0.0,0.0,0.0,0.0,0.0,0.0,0.0,0.0,0.0,0.0,0.0,0.0,0.0,0.0,0.0,0.0,0.0,0.0,0.0,0.0,0.0,0.0,0.0,0.0,0.0,0.0,0.0,0.0,0.0,0.0,0.0,0.0,0.0,0.0,0.0,0.0,0.0,0.0,0.0,0.0,0.0,0.0,0.0,0.0,0.0,0.0,0.0,0.0,0.0,0.0,0.0,0.0,0.0,0.0,0.0,0.0,0.0,0.0,0.0,0.0,0.0,0.0,0.0,0.0,0.0,0.0,0.0,0.0,0.0,0.0,0.0,0.0,0.0,0.0,0.0,0.0,0.0,0.0,0.0,0.0,0.0,0.0,0.0,0.0,0.0,0.0,0.0,0.0,0.0,0.0,0.0,0.0,0.0,0.0,0.0,0.0,0.0,0.0,0.0,0.0,0.0,0.0,0.0,0.0,0.0,0.0,0.0,0.0,0.0,0.0,0.0,0.0,0.0,0.0,0.0,0.0,0.0,0.0,0.0,0.0,0.0,0.0,0.0,0.0,0.0,0.0,0.0,0.0,0.0,0.0,0.0,0.0,0.0,0.0,0.0,0.0,0.0,0.0,0.0,0.0,0.0,0.0,0.0,0.0,0.0,0.0,0.0,0.0,0.0,0.0,0.0,0.0,0.0,0.0,0.0,0.0,0.0,0.0,0.0,0.0,0.0,0.0,0.0,0.0,0.0,0.0,0.0,0.0,0.0,0.0,0.0,0.0,0.0,0.0,0.0,0.0,0.0,0.0,0.0,0.0,0.0,0.0,0.0,0.0,0.0,0.0,0.0,0.0,0.0,0.0,0.0,0.0,0.0,0.0,0.0,0.0,0.0,0.0,0.0,0.0,0.0,0.0,0.0,0.0,0.0,0.0,0.0,0.0,0.0,0.0,0.0,0.0,0.0,0.0,0.0,0.0,0.0,0.0,0.0,0.0,0.0,0.0,0.0,0.0,0.0,0.0,0.0,0.0,0.0,0.0,0.0,0.0,0.0,0.0,0.0,0.0,0.0,0.0,0.0,0.0,0.0,0.0,0.0,0.0,0.0,0.0,0.0,0.0,0.0,0.0,0.0,0.0,0.0,0.0,0.0,0.0,0.0,0.0,0.0,0.0,0.0,0.0,0.0,0.0,0.0,0.0,0.0,0.0,0.0,0.0,0.0,0.0,0.0,0.0,0.0,0.0,0.0,0.0,0.0,0.0,0.0,0.0,0.0,0.0,0.0,0.0,0.0,0.0,0.0,0.0,0.0,0.0,0.0,0.0,0.0,0.0,0.0,0.0,0.0,0.0,0.0,0.0,0.0,0.0,0.0,0.0,0.0,0.0,0.0,0.0,0.0,0.0,0.0,0.0,0.0,0.0,0.0,0.0,0.0,0.0,0.0,0.0,0.0,0.0,0.0,0.0,0.0,0.0,0.0,0.0,0.0,0.0,0.0,0.0,0.0,0.0,0.0,0.0,0.0,0.0,0.0,0.0,0.0,0.0,0.0,0.0,0.0,0.0,0.0,0.0,0.0,0.0,0.0,0.0,0.0,0.0,0.0,0.0,0.0,0.0,0.0,0.0,0.0,0.0,0.0,0.0,0.0,0.0,0.0,0.0,0.0,0.0,0.0,0.0,0.0,0.0,0.0,0.0,0.0,0.0,0.0,0.0,0.0,0.0,0.0,0.0,0.0,0.0,0.0,0.0,0.0,0.0,0.0,0.0,0.0,0.0,0.0,0.0,0.0,0.0,0.0,0.0,0.0,0.0,0.0,0.0,0.0,0.0,0.0,0.0,0.0,0.0,0.0,0.0,0.0,0.0,0.0,0.0,0.0,0.0,0.0,0.0,0.0,0.0,0.0,0.0,0.0,0.0,0.0,0.0,0.0,0.0,0.0,0.0,0.0,0.0,0.0,0.0,0.0,0.0,0.0,0.0,0.0,0.0,0.0,0.0,0.0,0.0,0.0,0.0,0.0,0.0,0.0,0.0,0.0,0.0,0.0,0.0,0.0,0.0,0.0,0.0,0.0,0.0,0.0,0.0,0.0,0.0,0.0,0.0,0.0,0.0,0.0,0.0,0.0,0.0,0.0,0.0,0.0,0.0,0.0,0.0,0.0,0.0,0.0,0.0,0.0,0.0,0.0,0.0,0.0,0.0,0.0,0.0,0.0,0.0,0.0,0.0,0.0,0.0,0.0,0.0,0.0,0.0,0.0,0.0,0.0,0.0,0.0,0.0,0.0,0.0,0.0,0.0,0.0,0.0,0.0,0.0,0.0,0.0,0.0,0.0,0.0,0.0,0.0,0.0,0.0,0.0,0.0,0.0,0.0,0.0,0.0,0.0,0.0,0.0,0.0,0.0,0.0,0.0,0.0,0.0,0.0,0.0,0.0,0.0,0.0,0.0,0.0,0.0,0.0,0.0,0.0,0.0,0.0,0.0,0.0,0.0,0.0,0.0,0.0,0.0,0.0,0.0,0.0,0.0,0.0,0.0,0.0,0.0,0.0,0.0,0.0,0.0,0.0,0.0,0.0,0.0,0.0,0.0,0.0,0.0,0.0,0.0,0.0,0.0,0.0,0.0,0.0,0.0,0.0,0.0,0.0,0.0,0.0,0.0,0.0,0.0,0.0,0.0,0.0,0.0,0.0,0.0,0.0,0.0,0.0,0.0,0.0,0.0,0.0,0.0,0.0,0.0,0.0,0.0,0.0,0.0,0.0,0.0,0.0,0.0,0.0,0.0,0.0,0.0,0.0,0.0,0.0,0.0,0.0,0.0,0.0,0.0,0.0,0.0,0.0,0.0,0.0,0.0,0.0,0.0,0.0,0.0,0.0,0.0,0.0,0.0,0.0,0.0,0.0,0.0,0.0,0.0,0.0,0.0,0.0,0.0,0.0,0.0,0.0,0.0,0.0,0.0,0.0,0.0,0.0,0.0,0.0,0.0,0.0,0.0,0.0,0.0,0.0,0.0,0.0,0.0,0.0,0.0,0.0,0.0,0.0,0.0,0.0,0.0,0.0,0.0,0.0,0.0,0.0,0.0,0.0,0.0,0.0,0.0,0.0,0.0,0.0,0.0,0.0,0.0,0.0,0.0,0.0,0.0,0.0,0.0,0.0,0.0,0.0,0.0,0.0,0.0,0.0,0.0,0.0,0.0,0.0,0.0,0.0,0.0,0.0,0.0,0.0,0.0,0.0,0.0,0.0,0.0,0.0,0.0,0.0,0.0,0.0,0.0,0.0,0.0,0.0,0.0,0.0,0.0,0.0,0.0,0.0,0.0,0.0,0.0,0.0,0.0,0.0,0.0,0.0,0.0,0.0,0.0,0.0,0.0,0.0,0.0,0.0,0.0,0.0,0.0,0.0,0.0,0.0,0.0,0.0,0.0,0.0,0.0,0.0,0.0,0.0,0.0,0.0,0.0,0.0,0.0,0.0,0.0,0.0,0.0,0.0,0.0,0.0,0.0,0.0,0.0,0.0,0.0,0.0,0.0,0.0,0.0,0.0,0.0,0.0,0.0,0.0,0.0,0.0,0.0,0.0,0.0,0.0,0.0,0.0,0.0,0.0,0.0,0.0,0.0,0.0,0.0,0.0,0.0,0.0,0.0,0.0,0.0,0.0,0.0,0.0,0.0,0.0,0.0,0.0,0.0,0.0,0.0,0.0,0.0,0.0,0.0,0.0,0.0,0.0,0.0,0.0,0.0,0.0,0.0,0.0,0.0,0.0,0.0,0.0,0.0,0.0,0.0,0.0,0.0,0.0,0.0,0.0,0.0,0.0,0.0,0.0,0.0,0.0,0.0,0.0,0.0,0.0,0.0,0.0,0.0,0.0,0.0,0.0,0.0,0.0,0.0,0.0,0.0,0.0,0.0,0.0,0.0,0.0,0.0,0.0,0.0,0.0,0.0,0.0,0.0,0.0,0.0,0.0,0.0,0.0,0.0,0.0,0.0,0.0,0.0,0.0,0.0,0.0,0.0,0.0,0.0,0.0,0.0,0.0,0.0,0.0,0.0,0.0,0.0,0.0,0.0,0.0,0.0,0.0,0.0,0.0,0.0,0.0,0.0,0.0,0.0,0.0,0.0,0.0,0.0,0.0,0.0,0.0,0.0,0.0,0.0,0.0,0.0,0.0,0.0,0.0,0.0,0.0,0.0,0.0,0.0,0.0,0.0,0.0,0.0,0.0,0.0,0.0,0.0,0.0,0.0,0.0,0.0,0.0,0.0,0.0,0.0,0.0,0.0,0.0,0.0,0.0,0.0,0.0,0.0,0.0,0.0,0.0,0.0,0.0,0.0,0.0,0.0,0.0,0.0,0.0,0.0,0.0,0.0,0.0,0.0,0.0,0.0,0.0,0.0,0.0,0.0,0.0,0.0,0.0,0.0,0.0,0.0,0.0,0.0,0.0,0.0,0.0,0.0,0.0,0.0,0.0,0.0,0.0,0.0,0.0,0.0,0.0,0.0,0.0,0.0,0.0,0.0,0.0,0.0,0.0,0.0,0.0,0.0,0.0,0.0,0.0,0.0,0.0,0.0,0.0,0.0,0.0,0.0,0.0,0.0,0.0,0.0,0.0,0.0,3.3475,0.0,0.0,0.0,0.0,0.0,0.0,0.0,0.0,0.0,0.0,0.0,0.0,0.0,0.0,0.0,0.0,0.0,0.0,0.0,0.0,0.0,0.0,0.0,0.0,0.0,0.0,0.0,0.0,0.0,0.0,0.0,0.0,0.0,0.0,0.0,0.0,0.0,0.0,0.0,0.0,0.0,0.0,0.0,0.0,0.0,0.0,0.0,0.0,0.0,0.0,0.0,0.0,0.0,0.0,0.0,0.0,0.0,0.0,0.0,0.0,0.0,0.0,0.0,0.0,0.0,0.0,0.0,0.0,0.0,0.0,0.0,0.0,0.0,0.0,0.0,0.0,0.0,0.0,0.0,0.0,0.0,0.0,0.0,0.0,0.0,0.0,0.0,0.0,0.0,0.0,0.0,0.0,0.0,0.0,0.0,0.0,0.0,0.0,0.0,0.0,0.0,0.0,0.0,0.0,0.0,0.0,0.0,0.0,0.0,0.0,0.0,0.0,0.0,0.0,0.0,0.0,3.5473,0.0,0.0,0.0,0.0,0.0,0.0,0.0,0.0,0.0,0.0,0.0,0.0,0.0,0.0,0.0,0.0,0.0,0.0,0.0,0.0,0.0,0.0,0.0,0.0,0.0,0.0,0.0,0.0,0.0,0.0,0.0,0.0,0.0,0.0,0.0,0.0,0.0,0.0,0.0,0.0,0.0,0.0,0.0,0.0,0.0,0.0,0.0,0.0,0.0,0.0,0.0,0.0,0.0,0.0,0.0,0.0,0.0,0.0,0.0,0.0,0.0,0.0,0.0,0.0,0.0,0.0,0.0,0.0,0.0,0.0,0.0,0.0,0.0,0.0,0.0,0.0,0.0,0.0,0.0,0.0,0.0,0.0,0.0,0.0,0.0,0.0,0.0,0.0,0.0,0.0,0.0,0.0,0.0,0.0,0.0,0.0,0.0,0.0,0.0,0.0,0.0,0.0,0.0,0.0,0.0,0.0,0.0,0.0,4.204,4.3101,4.4126,4.3818,4.4403,4.5297,4.1097,3.9113,3.8707,3.6751,0.0,0.0,0.0,0.0,0.0,0.0,0.0,0.0,0.0,0.0,0.0,0.0,0.0,0.0,0.0,0.0,0.0,0.0,0.0,0.0,0.0,0.0,0.0,0.0,0.0,0.0,0.0,0.0,0.0,0.0,0.0,0.0,0.0,0.0,0.0,0.0,0.0,0.0,3.3206,3.4516,3.5541,3.6007,0.0,0.0,0.0,0.0,0.0,0.0,0.0,0.0,0.0,0.0,0.0,0.0,0.0,0.0,0.0,0.0,0.0,0.0,0.0,0.0,0.0,0.0,0.0,0.0,0.0,0.0,0.0,0.0,0.0,0.0,0.0,0.0,0.0,0.0,0.0,0.0,0.0,0.0,0.0,0.0,0.0,0.0,0.0,0.0,2.691,2.6721,0.0,0.0,0.0,0.0,0.0,0.0,0.0,0.0,0.0,0.0,0.0,0.0,0.0,3.7742,4.0495,4.2058,4.3368,4.4385,4.6554,4.6931,4.5823,4.7166,4.7802,4.7948,4.6578,0.0,4.364,4.06,0.0,0.0,0.0,0.0,0.0,0.0,0.0,0.0,0.0,0.0,0.0,0.0,0.0,0.0,0.0,0.0,0.0,0.0,0.0,0.0,0.0,0.0,0.0,0.0,0.0,0.0,0.0,0.0,0.0,0.0,0.0,0.0,0.0,0.0,0.0,0.0,0.0,0.0,0.0,0.0,0.0,0.0,0.0,0.0,0.0,0.0,0.0,0.0,0.0,0.0,0.0,0.0,0.0,0.0,0.0,0.0,0.0,0.0,0.0,0.0,0.0,0.0,0.0,0.0,0.0,0.0,0.0,0.0,0.0,0.0,0.0,0.0,0.0,0.0,0.0,0.0,0.0,0.0,0.0,0.0,0.0,0.0,0.0,0.0,0.0,2.8842,3.0936,2.9737,3.1257,3.1678,0.0,0.0,0.0,0.0,0.0,0.0,0.0,0.0,0.0,3.9913,4.0898,4.2281,4.4062,4.5198,4.6618,4.8322,4.9344,4.9959,5.0154,5.0899,5.1444,5.1793,5.0587,4.966,4.8605,4.4905,4.233,4.0597,0.0,0.0,0.0,0.0,3.7886,3.8534,0.0,0.0,0.0,0.0,0.0,0.0,0.0,0.0,0.0,0.0,0.0,0.0,0.0,0.0,0.0,2.9804,0.0,0.0,0.0,0.0,0.0,0.0,0.0,0.0,0.0,0.0,0.0,0.0,0.0,0.0,0.0,0.0,0.0,0.0,0.0,0.0,0.0,0.0,0.0,0.0,0.0,0.0,0.0,0.0,0.0,0.0,0.0,0.0,0.0,0.0,0.0,0.0,0.0,0.0,0.0,0.0,0.0,0.0,0.0,0.0,0.0,0.0,0.0,0.0,0.0,0.0,0.0,0.0,0.0,0.0,0.0,0.0,0.0,0.0,0.0,0.0,0.0,3.1601,3.3827,3.1984,3.409,3.473,0.0,0.0,0.0,0.0,0.0,0.0,4.0089,4.0729,4.216,4.4628,4.5908,4.6986,4.8012,4.8742,5.0105,5.1835,5.2009,5.2764,5.3882,5.3963,5.4302,5.4755,5.3639,5.2912,5.2158,4.8275,4.5303,4.3161,4.3213,4.23,4.1089,4.2316,4.293,4.3439,0.0,0.0,0.0,0.0,0.0,0.0,0.0,0.0,0.0,0.0,0.0,0.0,0.0,0.0,3.119,3.4023,3.4518,3.4125,0.0,0.0,0.0,0.0,0.0,0.0,0.0,0.0,0.0,0.0,0.0,0.0,0.0,0.0,0.0,0.0,0.0,0.0,0.0,0.0,0.0,0.0,0.0,0.0,0.0,0.0,0.0,0.0,0.0,0.0,0.0,0.0,0.0,0.0,0.0,0.0,0.0,0.0,0.0,0.0,0.0,0.0,0.0,0.0,0.0,0.0,0.0,0.0,0.0,0.0,0.0,0.0,0.0,0.0,0.0,0.0,0.0,0.0,0.0,0.0,0.0,3.1906,3.6478,0.0,0.0,0.0,0.0,3.6819,3.8872,4.1082,4.3381,4.5092,4.741,5.0366,5.0748,5.1586,5.3077,5.3822,5.433,5.4432,5.5144,5.5482,5.5549,5.5583,5.5617,5.5687,5.5547,5.4702,5.3143,4.988,4.8414,4.7985,4.6453,4.6212,4.6765,4.6793,4.7278,4.8086,0.0,0.0,0.0,0.0,0.0,0.0,0.0,0.0,0.0,0.0,0.0,0.0,0.0,3.3776,3.6457,3.9015,3.9881,3.9422,3.7446,0.0,0.0,0.0,0.0,0.0,0.0,0.0,0.0,0.0,0.0,0.0,0.0,0.0,0.0,0.0,0.0,0.0,0.0,0.0,0.0,0.0,0.0,0.0,0.0,0.0,0.0,0.0,0.0,0.0,0.0,0.0,0.0,0.0,0.0,0.0,0.0,0.0,0.0,0.0,0.0,0.0,0.0,0.0,0.0,0.0,0.0,0.0,0.0,0.0,0.0,0.0,0.0,0.0,0.0,0.0,0.0,0.0,0.0,0.0,0.0,3.8294,4.1283,0.0,4.0043,4.0318,4.1286,4.2748,4.3707,4.5649,4.8945,5.03,5.1911,5.3954,5.5008,5.5784,5.6325,5.6596,5.6494,5.6021,5.6292,5.6156,5.575,5.619,5.6156,5.575,5.6224,5.5852,5.4769,5.3207,5.1287,4.9353,4.867,4.8245,4.8139,4.9186,4.9746,5.014,0.0,0.0,0.0,0.0,0.0,0.0,0.0,0.0,0.0,0.0,0.0,3.0052,3.3282,3.6843,4.0192,4.3218,4.3192,4.2108,3.9848,0.0,0.0,0.0,0.0,0.0,0.0,0.0,0.0,0.0,0.0,0.0,0.0,0.0,0.0,0.0,0.0,0.0,0.0,0.0,0.0,0.0,0.0,0.0,3.3882,0.0,0.0,0.0,0.0,0.0,0.0,0.0,0.0,0.0,0.0,0.0,0.0,0.0,0.0,0.0,0.0,0.0,0.0,0.0,0.0,0.0,0.0,0.0,0.0,0.0,0.0,0.0,0.0,0.0,0.0,0.0,0.0,0.0,0.0,0.0,4.2358,4.2925,4.5446,4.6498,4.481,4.487,4.5874,4.8023,4.877,5.0556,5.3905,5.4839,5.5919,5.7171,5.8118,5.8626,5.8626,5.8389,5.8017,5.7543,5.7306,5.6934,5.6461,5.6934,5.69,5.6461,5.6968,5.6765,5.6055,5.5547,5.3989,5.1809,5.1533,5.099,5.0729,5.204,5.2536,5.2677,0.0,0.0,0.0,0.0,0.0,0.0,0.0,0.0,0.0,0.0,2.7631,3.1533,3.5036,3.8381,4.2083,4.6515,4.4147,4.1648,3.9893,3.6556,0.0,0.0,0.0,0.0,0.0,0.0,0.0,0.0,0.0,0.0,0.0,0.0,0.0,0.0,0.0,0.0,0.0,0.0,0.0,0.0,0.0,0.0,3.7186,0.0,0.0,0.0,0.0,0.0,0.0,0.0,0.0,0.0,0.0,0.0,0.0,0.0,0.0,0.0,0.0,0.0,0.0,0.0,0.0,0.0,0.0,0.0,0.0,0.0,0.0,0.0,0.0,0.0,0.0,0.0,0.0,0.0,3.6103,4.1418,4.5386,4.5397,4.8957,5.0574,4.8443,4.9492,5.0947,5.2401,5.389,5.5683,5.7848,5.8693,5.9404,6.0114,6.0148,6.0182,6.0182,5.9471,5.9099,5.9066,5.8355,5.7983,5.7949,5.7915,5.7915,5.7915,5.7915,5.7476,5.6833,5.6799,5.6393,5.5651,5.4918,5.4579,5.4703,5.5414,5.5667,5.5667,0.0,0.0,0.0,0.0,0.0,0.0,0.0,0.0,0.0,0.0,3.0452,3.5157,3.8198,4.282,4.6684,4.8984,4.6481,4.3919,4.1852,0.0,0.0,0.0,0.0,0.0,0.0,0.0,0.0,0.0,0.0,0.0,0.0,0.0,0.0,0.0,0.0,0.0,0.0,0.0,0.0,0.0,0.0,0.0,3.862,0.0,0.0,0.0,0.0,0.0,0.0,0.0,0.0,0.0,0.0,0.0,0.0,0.0,0.0,0.0,0.0,0.0,0.0,0.0,0.0,0.0,0.0,0.0,0.0,0.0,0.0,0.0,0.0,0.0,0.0,0.0,0.0,4.2765,4.1985,4.6185,5.0042,5.1779,5.4398,5.5818,5.5209,5.5513,5.6156,5.7103,5.7543,5.8287,5.9438,6.025,6.0757,6.096,6.1501,6.1772,6.1772,6.1569,6.1197,6.0689,6.0452,6.0047,5.9471,5.893,5.8693,5.8693,5.8118,5.778,5.7543,5.7036,5.6697,5.6393,5.5689,5.5043,5.4633,5.4864,5.4552,5.4106,0.0,0.0,0.0,0.0,0.0,0.0,0.0,0.0,0.0,0.0,3.2081,3.6953,3.8405,4.3905,4.7781,4.8517,4.6211,4.3639,4.1257,0.0,0.0,0.0,0.0,3.9709,4.3563,0.0,0.0,0.0,0.0,0.0,0.0,0.0,0.0,0.0,0.0,0.0,0.0,0.0,0.0,0.0,0.0,0.0,4.2808,3.9856,3.7933,3.6589,3.4718,3.484,3.5486,3.3278,0.0,0.0,0.0,0.0,0.0,0.0,0.0,0.0,0.0,0.0,0.0,0.0,0.0,0.0,0.0,0.0,0.0,0.0,0.0,0.0,0.0,0.0,0.0,0.0,4.4082,4.8238,4.9727,5.1925,5.429,5.6633,5.8321,5.9302,5.9302,5.9302,5.9505,5.9945,5.9979,6.0419,6.1467,6.167,6.2042,6.2651,6.2482,6.255,6.2854,6.2245,6.1704,6.1298,6.096,6.0554,6.008,5.9674,5.9471,5.9438,5.8693,5.8355,5.8287,5.7543,5.7273,5.7171,0.0,0.0,0.0,0.0,5.3856,5.3518,0.0,0.0,0.0,0.0,0.0,0.0,0.0,0.0,0.0,0.0,0.0,3.7522,3.7091,4.269,4.6555,4.6546,4.4382,4.1943,0.0,0.0,0.0,3.7672,4.0577,4.3407,4.5872,4.7496,0.0,0.0,0.0,0.0,0.0,0.0,0.0,0.0,0.0,0.0,0.0,0.0,0.0,0.0,0.0,0.0,4.7987,4.4627,4.2893,4.2003,3.9924,3.8963,3.8529,3.7694,0.0,0.0,0.0,0.0,0.0,0.0,0.0,0.0,0.0,0.0,0.0,0.0,0.0,0.0,0.0,0.0,0.0,0.0,0.0,0.0,0.0,0.0,0.0,0.0,4.887,5.3563,5.7823,5.7983,5.8355,6.0148,6.1129,6.1637,6.1569,6.1569,6.1569,6.1569,6.1569,6.211,6.3463,0.0,0.0,0.0,0.0,6.2922,6.3497,6.2212,6.1501,6.1434,6.0689,6.0351,6.0351,6.0283,6.025,6.0182,5.937,5.9032,5.8964,5.8186,5.7881,5.7746,5.6393,5.5378,5.4634,5.389,5.3585,5.3518,0.0,0.0,0.0,0.0,0.0,0.0,0.0,0.0,0.0,2.664,3.2991,3.7432,3.7155,4.1876,4.5476,4.6615,4.4024,4.1403,0.0,0.0,3.7979,4.0573,4.2838,4.5139,4.7428,4.9526,5.1082,0.0,0.0,0.0,0.0,0.0,0.0,0.0,0.0,0.0,0.0,0.0,0.0,0.0,0.0,0.0,4.8775,4.803,4.6152,4.3839,4.3495,4.3654,4.3747,4.2295,4.194,4.1698,3.9518,0.0,0.0,0.0,0.0,0.0,0.0,0.0,0.0,0.0,0.0,0.0,0.0,0.0,0.0,0.0,0.0,0.0,0.0,0.0,0.0,4.9837,5.4419,5.8439,6.1129,6.2415,6.2821,6.2042,6.3125,6.3734,6.3159,6.3091,6.3091,6.3091,6.3091,6.3226,6.3497,6.3937,6.4309,6.458,6.4309,6.3971,6.3531,6.3226,6.2787,6.2178,6.2009,0.0,6.1907,6.1332,6.1061,6.0994,5.9607,5.9032,5.8964,5.8186,5.7881,5.7814,5.6934,5.6156,5.5412,5.4668,5.4025,5.3518,0.0,0.0,0.0,0.0,0.0,0.0,0.0,0.0,0.0,0.0,3.2843,3.6197,3.5893,4.0005,4.2534,4.2019,4.0381,0.0,0.0,3.9611,4.0934,4.4007,4.5828,4.7834,5.0067,5.1183,5.23,5.345,0.0,0.0,0.0,0.0,0.0,0.0,0.0,0.0,0.0,0.0,0.0,0.0,0.0,0.0,5.0594,4.9871,4.8184,4.6248,4.629,4.6028,4.5601,4.5357,4.4682,4.3732,4.2295,3.9133,3.5422,0.0,0.0,0.0,0.0,0.0,0.0,0.0,0.0,0.0,0.0,0.0,0.0,0.0,0.0,4.0076,0.0,0.0,5.107,5.478,5.8651,6.2042,6.4275,6.5256,6.529,6.4174,6.4681,6.5019,6.4647,6.4613,6.4444,6.4106,6.4072,6.4208,6.458,6.4613,6.4952,6.5696,6.4986,6.4613,6.4613,6.4241,6.37,6.2956,6.2956,6.2753,6.2381,6.2009,6.1637,6.1231,6.008,5.9336,5.8964,5.8186,5.7881,5.7848,5.7476,5.6664,5.5581,5.4465,5.3822,5.3518,0.0,0.0,0.0,0.0,0.0,0.0,0.0,0.0,0.0,0.0,0.0,3.4515,3.4194,3.7397,3.8853,0.0,0.0,0.0,0.0,4.1914,4.4079,4.709,4.8646,5.0338,5.2266,5.2236,5.2909,5.4256,0.0,0.0,0.0,0.0,0.0,0.0,0.0,0.0,0.0,0.0,0.0,0.0,0.0,0.0,5.1998,5.0812,4.9521,4.8263,4.8286,4.7075,4.561,4.7033,4.6159,4.4566,4.4432,4.2557,3.9583,3.5659,3.4392,0.0,0.0,0.0,0.0,0.0,0.0,0.0,0.0,0.0,3.8144,4.0207,4.2903,4.5544,4.7509,5.1785,5.6157,5.9316,6.2251,6.4816,6.6745,6.6914,6.6542,6.5764,6.5831,6.5865,6.5696,6.5696,6.5425,6.485,6.4816,6.5053,6.5662,6.5256,6.5561,6.6779,6.5662,6.5222,6.5696,6.5121,6.4444,6.3734,6.3599,6.3193,6.2618,6.2448,6.2076,6.1467,6.0689,5.9844,5.8964,5.8355,5.8017,5.7881,5.7712,5.6867,5.5581,5.4363,5.3856,5.3687,0.0,0.0,0.0,0.0,0.0,0.0,0.0,0.0,0.0,0.0,0.0,0.0,0.0,0.0,0.0,0.0,0.0,0.0,4.1861,4.3504,4.5635,4.8612,5.0168,5.1386,5.2266,5.1988,5.229,5.3082,5.2734,0.0,0.0,0.0,0.0,0.0,0.0,0.0,0.0,0.0,0.0,0.0,0.0,0.0,5.1331,5.118,5.011,4.8742,4.9056,4.6812,4.4053,4.6493,4.6781,4.638,4.7669,4.6307,4.3673,4.1239,0.0,3.3706,3.23,3.2382,3.2782,3.2679,3.448,3.7623,0.0,0.0,4.4251,4.8618,5.1028,5.2768,5.4364,5.8298,6.1961,6.3645,6.529,6.6745,6.7658,6.7218,6.6542,6.5764,6.6271,6.644,6.5764,6.5696,6.5662,6.5561,6.5561,6.5595,6.5696,6.6237,6.6643,6.6812,6.6643,6.6271,6.5696,6.5595,6.5189,6.4478,6.3835,6.3463,6.3362,6.2685,6.2347,6.2245,6.1501,6.0351,5.8998,5.893,5.849,5.7814,5.7171,5.6427,5.5683,5.5513,5.504,5.4363,0.0,0.0,0.0,0.0,0.0,0.0,0.0,0.0,0.0,0.0,0.0,0.0,0.0,0.0,0.0,0.0,0.0,0.0,4.1699,4.402,4.6752,5.0135,5.0693,5.1325,5.2058,5.1712,5.19,5.2657,5.2893,0.0,0.0,0.0,0.0,0.0,0.0,0.0,0.0,0.0,0.0,0.0,0.0,0.0,5.1738,5.1379,4.9584,4.7258,4.6806,4.5139,0.0,0.0,4.531,4.5755,4.7158,4.5942,4.3491,4.1359,3.8554,0.0,3.5694,3.5988,3.6693,0.0,4.0412,4.3339,4.6611,4.8128,4.952,5.2067,5.4794,5.719,5.8864,6.2018,6.4952,0.0,6.8098,6.8741,6.8605,6.7929,6.6677,6.4647,6.4715,6.5121,6.5628,6.5696,6.5865,6.6305,6.6339,6.6339,6.6339,6.6643,6.6812,6.6812,6.6812,6.6677,6.6339,6.6339,6.5967,6.5222,6.4918,6.4343,6.3497,6.3193,6.2584,6.1704,6.0926,6.0013,5.9032,5.9032,5.8558,5.7848,5.7543,5.7002,5.6258,5.5378,5.46,5.3923,0.0,0.0,0.0,0.0,0.0,0.0,0.0,0.0,0.0,0.0,0.0,0.0,0.0,0.0,0.0,0.0,0.0,0.0,0.0,4.3898,4.6891,5.0322,5.0806,0.0,5.1745,5.1581,5.1801,5.2277,5.2671,5.3444,0.0,0.0,0.0,0.0,0.0,0.0,0.0,0.0,0.0,0.0,0.0,0.0,5.2097,5.1079,4.8626,4.58,4.4871,4.3229,0.0,0.0,4.2332,4.315,4.4364,4.3776,4.226,4.0358,3.8261,3.6692,3.7381,0.0,0.0,4.2906,4.6169,4.9179,5.104,5.2707,5.43,5.5665,5.7827,5.9942,6.1404,6.3628,6.5888,6.7913,6.8707,6.8897,6.8485,6.7455,6.573,6.3193,6.255,6.2787,6.4038,6.4715,6.5493,6.644,6.6508,6.6508,6.6508,6.6711,6.6711,6.6508,6.6711,6.6812,6.6812,6.6812,6.6542,6.6,6.5595,6.485,6.3802,6.3396,6.2618,6.1569,6.0994,6.0317,5.9641,5.9404,5.8863,5.8186,5.7983,5.734,5.6393,5.531,5.4431,5.3788,0.0,0.0,0.0,0.0,0.0,0.0,0.0,0.0,0.0,0.0,0.0,0.0,0.0,0.0,0.0,0.0,0.0,0.0,0.0,4.316,4.5814,4.8561,5.0445,5.1389,5.1421,5.1643,5.1791,5.1791,5.1455,5.1623,5.2312,0.0,0.0,0.0,0.0,0.0,0.0,0.0,0.0,0.0,0.0,0.0,5.1977,5.0062,4.7508,4.4769,4.4074,0.0,0.0,0.0,3.788,3.8286,3.9202,4.016,0.0,3.9143,3.6308,0.0,0.0,0.0,4.2261,4.5954,5.06,5.4974,5.7103,5.7863,5.8643,6.0896,6.1004,6.0924,6.1756,6.3132,6.4545,6.5897,6.6113,6.6277,6.6812,6.5019,6.3091,6.1569,6.0047,5.9438,0.0,6.2279,6.4174,6.5595,6.573,6.573,6.573,6.6406,6.6474,6.5764,6.644,6.6812,6.6812,6.6812,6.6812,6.6779,6.5324,6.4613,6.4512,6.3091,6.2415,6.2347,6.2347,6.1907,6.1163,6.0385,5.9641,5.8896,5.8186,5.7002,5.575,5.5683,5.5209,5.4465,0.0,0.0,0.0,0.0,0.0,0.0,0.0,0.0,0.0,0.0,0.0,0.0,0.0,0.0,0.0,0.0,0.0,0.0,0.0,4.2011,4.4776,4.6579,4.8211,4.9251,4.964,4.9978,5.0305,5.0729,5.1056,5.1768,5.2845,5.3084,0.0,0.0,0.0,0.0,0.0,0.0,0.0,0.0,0.0,0.0,5.2455,4.9209,4.6321,4.3656,0.0,0.0,0.0,0.0,3.6987,3.7586,3.7535,0.0,0.0,3.5688,3.6605,3.8438,4.0612,0.0,4.8849,5.2088,5.5364,5.8144,5.9935,6.0437,6.0532,6.0487,5.9932,5.9323,5.901,5.9361,6.0688,6.3852,6.474,6.5514,6.6627,6.573,6.3666,6.0182,5.9742,0.0,0.0,0.0,0.0,6.4106,6.4681,6.5189,6.5662,6.6406,6.6711,6.644,6.6677,6.6812,6.6812,6.6812,6.6812,6.6779,6.5324,6.4613,6.4546,6.3057,6.2381,6.2381,6.2381,6.167,6.0486,6.0216,5.9099,5.7509,5.7273,5.6258,5.4972,5.4972,5.4499,5.3822,0.0,0.0,0.0,0.0,0.0,0.0,0.0,0.0,0.0,0.0,0.0,0.0,0.0,0.0,0.0,0.0,0.0,0.0,0.0,0.0,4.2109,4.3899,4.4795,4.5787,4.6874,4.7221,4.7836,4.856,4.9243,5.0064,5.1151,5.1626,5.2486,0.0,0.0,0.0,0.0,0.0,0.0,0.0,0.0,0.0,5.0297,4.6559,4.3769,0.0,0.0,0.0,0.0,0.0,0.0,0.0,0.0,3.5194,3.4718,3.5654,3.8241,4.1726,4.5814,5.0085,5.4161,5.7442,5.9565,6.1077,6.1822,6.1692,6.0956,5.9374,5.79,5.6645,5.5684,5.5328,5.6435,6.0178,6.1207,6.2374,6.487,6.3869,6.2144,6.008,5.9302,5.8558,0.0,0.0,0.0,6.2922,6.4038,6.4816,6.5256,6.6271,6.6677,6.644,6.6677,6.6812,6.6812,6.6812,6.6542,6.6,6.5053,6.4309,6.3768,6.2821,6.2381,6.2381,6.211,6.1434,6.0486,5.9945,5.8863,5.7543,5.7002,5.6055,5.4972,5.4702,5.4296,5.3856,0.0,0.0,0.0,0.0,0.0,0.0,0.0,0.0,0.0,0.0,0.0,0.0,0.0,0.0,0.0,0.0,0.0,0.0,0.0,0.0,0.0,4.0597,4.0705,4.1523,4.3283,4.3835,4.4598,4.5611,4.6143,4.6665,4.7373,4.8551,4.9824,5.0963,0.0,0.0,0.0,0.0,0.0,0.0,0.0,0.0,4.5876,4.2422,0.0,0.0,0.0,0.0,0.0,0.0,0.0,0.0,0.0,3.451,3.5131,3.9143,4.1345,4.4088,5.1529,5.5406,5.8133,6.1655,6.3124,6.3606,6.2839,6.1765,6.0104,5.7674,5.5286,5.307,0.0,0.0,5.1986,5.5418,5.6047,5.7674,6.1886,6.008,5.9066,0.0,0.0,0.0,0.0,0.0,0.0,6.2245,0.0,6.4546,6.4647,6.6034,6.6474,6.5764,6.644,6.6812,6.6812,6.6812,6.6102,6.4647,6.4613,6.3835,6.2381,6.2347,6.2313,6.2245,6.1535,6.1231,6.1061,5.9607,5.8964,5.8761,5.734,5.6359,5.5649,5.4905,5.4668,5.4532,0.0,0.0,0.0,0.0,0.0,0.0,0.0,0.0,0.0,0.0,0.0,0.0,0.0,0.0,0.0,0.0,0.0,0.0,0.0,0.0,0.0,0.0,0.0,0.0,0.0,0.0,0.0,0.0,0.0,4.4579,4.5227,4.6064,4.692,0.0,4.9004,0.0,0.0,0.0,0.0,0.0,0.0,0.0,4.4819,0.0,0.0,0.0,0.0,0.0,0.0,0.0,0.0,0.0,0.0,3.8696,4.0273,4.481,4.7546,5.0134,5.5457,5.9003,6.147,6.2531,6.3036,6.286,6.1814,5.9753,5.745,5.5187,5.2137,4.9409,0.0,0.0,0.0,5.4209,5.6801,0.0,6.3451,6.3835,0.0,6.2245,0.0,6.1535,6.0791,6.1535,0.0,0.0,6.3057,6.3666,6.5324,6.6305,6.6711,6.6542,6.6711,6.6812,6.6812,6.6812,6.6339,6.5392,6.485,6.3835,6.2381,6.1839,6.1264,6.0689,6.0486,6.008,5.9573,5.9167,5.8355,5.734,5.6968,5.6359,5.5683,5.5513,5.5446,5.531,0.0,0.0,0.0,0.0,0.0,0.0,0.0,0.0,0.0,0.0,0.0,0.0,0.0,0.0,0.0,0.0,0.0,0.0,0.0,0.0,0.0,0.0,0.0,0.0,0.0,0.0,0.0,0.0,0.0,0.0,0.0,4.1976,4.26,4.2974,4.4008,4.4638,0.0,0.0,0.0,0.0,0.0,0.0,0.0,0.0,0.0,0.0,0.0,0.0,0.0,0.0,0.0,4.175,4.2822,4.4699,4.7275,5.0994,0.0,5.6009,5.9642,6.2109,6.3806,6.3916,6.3271,6.1825,5.8881,5.6647,5.3952,4.9297,4.7087,0.0,4.3355,0.0,0.0,0.0,0.0,0.0,6.255,6.3193,6.3396,0.0,6.3632,0.0,6.2787,6.3226,6.3903,0.0,6.4275,6.4377,6.5628,6.6406,6.6812,6.6812,6.6812,6.6812,6.6812,6.6474,6.5933,6.5189,6.4478,6.3328,6.1907,6.1806,6.1163,6.0114,6.0114,5.9674,5.8998,5.866,5.8017,5.7239,5.6934,5.6562,5.6156,5.5852,5.5919,5.6089,0.0,0.0,0.0,0.0,0.0,0.0,0.0,0.0,0.0,0.0,0.0,0.0,0.0,0.0,0.0,0.0,0.0,0.0,0.0,0.0,0.0,0.0,0.0,0.0,0.0,0.0,0.0,0.0,0.0,0.0,0.0,0.0,0.0,0.0,0.0,0.0,0.0,0.0,0.0,0.0,0.0,0.0,0.0,0.0,0.0,0.0,0.0,0.0,0.0,0.0,4.5796,4.7306,4.8741,5.1461,5.4611,5.7159,5.8978,6.0728,6.3194,6.4288,6.4813,6.4813,6.3285,6.0466,5.5581,5.3088,4.9748,4.2723,0.0,4.1277,3.899,4.1999,4.5678,4.7916,0.0,5.548,6.0723,6.0926,6.1761,6.5091,6.4566,6.4093,6.4536,6.4329,6.4884,6.6812,6.644,6.6102,6.6,6.6609,6.6914,6.6812,6.6711,6.6677,6.6677,6.5933,6.5189,6.4444,6.364,6.2481,6.1065,6.1672,6.12,5.9852,5.9903,5.9607,5.8964,5.8186,5.7881,5.7814,5.7205,5.6934,5.6867,5.6258,5.6393,5.6833,0.0,0.0,0.0,0.0,0.0,0.0,0.0,0.0,0.0,0.0,2.6661,2.7091,0.0,0.0,0.0,0.0,0.0,0.0,0.0,0.0,0.0,0.0,0.0,0.0,0.0,0.0,0.0,0.0,0.0,0.0,0.0,0.0,0.0,0.0,0.0,0.0,0.0,0.0,0.0,0.0,0.0,0.0,0.0,0.0,0.0,0.0,0.0,0.0,0.0,0.0,4.847,5.2898,5.538,5.7114,5.8774,6.1632,6.1626,6.1037,6.3307,6.3697,6.3508,6.3508,6.1537,5.8637,5.4707,5.0147,0.0,0.0,3.9594,3.9137,3.8865,4.2195,4.624,5.0038,0.0,0.0,0.0,0.0,6.3242,0.0,0.0,0.0,0.0,0.0,0.0,0.0,6.8199,6.8233,6.7557,6.7624,6.7421,6.6846,6.6203,6.5865,6.5865,6.5155,6.441,6.37,6.2532,6.1251,5.986,5.9993,5.9481,5.8587,5.9026,5.9133,5.8964,5.8186,5.7881,5.7881,5.7746,5.7712,5.7679,5.7577,5.7577,5.7577,0.0,0.0,0.0,0.0,0.0,0.0,0.0,0.0,2.5578,2.5937,2.7386,2.8141,2.748,2.731,0.0,0.0,0.0,0.0,0.0,0.0,0.0,0.0,0.0,0.0,0.0,0.0,0.0,0.0,0.0,0.0,0.0,0.0,0.0,0.0,0.0,0.0,0.0,0.0,0.0,0.0,0.0,0.0,0.0,0.0,0.0,0.0,0.0,0.0,0.0,0.0,4.7759,5.2904,5.8496,6.1647,6.3298,6.3078,6.2812,6.2421,6.2359,6.2707,6.2989,6.266,6.0705,5.7345,5.1607,0.0,0.0,0.0,3.6589,3.6766,3.7118,0.0,0.0,0.0,0.0,0.0,0.0,0.0,0.0,0.0,0.0,0.0,0.0,0.0,6.7477,6.6516,6.8071,6.8741,6.7929,6.7557,6.6862,6.5855,6.5487,6.4939,6.4285,6.3199,6.2475,6.2113,6.0837,5.9632,5.8539,5.8929,5.8847,5.8378,5.896,5.9141,5.8998,5.8626,5.8254,5.7881,5.7881,5.7881,5.7881,5.7881,5.7881,5.7848,0.0,0.0,0.0,0.0,0.0,0.0,0.0,2.4896,2.6393,2.6585,2.8147,2.904,2.854,2.7709,2.7397,0.0,0.0,0.0,0.0,0.0,0.0,0.0,0.0,0.0,0.0,0.0,0.0,0.0,0.0,0.0,0.0,0.0,0.0,0.0,0.0,0.0,0.0,0.0,0.0,0.0,0.0,0.0,0.0,0.0,0.0,0.0,0.0,0.0,0.0,0.0,4.5659,5.0333,5.787,6.2399,6.4515,6.2395,6.2394,6.2823,6.1598,6.2103,6.3014,6.2551,6.0031,5.5961,4.9026,4.4299,0.0,0.0,3.377,3.4807,3.5316,0.0,4.3413,0.0,0.0,0.0,0.0,0.0,0.0,0.0,0.0,0.0,0.0,0.0,0.0,6.5025,6.701,6.8059,6.755,6.6551,6.5559,6.4505,6.4342,6.3817,6.278,6.15,6.086,6.086,5.9338,5.8296,5.7756,5.8441,5.8646,5.8427,5.93,5.9476,5.9235,5.8896,5.8423,5.7881,5.7881,5.7881,5.7881,5.7881,5.7881,5.7881,0.0,0.0,0.0,0.0,0.0,0.0,0.0,2.5774,2.7428,2.8083,2.8678,2.913,2.9354,2.8748,2.7835,0.0,0.0,0.0,0.0,0.0,0.0,0.0,0.0,0.0,0.0,0.0,0.0,2.758,2.8495,0.0,0.0,0.0,0.0,0.0,0.0,0.0,0.0,0.0,0.0,0.0,0.0,0.0,0.0,0.0,0.0,0.0,0.0,0.0,0.0,0.0,0.0,4.6167,5.1663,5.5554,5.8281,5.9047,0.0,0.0,6.2363,6.2984,6.3213,6.3653,5.9285,5.368,4.9173,0.0,0.0,3.174,3.2183,3.3758,3.4708,3.7959,0.0,0.0,0.0,4.7558,0.0,0.0,0.0,0.0,0.0,0.0,0.0,6.3694,6.5059,6.4254,6.5027,6.5674,6.6113,6.4341,6.3292,6.3196,6.2491,6.2139,6.2012,6.1151,6.0735,6.0735,5.8938,5.8018,5.8021,5.8522,5.8748,5.8824,5.9638,6.0038,5.9911,5.8558,5.7949,5.7881,5.7881,5.7881,5.7881,5.7881,5.7881,5.7881,0.0,0.0,0.0,0.0,0.0,0.0,2.3251,2.5179,2.685,2.7579,2.8436,2.8718,2.8029,2.7789,2.7561,0.0,0.0,0.0,0.0,0.0,0.0,0.0,0.0,0.0,0.0,0.0,0.0,2.624,2.7133,0.0,0.0,0.0,0.0,0.0,0.0,2.8516,0.0,0.0,0.0,0.0,0.0,0.0,0.0,0.0,0.0,0.0,0.0,0.0,0.0,0.0,0.0,0.0,4.2723,4.5831,0.0,0.0,5.6388,5.8004,5.9131,6.1139,6.3033,6.2749,5.8359,5.2887,4.8084,0.0,3.6339,3.2545,3.2496,3.3809,3.5795,3.7781,4.0038,0.0,0.0,0.0,4.7677,0.0,0.0,0.0,0.0,0.0,0.0,0.0,6.5148,6.5276,6.4058,6.3326,6.3599,6.3577,6.3221,6.2424,6.1765,6.1021,6.024,5.9491,5.8908,5.8477,5.7394,5.7075,5.7394,5.7653,5.8287,5.9186,5.958,5.96,5.9404,5.8795,5.8287,5.7881,5.7881,5.7881,5.7881,5.7881,5.7881,5.7881,0.0,0.0,0.0,0.0,0.0,2.2039,2.274,2.4911,2.6634,2.7072,2.8202,2.8447,2.7031,2.6816,2.6874,2.6936,0.0,0.0,0.0,0.0,0.0,0.0,0.0,0.0,0.0,0.0,2.475,2.5293,2.5844,2.626,0.0,0.0,2.7685,2.8347,0.0,0.0,0.0,0.0,0.0,0.0,0.0,0.0,0.0,0.0,0.0,0.0,0.0,0.0,0.0,0.0,0.0,0.0,0.0,0.0,0.0,0.0,5.2444,5.5163,5.6653,5.9451,6.2031,6.2074,5.7371,5.1461,0.0,0.0,3.5476,3.2222,3.2255,3.3597,3.6042,3.734,3.8898,0.0,0.0,4.1547,4.4262,4.4566,0.0,0.0,0.0,5.5715,0.0,6.2,6.4183,6.4905,6.3019,6.179,6.1737,6.2477,6.2362,6.1169,6.0678,5.9953,5.88,5.8351,5.7782,5.7094,5.6847,5.6946,5.727,5.7589,5.8382,5.9466,5.9396,5.9221,5.8998,5.8761,5.8355,5.7881,5.7881,5.7881,5.7881,5.7881,5.7881,5.7881,0.0,0.0,0.0,0.0,0.0,0.0,0.0,2.5339,2.7234,2.7014,2.8123,2.8358,2.6949,2.6264,2.5721,2.5287,0.0,0.0,0.0,0.0,0.0,0.0,0.0,0.0,0.0,0.0,2.3732,2.4823,2.4742,2.5135,2.6009,2.5886,2.6187,2.6835,0.0,0.0,0.0,0.0,0.0,0.0,0.0,0.0,0.0,0.0,0.0,0.0,0.0,0.0,0.0,0.0,0.0,0.0,0.0,0.0,0.0,0.0,4.7799,5.1359,5.606,5.8338,6.0043,6.2133,5.6203,4.9079,0.0,3.911,3.2871,2.9765,3.0828,3.2853,3.4678,3.6173,3.803,0.0,0.0,0.0,4.4633,4.4966,0.0,0.0,0.0,5.2294,5.6138,5.9304,6.1373,6.2032,6.1493,0.0,6.1104,6.0446,5.9787,5.9129,5.9099,5.88,5.8141,5.8112,5.7782,5.7094,5.7695,5.7948,5.7983,5.9014,5.9498,5.9515,5.9151,5.9032,5.8964,5.822,5.7881,5.7881,5.7881,5.7881,5.7881,5.7881,5.7881,5.7881,0.0,0.0,0.0,0.0,0.0,0.0,0.0,2.4417,2.5577,2.5372,2.5605,2.542,2.4573,2.3975,2.3656,2.3676,0.0,0.0,0.0,0.0,0.0,0.0,0.0,0.0,0.0,0.0,2.3647,2.4194,2.4649,2.5311,2.6105,2.6621,2.6892,2.6845,2.6654,0.0,0.0,0.0,0.0,0.0,0.0,0.0,0.0,0.0,0.0,0.0,0.0,0.0,0.0,0.0,0.0,0.0,0.0,0.0,0.0,0.0,0.0,0.0,4.9253,5.1234,5.2647,5.1498,4.7352,4.2604,3.9378,3.5379,3.1735,2.9517,3.0648,3.2617,3.4309,3.5904,3.7934,0.0,0.0,0.0,0.0,0.0,0.0,4.9099,5.4409,5.8519,0.0,0.0,6.1882,6.2091,6.1493,6.0894,6.0446,6.0206,5.9997,5.9787,5.9338,5.88,5.8141,5.8112,5.7573,5.6466,5.748,5.7901,5.7856,5.8991,5.9378,5.9185,5.9051,5.8727,5.822,5.7983,5.7881,5.7881,5.7881,5.7881,5.7881,5.7881,5.7881,5.7881,0.0,0.0,0.0,0.0,0.0,0.0,0.0,2.3567,2.441,2.4288,2.4657,2.4537,2.3598,2.3241,2.3067,2.3047,0.0,0.0,0.0,0.0,0.0,0.0,0.0,0.0,0.0,2.3852,2.3934,2.4514,2.4881,2.5425,2.6175,2.6658,2.6702,2.6393,2.6231,0.0,0.0,0.0,0.0,0.0,0.0,0.0,2.6987,0.0,0.0,0.0,0.0,0.0,0.0,0.0,0.0,0.0,0.0,0.0,0.0,0.0,3.9254,0.0,0.0,4.6602,4.7603,4.5691,4.2195,0.0,0.0,3.2618,3.0153,2.9017,3.0342,3.2251,3.4081,3.5773,3.7636,4.0083,0.0,0.0,0.0,0.0,0.0,4.9322,0.0,0.0,0.0,6.1327,6.1613,6.1343,6.0954,6.0446,5.9757,5.9727,5.9608,5.9338,5.8949,5.8411,5.7752,5.7513,5.6735,5.5418,5.6721,5.7307,5.7341,5.8279,5.8773,5.8998,5.8727,5.8321,0.0,5.7881,5.7881,5.7881,5.7881,5.7881,5.7881,5.7881,5.7881,5.7881,0.0,0.0,0.0,0.0,0.0,0.0,0.0,0.0,2.3681,2.3559,2.48,2.5112,2.361,2.3583,2.3455,2.2984,0.0,0.0,0.0,0.0,0.0,0.0,0.0,0.0,0.0,2.41,2.4483,2.5392,2.5241,2.5578,2.6343,2.6261,2.6065,2.5747,2.5524,2.4816,2.3902,2.409,2.4206,2.4471,2.6177,2.663,0.0,0.0,0.0,0.0,0.0,0.0,0.0,0.0,0.0,0.0,0.0,0.0,0.0,0.0,0.0,0.0,0.0,0.0,0.0,0.0,0.0,0.0,0.0,3.0558,0.0,2.841,2.9849,3.1732,3.3854,3.5532,3.7211,3.9035,0.0,0.0,0.0,4.3199,0.0,0.0,5.4137,0.0,5.85,6.0059,6.0775,6.0146,6.0057,5.9727,5.9069,5.9039,5.874,5.8082,5.8022,5.7693,5.7034,5.6406,5.5478,5.4281,5.5432,5.6179,5.6669,5.7168,5.7986,5.8896,5.8186,5.7881,5.7881,5.7881,5.7881,5.7881,5.7881,5.7848,5.7814,5.7814,5.778,5.7712,0.0,0.0,0.0,0.0,0.0,0.0,0.0,0.0,0.0,0.0,2.287,2.3107,2.2172,2.1641,2.1417,0.0,0.0,0.0,0.0,0.0,0.0,0.0,0.0,0.0,0.0,2.3012,2.362,2.4368,2.547,2.662,2.7831,2.83,2.8073,2.7254,2.6606,2.5394,2.3805,2.3667,2.3985,2.4717,2.5757,2.5962,0.0,0.0,0.0,0.0,2.7863,2.8359,0.0,0.0,0.0,0.0,0.0,0.0,0.0,0.0,3.2212,3.2101,3.3449,0.0,3.4832,3.2772,3.1021,2.9476,0.0,0.0,0.0,0.0,0.0,3.0589,3.2591,3.4945,3.7138,3.874,0.0,0.0,4.2914,0.0,0.0,5.3264,5.6938,5.9152,5.8941,5.9747,6.0266,6.0086,5.9608,5.9039,5.8381,5.8351,5.8052,5.7363,5.6885,5.6555,5.6376,5.5748,5.5269,5.494,5.5156,5.5709,5.655,5.7168,5.772,5.8152,5.7983,5.7881,5.7881,5.7881,5.7881,5.7881,5.7881,5.7543,5.707,5.707,5.6697,5.6224,0.0,0.0,0.0,0.0,0.0,0.0,0.0,0.0,0.0,0.0,0.0,0.0,0.0,0.0,0.0,0.0,0.0,0.0,0.0,0.0,0.0,0.0,0.0,0.0,2.2187,2.2843,2.3728,2.4819,2.6213,2.7562,2.8829,2.9447,2.8935,2.7512,2.5958,2.4475,2.313,2.3414,2.3818,2.435,2.5369,0.0,0.0,0.0,0.0,0.0,2.679,2.7079,0.0,2.8183,2.8429,2.8553,0.0,0.0,0.0,0.0,2.9403,2.8967,2.9397,3.1133,3.2243,2.9924,2.9153,2.869,0.0,0.0,0.0,0.0,0.0,0.0,3.2128,3.4296,0.0,0.0,3.9987,0.0,0.0,0.0,5.1849,5.4299,5.7021,5.8919,0.0,5.9338,5.9189,5.9189,5.856,5.8022,5.7663,5.7663,5.7363,5.6705,5.6346,5.6166,5.6166,5.5209,5.4581,5.4251,5.3945,5.4144,5.4844,5.5744,5.6441,5.7114,5.7628,5.7881,5.7848,5.7509,5.7408,5.734,5.7036,5.6664,5.6292,5.6292,5.6055,5.5716,0.0,0.0,0.0,0.0,0.0,0.0,0.0,0.0,0.0,0.0,0.0,0.0,0.0,0.0,0.0,0.0,0.0,0.0,0.0,0.0,0.0,0.0,0.0,2.1388,2.2199,2.2882,2.4036,2.5725,2.709,2.8334,2.9469,3.0163,2.9323,2.7141,2.4883,2.33,2.2411,2.322,2.3577,2.3729,2.4866,0.0,0.0,0.0,0.0,0.0,0.0,0.0,0.0,2.6569,2.702,2.7379,2.7178,0.0,0.0,0.0,0.0,0.0,2.7476,3.0366,3.255,3.0375,2.9873,2.9762,0.0,0.0,0.0,0.0,0.0,0.0,0.0,0.0,0.0,0.0,0.0,0.0,4.5466,4.8413,5.1308,5.4083,5.6083,0.0,5.9338,5.856,5.7932,5.7842,5.7363,5.7004,5.6825,5.6795,5.6526,5.5897,5.5777,5.5718,5.5718,5.461,5.3773,5.3174,5.2426,5.2395,5.3055,5.402,5.5004,5.6117,5.7103,5.7543,5.7509,5.69,5.663,5.6562,5.5953,5.5649,5.5547,5.5547,5.548,5.5378,0.0,0.0,0.0,0.0,0.0,0.0,0.0,0.0,0.0,0.0,0.0,0.0,0.0,0.0,0.0,0.0,0.0,0.0,0.0,0.0,0.0,0.0,2.0373,2.067,2.1362,2.2047,2.3406,2.5465,2.7506,2.8981,2.9871,3.1113,3.004,2.695,2.5278,2.3864,2.2755,2.2885,2.3024,2.3272,2.4237,0.0,0.0,0.0,0.0,0.0,0.0,0.0,0.0,2.5867,2.5773,2.5631,2.5687,0.0,0.0,0.0,0.0,0.0,2.6414,2.9072,3.1128,2.8749,2.7947,2.7703,0.0,0.0,0.0,0.0,0.0,0.0,0.0,0.0,0.0,0.0,0.0,4.5202,0.0,0.0,5.3219,5.3744,0.0,5.7633,5.6855,5.7064,5.7034,5.6526,5.6855,5.6615,5.5538,5.5478,5.5179,5.4521,5.3952,5.3623,5.3623,5.3443,5.3294,5.3174,5.1947,5.2213,5.3737,5.3682,5.4261,5.5282,5.5828,5.6055,5.6055,5.5919,5.5886,5.5886,5.575,5.5344,5.4769,5.4769,5.4363,5.3856,0.0,0.0,0.0,0.0,0.0,0.0,0.0,0.0,0.0,0.0,0.0,0.0,0.0,0.0,0.0,0.0,0.0,0.0,0.0,0.0,0.0,2.0332,2.0304,2.0584,2.1244,2.2337,2.4014,2.6246,2.864,3.0306,3.1175,3.0418,2.873,2.6146,2.4679,2.3534,2.2729,2.2902,2.3102,2.333,0.0,0.0,0.0,0.0,0.0,0.0,0.0,0.0,0.0,0.0,2.484,2.4662,2.4654,0.0,0.0,0.0,0.0,0.0,2.591,2.7673,2.9315,2.9037,2.9382,2.9626,2.9076,0.0,0.0,0.0,0.0,0.0,0.0,0.0,3.899,4.252,0.0,4.6485,4.8975,5.0804,5.2336,0.0,0.0,5.6585,5.6675,5.6615,5.6346,5.5688,5.5897,5.5658,5.47,5.467,5.4521,5.4221,5.3723,5.3373,5.3008,5.3129,5.304,5.2636,5.1319,5.1425,5.2807,5.2859,5.3517,5.4524,5.5358,5.5716,5.5683,5.5277,5.5108,5.5074,5.4668,5.4296,5.4025,5.4025,5.3788,5.3518,0.0,0.0,0.0,0.0,0.0,0.0,0.0,0.0,0.0,0.0,0.0,0.0,0.0,0.0,0.0,0.0,0.0,0.0,0.0,0.0,2.036,2.0418,2.0349,2.0706,2.1592,2.2841,2.4687,2.7175,2.9428,3.0975,3.1777,2.9369,2.7217,2.5379,2.4143,2.3254,2.2721,2.3102,2.3365,2.3513,0.0,0.0,0.0,0.0,0.0,0.0,0.0,0.0,0.0,0.0,0.0,0.0,0.0,0.0,0.0,2.4516,2.4686,2.4846,2.5826,2.6822,2.7862,2.9047,0.0,3.1359,3.1763,0.0,0.0,0.0,0.0,0.0,0.0,3.8164,0.0,4.5437,4.6501,4.7425,4.9464,5.0571,5.1977,5.4192,5.5029,5.5748,5.6585,5.6077,5.5359,5.4551,5.4909,5.4797,5.4134,5.4364,5.4526,5.4526,5.402,5.3476,5.2947,5.3049,5.2816,5.2246,5.1212,5.1168,5.1974,5.238,5.3006,5.3799,5.4787,5.5209,5.5141,5.4566,5.4329,5.4296,5.3721,5.3518,5.3518,5.3518,5.3518,5.3518,0.0,0.0,0.0,0.0,0.0,0.0,0.0,0.0,0.0,0.0,0.0,0.0,0.0,0.0,0.0,0.0,0.0,0.0,0.0,0.0,2.0379,2.0379,2.0349,2.0983,2.2484,2.3169,2.4883,2.764,2.9025,2.9976,3.0482,2.8437,2.6678,2.528,2.4228,2.3465,2.2993,2.3307,2.3638,2.3894,2.4016,0.0,0.0,0.0,0.0,0.0,0.0,0.0,0.0,0.0,0.0,0.0,0.0,0.0,2.4052,2.5312,2.5217,2.4978,2.6283,2.7112,2.7582,2.7411,0.0,0.0,3.4772,0.0,0.0,0.0,0.0,0.0,0.0,4.2828,4.4186,4.6614,4.7669,4.8865,5.081,0.0,5.4221,5.5029,5.5718,5.5897,5.5388,5.473,5.3803,5.2516,5.3955,5.4638,5.3927,5.4939,5.5516,5.5516,5.4178,5.3528,5.3464,5.2731,5.2331,5.2263,5.2168,5.2186,5.2235,5.2693,5.2926,5.3041,5.3478,5.3653,5.3653,5.3619,5.3585,5.3585,5.3518,5.3518,5.3518,5.3518,5.3518,5.3518,0.0,0.0,0.0,0.0,0.0,0.0,0.0,0.0,0.0,0.0,0.0,0.0,0.0,0.0,0.0,0.0,0.0,0.0,0.0,0.0,2.0347,2.0416,2.0318,2.113,2.312,2.4272,2.6321,2.9255,3.0716,3.108,3.0304,2.8115,2.6236,2.4641,2.3568,2.3068,2.3102,2.3468,2.371,2.3858,2.4058,2.4172,0.0,0.0,0.0,0.0,0.0,0.0,0.0,0.0,2.227,2.2013,0.0,2.3336,2.4033,2.5074,2.5463,2.5738,2.6407,2.7996,2.959,3.0075,0.0,0.0,0.0,0.0,0.0,0.0,0.0,0.0,0.0,0.0,4.5771,4.8497,4.9281,5.0306,5.2551,5.3529,5.4513,5.5906,5.6186,5.6248,5.5999,5.575,5.5093,5.3721,5.4606,5.4743,5.3638,5.3914,5.4166,5.4166,5.3517,5.3116,5.3116,5.3107,5.3069,5.3069,5.2159,5.2041,5.266,5.2425,5.2638,5.3271,5.345,5.3518,5.345,5.2976,5.2739,5.2739,5.2739,5.2739,5.2807,5.3315,5.3518,5.3518,0.0,0.0,0.0,0.0,0.0,0.0,0.0,0.0,0.0,0.0,0.0,0.0,0.0,0.0,0.0,0.0,0.0,0.0,2.0404,2.0359,2.0365,2.0399,2.0557,2.1531,2.3474,2.5174,2.7331,2.994,3.1115,3.0806,2.9066,2.6899,2.5074,2.356,2.2726,2.2648,2.3223,2.3786,2.3949,2.3894,2.4371,2.4469,0.0,0.0,0.0,0.0,0.0,0.0,0.0,0.0,2.2139,0.0,0.0,0.0,0.0,2.5536,2.5962,2.6308,2.7302,2.8511,2.9972,0.0,0.0,0.0,0.0,0.0,0.0,0.0,0.0,0.0,0.0,0.0,0.0,0.0,5.0829,5.1713,5.384,5.4304,5.4851,5.6112,5.6144,5.6048,5.5857,5.5634,5.4996,5.3815,5.4498,5.4534,5.3568,5.3855,5.4092,5.4092,5.3634,5.3479,5.3479,5.348,5.3518,5.3518,5.229,5.2196,5.3042,5.2615,5.2667,5.3112,5.3112,5.301,5.2739,5.2198,5.1961,5.1961,5.1961,5.2097,5.2334,5.2672,5.3078,5.345,0.0,0.0,0.0,0.0,0.0,0.0,0.0,0.0,0.0,0.0,0.0,0.0,0.0,0.0,0.0,0.0,0.0,0.0,2.0415,2.0404,2.0399,2.0415,2.1104,2.2163,2.3563,2.5701,2.7633,2.941,2.9591,2.8568,2.6454,2.4546,2.3124,2.2096,2.1892,2.2388,2.3448,2.4359,2.4432,2.3971,2.4977,2.4968,2.4388,0.0,0.0,0.0,0.0,0.0,0.0,0.0,2.2268,2.1414,0.0,0.0,0.0,2.6953,2.6788,2.6623,2.9097,2.8514,0.0,0.0,0.0,0.0,0.0,0.0,0.0,0.0,0.0,0.0,0.0,0.0,0.0,5.1355,5.2248,5.2957,5.4397,5.5165,5.5613,5.5613,5.5496,5.5123,5.4505,5.3751,5.305,5.2397,5.3388,5.403,5.403,5.5046,5.5683,5.5683,5.4972,5.4566,5.4566,5.3856,5.3518,5.3484,5.2672,5.2706,5.3484,5.3484,5.3044,5.23,5.23,5.1894,5.1217,5.1217,5.1217,5.1183,5.1217,5.1657,5.2198,5.1488,5.2198,5.3281,0.0,0.0,0.0,0.0,0.0,0.0,0.0,0.0,0.0,0.0,0.0,0.0,0.0,0.0,0.0,0.0,0.0,0.0,2.0399,2.041,2.042,2.0478,2.0573,2.1568,2.3574,2.591,2.7727,2.9066,2.8494,2.7093,2.4909,2.3619,2.272,2.222,2.1927,2.2013,2.2376,2.2874,2.2746,2.2185,2.2721,2.2889,2.2868,0.0,0.0,0.0,0.0,0.0,0.0,0.0,0.0,0.0,0.0,0.0,0.0,2.5749,2.6457,2.7061,2.723,2.8663,0.0,0.0,0.0,0.0,0.0,0.0,0.0,0.0,0.0,4.9425,4.8845,0.0,0.0,5.0903,5.1447,5.2269,5.3994,5.4358,5.4743,5.5596,5.5605,5.5547,5.5314,5.5114,5.4682,5.3989,5.4276,5.4216,5.3713,5.399,5.416,5.416,5.3957,5.3822,5.3822,5.3619,5.3213,5.2672,5.2401,5.2435,5.2672,5.2672,5.2232,5.1555,5.2063,5.1894,5.1183,5.0642,5.0135,4.9695,5.0236,5.0541,5.0777,5.1116,5.1488,5.1826,0.0,0.0,0.0,0.0,0.0,0.0,0.0,0.0,0.0,0.0,0.0,0.0,0.0,0.0,0.0,0.0,0.0,0.0,0.0,2.0425,2.0478,2.0487,2.0714,2.1692,2.3474,2.4781,2.5709,2.6269,2.6361,2.5439,2.3392,2.2145,2.1362,2.0951,2.0939,2.1138,2.1555,2.2117,2.1965,2.1381,2.2024,2.2221,2.2167,0.0,0.0,0.0,0.0,0.0,0.0,0.0,0.0,0.0,0.0,0.0,0.0,2.5589,2.6312,2.7126,2.7948,0.0,0.0,0.0,0.0,0.0,0.0,0.0,0.0,0.0,0.0,5.0554,5.049,5.0344,0.0,5.2037,5.2514,5.3128,5.4522,5.4665,5.4974,5.5646,5.5446,5.5277,5.5277,5.5006,5.4634,5.4194,5.416,5.3957,5.3518,5.3518,5.3518,5.3518,5.3179,5.301,5.301,5.2739,5.2334,5.186,5.1555,5.142,5.142,5.1725,5.1454,5.0777,5.0913,5.0744,5.0304,4.9864,4.939,4.9052,4.9492,4.983,5.0101,5.027,5.0866,5.1526,0.0,0.0,0.0,0.0,0.0,0.0,0.0,0.0,0.0,0.0,0.0,0.0,0.0,0.0,0.0,0.0,0.0,0.0,0.0,0.0,2.0491,2.0491,2.1184,2.2087,2.3182,2.2879,2.257,2.2246,2.371,2.3516,2.1792,2.0441,1.951,1.8926,1.9378,2.0047,2.0823,2.1704,2.1667,2.1087,2.2173,2.2305,2.1905,2.2211,0.0,0.0,0.0,0.0,0.0,0.0,0.0,0.0,0.0,0.0,2.4401,2.5897,2.6272,2.6944,0.0,0.0,0.0,0.0,0.0,0.0,0.0,0.0,0.0,0.0,0.0,5.1025,5.2944,5.163,5.1258,5.4092,5.4499,5.47,5.5441,5.5511,5.548,5.5483,5.4906,5.4499,5.4499,5.389,5.3484,5.3416,5.3382,5.3382,5.3281,5.3281,5.3281,5.3281,5.257,5.2198,5.2198,5.1555,5.1183,5.1116,5.0405,5.0067,4.9999,5.0777,5.0744,5.0067,4.9323,4.9018,4.9018,4.9018,4.9018,4.9018,4.9018,4.939,4.9898,4.9255,5.0291,5.182,0.0,0.0,0.0,0.0,0.0,0.0,0.0,0.0,0.0,0.0,0.0,0.0,0.0,0.0,0.0,0.0,0.0,0.0,0.0,0.0,2.0508,2.0515,2.1139,2.1529,2.1568,2.1936,2.1948,2.1677,2.2084,2.1378,1.9757,1.9369,1.9188,1.9133,1.9412,1.9633,1.9893,2.023,2.0039,1.9577,1.9937,2.0144,2.0376,2.1228,2.0913,0.0,0.0,0.0,0.0,0.0,0.0,0.0,2.3372,2.4181,2.4382,2.476,2.5657,2.6941,0.0,3.0659,0.0,0.0,0.0,0.0,0.0,0.0,0.0,4.8639,5.0991,5.3145,5.1665,5.2606,5.3584,5.3754,5.3754,5.3788,5.3923,5.3991,5.3957,5.3991,5.3822,5.3754,5.3754,5.3585,5.3247,5.2604,5.257,5.23,5.1758,5.1691,5.1691,5.1691,5.1555,5.1454,5.1454,5.1285,5.0913,5.0338,5.0168,4.9796,4.9255,4.9999,5.0236,5.0067,4.9323,4.9018,4.9018,4.9018,4.9018,4.9018,4.9018,4.9086,4.9221,4.9052,4.9607,5.0426,0.0,0.0,0.0,0.0,0.0,0.0,0.0,0.0,0.0,0.0,0.0,0.0,0.0,0.0,0.0,0.0,0.0,0.0,0.0,0.0,2.0495,2.0448,2.0714,2.0792,2.0581,2.0714,2.0707,2.047,2.0399,0.0,0.0,0.0,1.8814,1.8814,1.9023,1.9145,1.9184,1.9356,1.9291,1.9117,1.9316,1.9555,1.9826,2.0433,2.0297,1.9838,2.0201,0.0,0.0,0.0,0.0,0.0,0.0,0.0,2.4027,2.4417,2.5014,2.5981,0.0,0.0,0.0,0.0,0.0,0.0,0.0,0.0,5.1794,4.9675,5.1493,5.318,5.2269,5.2539,5.2976,5.2942,5.2638,5.2403,5.2404,5.2371,5.2403,5.2401,5.274,5.291,5.2942,5.3281,5.3179,5.2367,5.23,5.1995,5.1251,5.1217,5.1217,5.1217,5.0879,5.0676,5.0676,4.9999,4.9458,4.9052,4.868,4.8455,4.8377,4.8863,4.9255,4.9526,4.8815,4.868,4.9018,4.9018,4.9018,4.8951,4.8612,4.8714,4.9012,4.8933,4.9608,5.05,0.0,0.0,0.0,0.0,0.0,0.0,0.0,0.0,0.0,0.0,0.0,0.0,0.0,0.0,0.0,0.0,0.0,0.0,0.0,0.0,0.0,2.0399,2.0241,2.0131,2.0012,1.9748,1.9633,1.9656,0.0,0.0,0.0,0.0,0.0,1.8502,1.882,1.8859,1.877,1.8949,1.9051,1.9146,1.9398,1.9582,1.9726,1.9908,1.9884,1.9776,1.9713,1.9513,1.9319,1.9364,0.0,0.0,0.0,0.0,2.3445,2.4195,2.4382,2.4971,0.0,0.0,0.0,0.0,0.0,0.0,0.0,0.0,5.1183,5.1048,5.1623,5.2334,5.2976,5.2063,5.142,5.2029,5.1623,5.1189,5.1195,5.1226,5.1189,5.1217,5.1763,5.2067,5.2131,5.2706,5.2773,5.1995,5.1928,5.1589,5.0879,5.0845,5.0777,5.0642,5.0033,4.9661,4.9526,4.8342,4.7733,4.7699,4.7174,4.7295,4.7889,4.7866,4.8226,4.8907,4.8294,4.8337,4.8761,4.8761,4.8734,4.8578,4.8192,4.8421,4.9018,4.9214,5.0101,5.1292,0.0,0.0,0.0,0.0,0.0,0.0,0.0,0.0,0.0,0.0,0.0,0.0,0.0,0.0,0.0,0.0,0.0,0.0,2.0495,0.0,0.0,2.0415,2.0234,2.0093,2.0084,1.9805,2.0012,2.0704,0.0,0.0,0.0,0.0,0.0,1.886,0.0,0.0,1.8984,1.9053,1.915,1.9256,1.9398,1.9541,1.9726,1.9847,1.9823,1.9713,1.9638,1.9485,1.9392,2.0021,2.0264,0.0,0.0,0.0,2.2697,2.341,2.4135,2.5105,0.0,0.0,0.0,0.0,0.0,0.0,0.0,0.0,5.1014,0.0,5.0845,5.1386,5.1488,5.1352,5.1251,5.1352,5.1285,5.1186,5.122,5.1183,5.118,5.1217,5.1315,5.1349,5.1352,5.1454,5.1217,5.0439,5.0371,5.0067,4.9323,4.9289,4.9018,4.8376,4.8274,4.7902,4.7225,4.7056,4.6955,4.6955,4.7386,4.7908,4.8549,4.792,4.801,4.8713,4.8643,4.833,4.7872,4.7872,4.7569,4.7183,4.8323,4.8847,4.9041,5.0365,5.1286,5.197,0.0,0.0,0.0,0.0,0.0,0.0,0.0,0.0,0.0,0.0,0.0,0.0,0.0,0.0,0.0,2.0402,2.0431,2.0431,2.0451,2.0426,2.0443,2.0394,2.0212,2.0114,2.0114,1.9926,1.9939,0.0,0.0,0.0,0.0,2.2425,2.2813,0.0,0.0,0.0,0.0,0.0,1.9748,1.9427,1.9485,1.9623,1.9763,1.9811,1.9788,1.9701,1.9585,1.9456,1.9355,1.962,1.9884,2.0208,2.0946,0.0,0.0,0.0,2.3133,0.0,2.8312,0.0,0.0,0.0,0.0,0.0,4.6887,0.0,4.8646,4.8308,4.8511,4.8984,4.983,4.9661,4.9492,4.9898,4.9289,4.8883,4.9317,4.939,4.9328,4.9351,5.0067,5.0574,5.0574,5.098,5.0744,4.956,4.9492,4.8984,4.7834,4.7767,4.7631,4.7293,4.7293,4.7267,4.7261,4.6578,4.617,4.6083,4.7081,4.7713,4.7992,4.7983,4.8263,4.87,4.8275,4.7943,4.7726,4.812,4.7889,4.7374,4.791,4.8714,4.9469,4.9648,5.0437,5.1437,0.0,0.0,0.0,0.0,0.0,0.0,0.0,0.0,0.0,0.0,0.0,0.0,0.0,0.0,0.0,0.0,2.0438,2.0428,2.0412,2.0386,2.0404,2.0392,2.0227,2.0143,2.0114,2.0207,2.0276,0.0,0.0,0.0,2.2913,2.4459,2.6487,0.0,2.6321,0.0,0.0,0.0,0.0,0.0,1.968,1.9662,1.9763,1.9775,1.9901,1.9937,1.962,1.9686,1.9863,1.9397,1.9628,2.0137,2.021,2.0588,0.0,0.0,0.0,2.3709,0.0,0.0,0.0,0.0,0.0,0.0,0.0,0.0,4.594,4.594,4.6109,4.6447,4.7158,4.7496,4.78,4.8342,4.753,4.6955,4.7522,4.7639,4.7646,4.7623,4.8612,4.926,4.9255,4.9796,4.9598,4.8511,4.8409,4.7894,4.6583,4.6684,4.6616,4.6244,4.6413,4.6726,4.7138,4.6124,4.5492,4.5404,4.6338,4.6892,4.7016,4.7673,4.8084,4.8247,4.7936,4.77,4.7681,4.8183,4.7985,4.7387,4.7709,4.8555,4.9541,4.9261,4.988,5.0867,0.0,0.0,0.0,0.0,0.0,0.0,0.0,0.0,0.0,0.0,0.0,0.0,2.0392,2.0404,2.0386,2.0397,2.0472,2.0459,2.0383,2.041,2.0386,2.0301,2.0219,0.0,2.0203,2.0792,0.0,0.0,0.0,0.0,2.9007,2.7624,2.957,3.412,2.9945,2.6226,2.3101,0.0,0.0,0.0,0.0,1.966,1.9712,1.9763,2.0225,2.0718,1.9838,2.044,2.1414,1.9827,1.9729,2.0299,2.021,2.0228,2.0533,0.0,0.0,0.0,0.0,0.0,0.0,0.0,0.0,0.0,0.0,0.0,4.3606,4.3606,4.4181,4.4282,4.2895,4.4959,4.6853,4.6887,4.6853,4.6786,4.6853,4.6853,4.6853,4.6853,4.6921,4.6955,4.6955,4.6971,4.7005,4.6921,4.6903,4.6564,4.5805,4.6413,4.6143,4.4722,4.5399,4.5704,4.5632,4.5348,4.5178,4.5024,4.5106,4.5388,4.5993,4.68,4.7167,4.7201,4.7972,4.7947,4.7407,4.745,4.7062,4.6625,4.8021,4.8604,4.8836,5.019,5.0762,5.0798,0.0,0.0,0.0,0.0,0.0,0.0,0.0,0.0,0.0,0.0,0.0,0.0,0.0,2.0395,2.0402,2.0414,2.0328,2.0318,2.0318,2.0837,2.085,2.0332,2.0765,2.077,2.0211,2.0948,0.0,0.0,0.0,2.2533,2.5464,2.6037,2.7811,3.0404,3.0577,2.94,2.7139,2.5466,0.0,0.0,0.0,0.0,0.0,0.0,0.0,0.0,0.0,0.0,2.2808,2.2407,2.2207,2.2161,2.2131,2.1258,2.0389,2.1294,2.2504,2.4135,0.0,0.0,0.0,0.0,3.5557,3.7149,3.8715,4.0324,4.1562,4.188,4.2219,4.2388,4.2286,4.3572,4.4621,4.4621,4.4215,4.4079,4.4553,4.4621,4.4621,4.4621,4.55,4.6075,4.6075,4.649,4.6397,4.5437,4.5395,4.4822,4.3541,4.3741,4.3681,4.3132,4.3765,4.4249,4.4541,4.5293,4.5413,4.5003,4.5358,4.5662,4.592,4.6214,4.6324,4.6361,4.6617,4.6715,4.6627,4.7034,4.6871,4.637,4.728,4.8287,4.9281,4.9492,4.9898,5.0305,0.0,0.0,0.0,0.0,0.0,0.0,0.0,0.0,0.0,0.0,0.0,0.0,0.0,0.0,2.1225,2.1234,2.1069,2.1011,2.1113,2.1551,2.1626,2.1111,2.1334,2.1364,2.1039,2.156,0.0,0.0,0.0,0.0,0.0,2.5327,2.6709,2.8257,3.0577,3.0862,0.0,0.0,0.0,2.3746,0.0,0.0,2.3078,0.0,0.0,0.0,0.0,0.0,0.0,2.4776,2.4261,2.3802,2.3506,2.2117,2.0584,2.0942,2.2054,2.3634,2.5685,0.0,0.0,0.0,0.0,3.4466,3.6502,3.7797,3.8819,3.9966,3.9935,4.002,4.1001,4.161,4.2185,4.2929,4.2625,4.2455,4.2963,4.3031,4.3031,4.3031,4.3944,4.4553,4.4553,4.497,4.4913,4.3933,4.4033,4.3552,4.2312,4.262,4.2875,4.2893,4.3498,4.3825,4.3898,4.4958,4.515,4.4481,4.4894,4.5076,4.5112,4.5369,4.5551,4.5655,4.595,4.6104,4.6118,4.6541,4.6428,4.6157,4.6691,4.7536,4.8532,4.8613,4.9001,4.9482,0.0,0.0,0.0,0.0,0.0,0.0,0.0,0.0,0.0,0.0,0.0,0.0,0.0,0.0,0.0,2.2887,2.2633,2.2515,2.2671,2.256,2.249,2.2598,2.1904,2.1902,2.2662,2.2747,0.0,0.0,0.0,0.0,0.0,0.0,2.6759,2.8425,3.0077,3.0339,2.9439,0.0,2.7176,2.4847,0.0,2.3408,2.4923,0.0,0.0,0.0,2.7826,2.845,0.0,2.6892,2.5757,2.5107,2.42,2.2664,2.1167,2.0958,2.1597,0.0,0.0,0.0,0.0,0.0,0.0,0.0,3.4219,3.4837,3.5318,3.7581,3.733,3.7144,3.8599,3.8903,3.9648,4.1779,4.2185,4.2219,4.2219,4.2272,4.2272,4.2272,4.2306,4.2306,4.2306,4.2314,4.2274,4.2294,4.2837,4.2835,4.2149,4.3265,4.3951,4.3951,4.4599,4.4529,4.3808,4.4382,4.4268,4.3495,4.3495,4.3532,4.3532,4.434,4.4875,4.5227,4.6015,4.6157,4.5883,4.5883,4.5883,4.5919,4.6261,4.6424,4.6531,4.7747,4.8192,4.8306,0.0,0.0,0.0,0.0,0.0,0.0,0.0,0.0,0.0,0.0,0.0,0.0,2.2876,2.2784,2.2667,2.2543,2.1923,2.1791,2.2388,2.182,2.1806,2.2498,2.2369,2.2431,2.269,2.3332,0.0,0.0,0.0,0.0,0.0,0.0,0.0,0.0,2.8683,2.9091,2.8789,2.7913,0.0,0.0,2.6312,2.6793,0.0,0.0,0.0,0.0,0.0,3.0442,3.1564,0.0,3.0005,2.8442,0.0,0.0,0.0,0.0,0.0,0.0,2.2835,0.0,0.0,0.0,0.0,0.0,3.0441,3.1788,3.2965,3.3768,3.4669,3.5372,3.5656,3.6637,3.7584,3.8193,3.9648,4.0696,4.0696,4.1032,4.1292,4.1292,4.1808,4.2152,4.2152,4.2244,4.2241,4.2152,4.2319,4.224,4.1895,4.2243,4.2619,4.3028,4.3264,4.3389,4.3579,4.3758,4.3852,4.3849,4.3849,4.4035,4.4299,4.4524,4.4693,4.4804,4.5002,4.5086,4.5072,4.5634,4.5843,4.5843,4.5978,4.6365,4.6993,4.773,4.8004,4.807,0.0,0.0,0.0,0.0,0.0,0.0,0.0,0.0,0.0,0.0,0.0,0.0,2.3676,2.4272,2.4395,2.3822,2.3037,2.2783,2.3205,2.2116,2.1744,2.2363,2.24,2.2646,2.3127,2.3645,2.4044,0.0,0.0,0.0,0.0,0.0,0.0,0.0,0.0,0.0,0.0,0.0,0.0,0.0,2.7619,0.0,0.0,3.0768,3.1317,0.0,0.0,0.0,3.3984,3.3517,3.226,0.0,0.0,0.0,0.0,0.0,0.0,0.0,0.0,0.0,0.0,0.0,0.0,0.0,2.9625,3.0664,3.1498,3.2631,3.3711,3.4472,3.4619,3.6051,3.7157,3.7002,3.8295,3.9399,3.946,3.9755,3.9995,4.0263,4.0682,4.1136,4.145,4.1544,4.1691,4.1952,4.2211,4.2376,4.2481,4.251,4.2657,4.3032,4.3177,4.3387,4.3693,4.3886,4.4065,4.4233,4.4233,4.4373,4.4599,4.4632,4.4723,4.4865,4.4903,4.5029,4.5214,4.5663,4.5665,4.544,4.5632,4.6005,4.6493,4.7329,4.7624,4.7702,0.0,0.0,0.0,0.0,0.0,0.0,0.0,0.0,0.0,0.0,0.0,2.4431,2.5012,2.642,2.6908,2.5939,2.5123,2.4622,2.4489,2.2933,2.207,2.2149,2.2093,2.2602,2.3736,2.377,2.4266,2.5222,0.0,0.0,0.0,0.0,0.0,0.0,0.0,0.0,0.0,0.0,0.0,2.8579,2.8001,2.9568,0.0,0.0,3.4464,3.5328,3.6155,3.647,3.6277,3.4891,3.311,0.0,0.0,0.0,0.0,0.0,2.1292,0.0,0.0,0.0,0.0,0.0,2.5235,0.0,2.9839,3.0207,3.0325,3.2473,3.331,3.3835,3.4472,3.6127,3.7296,3.7094,3.7575,3.8102,3.8391,3.8478,3.8692,3.9186,3.9226,3.9545,4.0324,4.0353,4.0729,4.1684,4.2409,4.2995,4.3529,4.3529,4.3563,4.3631,4.3912,4.4058,4.4058,4.4411,4.4636,4.4688,4.47,4.4688,4.4764,4.4783,4.5004,4.529,4.5392,4.5628,4.5881,4.5911,4.5543,4.5019,4.5346,4.5456,4.5563,4.6658,4.7047,4.7145,2.295,0.0,0.0,0.0,0.0,0.0,0.0,0.0,0.0,0.0,0.0,0.0,0.0,2.7138,2.7251,2.694,2.622,2.5421,2.4462,2.2885,2.1993,2.2024,2.1428,2.1881,2.3613,2.3738,2.4511,2.598,0.0,0.0,0.0,0.0,0.0,0.0,0.0,0.0,0.0,0.0,0.0,2.9595,2.9982,0.0,3.4109,3.4268,3.4894,3.5829,3.6469,3.7076,3.7291,3.5374,3.3651,3.1905,0.0,0.0,0.0,2.4098,0.0,0.0,0.0,0.0,0.0,0.0,0.0,0.0,2.5111,2.6521,2.7699,2.8583,3.0209,3.1705,3.2431,3.3727,3.5048,3.5945,3.6073,3.6342,3.7176,3.7674,3.8007,3.808,3.808,3.8438,3.9228,3.8922,3.9443,4.1343,4.2632,4.3493,4.3881,4.3912,4.4065,4.4383,4.4465,4.4455,4.4455,4.4636,4.4847,4.5162,4.5218,4.5375,4.5649,4.5649,4.5693,4.5759,4.5748,4.5777,4.5913,4.5848,4.5721,4.5645,4.5763,4.5777,4.5765,4.6033,4.6147,4.6181,2.408,0.0,0.0,0.0,0.0,0.0,0.0,0.0,0.0,0.0,0.0,0.0,0.0,0.0,0.0,2.7643,2.6947,2.6258,2.5522,2.3249,2.1881,2.1852,2.1068,2.1138,2.2235,2.2779,2.3664,2.4955,0.0,0.0,0.0,0.0,0.0,0.0,0.0,0.0,0.0,0.0,2.8335,2.9717,3.0547,0.0,3.4154,3.4854,3.5238,3.5652,3.689,3.7519,3.7358,3.5168,3.3582,0.0,3.0024,2.7526,2.5195,0.0,2.2694,2.1079,0.0,0.0,0.0,2.1472,0.0,0.0,0.0,2.468,2.6083,2.7642,2.9656,3.1355,3.2057,3.3471,3.4535,3.4469,3.4902,3.5474,3.5948,3.602,3.6125,3.6386,3.6054,3.6272,3.754,3.7781,3.8794,4.1068,4.2059,4.26,4.2776,4.2913,4.3315,4.4025,4.3781,4.3869,4.4334,4.4156,4.4149,4.436,4.4742,4.5049,4.5209,4.5646,4.5857,4.5859,4.5852,4.5765,4.5635,4.5195,4.5118,4.5297,4.5735,4.5879,4.5813,4.5688,4.5642,4.5624,2.5194,0.0,0.0,0.0,0.0,0.0,0.0,0.0,0.0,0.0,0.0,0.0,0.0,0.0,0.0,0.0,2.8428,2.7718,0.0,2.445,2.2609,2.1698,2.1073,2.0773,2.0886,2.1806,2.2803,2.3891,0.0,0.0,0.0,0.0,0.0,0.0,0.0,0.0,0.0,0.0,0.0,3.0076,0.0,3.2344,3.4128,3.5278,3.558,3.557,3.7061,3.764,3.7381,3.5245,3.387,3.2675,3.0268,2.7911,0.0,0.0,0.0,0.0,0.0,0.0,0.0,0.0,0.0,2.0732,0.0,0.0,0.0,2.7092,2.9225,3.0956,3.198,3.3624,3.4506,3.3626,3.4269,3.4966,3.5061,3.4522,3.4447,3.5346,3.4855,3.4903,3.604,3.6748,3.8037,4.0382,4.0985,4.1306,4.1567,4.1931,4.2548,4.3412,4.3041,4.314,4.3916,4.3525,4.3373,4.3357,4.3981,4.4286,4.4312,4.521,4.5551,4.5484,4.5531,4.5351,4.4938,4.4046,4.3841,4.414,4.5077,4.5515,4.5611,4.5342,4.5255,4.5191,2.5335,2.5454,0.0,0.0,0.0,0.0,0.0,0.0,0.0,2.9061,0.0,0.0,0.0,0.0,0.0,0.0,0.0,0.0,2.8103,0.0,2.5594,2.179,2.1587,2.1336,2.0834,2.1802,2.306,2.4579,0.0,0.0,0.0,0.0,0.0,0.0,2.5907,0.0,0.0,0.0,3.0522,0.0,3.201,3.346,0.0,3.5503,3.6009,3.6681,3.6522,3.7374,3.8291,0.0,3.5612,3.4847,0.0,2.9366,2.6051,2.4609,0.0,0.0,0.0,0.0,0.0,0.0,2.0015,0.0,2.0943,0.0,2.2682,2.4694,0.0,2.8693,3.1154,0.0,0.0,3.4658,3.4695,3.4746,3.4987,3.4149,3.4363,3.678,3.6885,3.6506,3.5749,3.564,3.6447,3.8464,3.9362,4.0289,4.1366,4.227,4.2947,4.3208,4.3183,4.3177,4.3209,4.3222,4.323,4.3237,4.3435,4.352,4.355,4.4423,4.4651,4.4387,4.426,4.4037,4.3605,4.2285,4.1744,4.1903,4.3246,4.4183,4.4764,4.4688,4.47,4.47,2.4829,2.4996,0.0,0.0,0.0,0.0,0.0,0.0,0.0,3.0122,0.0,0.0,0.0,0.0,0.0,0.0,0.0,3.1793,0.0,0.0,0.0,2.6153,2.3697,2.2519,2.2868,2.2837,2.3198,2.3955,2.3979,0.0,0.0,0.0,0.0,0.0,2.5829,0.0,2.6826,0.0,3.0919,0.0,0.0,3.5165,0.0,3.526,3.5556,3.6522,3.6347,3.6743,3.711,0.0,3.4557,0.0,0.0,0.0,0.0,2.5694,0.0,0.0,0.0,0.0,0.0,0.0,0.0,0.0,1.9425,0.0,2.0813,2.2599,0.0,0.0,0.0,0.0,0.0,0.0,3.3879,3.4443,3.5642,3.6062,3.6134,3.5875,3.542,3.5116,3.5128,3.6477,3.7419,3.7638,3.8704,3.9508,3.996,4.0571,4.1124,4.1741,4.1543,4.1716,4.228,4.1635,4.1287,4.1274,4.1788,4.2028,4.2025,4.2857,4.3088,4.2963,4.2649,4.2313,4.1883,4.0504,4.0105,4.0379,4.0484,4.1507,4.2939,4.3171,4.3295,4.3229,2.4801,0.0,0.0,0.0,0.0,0.0,0.0,0.0,0.0,0.0,0.0,0.0,3.4897,3.4246,0.0,0.0,3.4971,3.3611,0.0,0.0,2.8353,0.0,0.0,0.0,0.0,2.4321,2.4024,2.402,0.0,0.0,0.0,0.0,0.0,0.0,0.0,2.6826,2.7001,0.0,3.1613,3.2329,3.4219,3.5214,3.557,3.4892,3.5184,3.5899,3.5679,3.5899,3.6156,3.5284,3.3902,3.2601,3.3214,3.0004,2.6104,0.0,0.0,0.0,2.3206,0.0,0.0,0.0,0.0,2.0893,1.9383,1.8937,1.9247,2.0743,2.3162,0.0,0.0,0.0,3.1074,3.2354,0.0,3.4279,3.5575,3.6982,3.7376,3.6083,3.5047,3.4885,3.6031,3.7133,3.7709,3.7528,3.8392,3.8879,3.8814,3.9168,3.9647,4.0232,3.9913,4.0185,4.1131,4.0099,3.9575,3.9575,3.9997,4.0225,4.0225,4.1154,4.1417,4.1156,4.098,4.0628,4.0117,3.8762,3.828,3.8403,3.7847,3.8531,3.9938,4.1346,4.1851,4.1884,2.5729,2.5114,0.0,0.0,0.0,0.0,0.0,0.0,0.0,0.0,0.0,0.0,0.0,0.0,0.0,0.0,0.0,3.7041,3.3844,0.0,3.1983,0.0,0.0,2.8067,0.0,0.0,2.5947,2.5615,0.0,0.0,0.0,0.0,0.0,0.0,0.0,2.8731,2.855,3.1883,3.3007,3.258,3.2603,3.2603,3.2841,0.0,3.5165,3.4917,3.4174,3.4908,3.6156,3.5284,3.4688,3.4129,3.2847,3.054,2.8157,0.0,0.0,0.0,2.5306,2.4541,2.3977,2.5232,2.2728,2.0322,2.165,1.9819,1.8155,1.9243,2.1703,2.4202,2.5987,2.8627,0.0,0.0,0.0,0.0,0.0,3.566,3.7256,3.8618,3.7469,3.7346,3.9262,3.7063,3.6254,3.8151,3.8344,3.8395,3.832,3.8955,3.9223,3.907,3.8735,3.8898,3.9656,3.9139,3.8846,3.8846,3.8383,3.8205,3.8242,3.9565,3.9704,3.89,3.9438,3.9182,3.838,3.7015,3.6088,3.552,3.569,3.5429,3.5389,3.9295,4.0724,4.0866,0.0,0.0,0.0,0.0,0.0,0.0,0.0,3.0813,0.0,0.0,0.0,0.0,0.0,4.1535,4.1618,0.0,0.0,3.9133,3.8475,3.6023,0.0,0.0,0.0,3.126,0.0,0.0,0.0,0.0,0.0,0.0,0.0,0.0,0.0,0.0,0.0,2.832,0.0,0.0,0.0,0.0,0.0,3.5156,3.6122,3.4797,3.4265,3.4174,3.3917,3.4174,3.4614,3.4321,3.3712,3.3041,3.2401,3.0659,2.863,2.7526,2.6864,2.67,2.7536,2.8053,2.8334,2.8386,2.653,2.4237,2.2516,2.0303,1.8609,1.8459,2.0862,2.344,2.4863,0.0,0.0,0.0,0.0,3.4794,0.0,3.6328,3.7,3.8412,3.8112,3.7647,3.7141,3.7825,3.811,3.7538,3.8617,3.8883,3.7998,3.7889,3.7438,3.6581,3.6952,3.7301,3.7573,3.7689,3.7747,3.7747,3.7575,3.7505,3.7541,3.7967,3.8007,3.7718,3.7569,3.7071,3.6328,3.5509,3.4811,3.4186,3.428,3.4156,3.433,3.71,3.8153,3.8202,2.7824,0.0,0.0,0.0,0.0,0.0,0.0,0.0,0.0,0.0,3.9392,0.0,4.3724,0.0,4.412,0.0,4.2832,4.1106,4.0281,3.7843,0.0,3.6071,3.4869,0.0,0.0,0.0,0.0,0.0,0.0,2.8832,0.0,0.0,0.0,0.0,0.0,2.8669,2.7994,3.1614,3.3045,0.0,0.0,3.5985,0.0,3.4987,3.4539,3.4713,3.4017,3.3807,3.3807,3.3807,3.3161,3.2326,3.2162,3.0949,2.9558,2.9082,2.9039,2.9386,3.0391,3.0851,3.1109,3.12,2.9295,2.6913,2.5,2.2839,2.1097,2.0525,2.2363,2.4413,2.562,2.7498,0.0,0.0,0.0,0.0,0.0,3.6539,3.6531,3.7417,3.7792,3.765,3.684,3.8319,3.8858,3.7652,3.8832,3.8965,3.7414,3.7079,3.6248,3.4855,3.5291,3.5686,3.6006,3.6112,3.6284,3.6556,3.6153,3.5908,3.5908,3.6084,3.6077,3.5908,3.5727,3.5296,3.4698,3.4414,3.3853,3.3235,3.3235,3.3077,3.3105,3.5281,3.6039,3.607,0.0,0.0,0.0,0.0,3.0246,0.0,0.0,0.0,3.7856,0.0,4.0826,4.4385,4.2299,4.4209,4.5402,4.4812,4.4722,4.3132,3.9512,3.9501,0.0,0.0,3.6127,3.5717,3.4345,0.0,0.0,0.0,0.0,0.0,0.0,0.0,0.0,0.0,2.8783,0.0,2.9017,3.2203,3.3355,3.325,3.4659,3.5009,3.4754,3.5091,3.5795,3.6356,3.4465,3.3807,3.3807,3.3733,3.3003,3.2068,3.2032,3.1426,3.0904,3.1733,3.2245,3.2695,3.3514,3.2819,3.2191,3.3506,3.093,2.8264,2.9016,2.7138,2.521,2.5074,2.5889,2.6873,2.7872,2.877,2.9873,0.0,0.0,0.0,3.6535,3.6221,3.5834,3.5899,3.6645,3.7461,3.8281,3.8348,3.8337,3.8277,3.8955,3.8491,0.0,3.6453,3.5636,3.3846,3.374,3.4086,3.4926,3.4454,3.4565,3.5296,3.4137,3.3598,3.3649,3.4056,3.4007,3.3585,3.4056,3.3958,3.3451,3.3515,3.313,3.2485,3.2516,3.2104,3.1715,3.3787,3.4463,3.4399,2.9986,3.0975,3.1707,0.0,3.1531,3.1998,0.0,0.0,0.0,0.0,4.2844,4.5391,4.5847,4.8183,4.8999,4.7192,4.6549,0.0,0.0,0.0,0.0,3.9073,3.9528,3.8594,3.5814,3.6057,0.0,3.3626,0.0,0.0,2.8986,0.0,0.0,0.0,0.0,0.0,2.9108,3.3505,3.5168,3.476,3.4371,3.4971,3.5937,3.4686,3.5198,3.6356,3.4465,3.3807,3.3697,3.3109,3.2502,3.1874,3.0969,3.0906,3.1032,3.0437,3.1533,3.2967,3.2625,3.2875,3.3433,3.3944,3.233,3.0562,3.039,2.8745,2.6988,2.6135,2.7132,2.7951,2.73,2.9661,3.1847,0.0,0.0,0.0,0.0,3.6306,3.5857,3.5962,3.6168,3.6364,3.655,3.6359,3.6415,3.687,3.6951,3.6608,3.5824,3.4576,3.3437,3.2398,3.2144,3.2121,3.2413,3.2836,3.3371,3.4038,3.3719,3.3598,3.3598,3.3738,3.3448,3.288,3.3512,3.2857,3.1475,3.2457,3.2153,3.1071,3.1585,3.1306,3.0775,3.2254,3.2416,3.1983,3.1424,0.0,0.0,3.3579,0.0,0.0,3.6009,3.7323,0.0,4.1214,4.5214,0.0,4.611,4.911,5.0338,4.8105,4.7225,0.0,4.4688,0.0,0.0,4.0663,4.0663,3.9423,3.661,3.6961,0.0,3.4847,0.0,0.0,3.1445,0.0,0.0,0.0,0.0,3.1084,3.0715,3.4018,3.5446,3.5454,3.4755,3.5098,0.0,3.485,3.485,3.5235,3.4191,3.3807,3.3697,3.2889,3.2356,3.1838,3.0843,3.0884,3.126,3.0836,3.1893,3.3146,3.3076,3.3508,3.4043,3.4353,3.3665,3.2772,3.2221,3.1276,3.032,2.9583,2.9946,3.0268,2.9737,3.1449,3.3073,0.0,0.0,0.0,0.0,0.0,3.5736,3.5405,3.539,3.5279,3.497,3.5106,3.5078,3.4674,3.4585,3.419,3.3276,3.2746,3.2231,3.1707,3.2266,3.284,3.3274,3.3155,3.3455,3.4118,3.2796,3.2149,3.2149,3.1536,3.1006,3.0728,3.145,3.0945,2.975,3.1414,3.1485,3.0496,3.0836,3.045,2.9803,3.0313,3.0086,2.9644,3.353,0.0,0.0,0.0,0.0,0.0,0.0,4.1467,0.0,4.2399,0.0,4.9513,4.5338,4.866,5.0405,4.8376,0.0,4.6346,4.4959,4.4147,4.2997,4.1407,4.073,3.9276,3.6975,3.7039,3.6577,0.0,0.0,0.0,0.0,0.0,0.0,0.0,0.0,0.0,0.0,3.424,3.5057,3.5637,3.5229,3.5098,3.5098,3.5098,3.4539,3.3807,3.3807,3.3807,3.3697,3.2889,3.2411,3.2017,3.1273,3.126,3.1648,3.209,3.2777,3.3449,3.4056,3.4223,3.4338,3.4655,3.4773,3.4604,3.4116,3.4028,3.3946,3.3696,3.3264,3.3017,3.3232,3.3466,3.4051,0.0,3.5151,3.5109,3.5715,0.0,0.0,0.0,3.4763,0.0,3.3968,3.4381,3.4018,3.2372,3.2145,3.1614,3.0507,3.1062,3.1533,3.1881,3.2964,3.4141,3.5251,3.3802,3.3521,3.4537,3.1599,3.0242,3.024,2.8881,2.8235,2.8213,2.8936,2.8886,2.8423,3.0305,3.0857,3.0496,3.0279,2.9695,2.8931,2.8452,2.7878,2.7416,0.0,0.0,0.0,0.0,0.0,3.9264,4.3511,4.2711,4.2486,4.5059,4.8135,4.9551,4.7911,4.9835,5.0811,4.9796,4.8477,0.0,0.0,0.0,0.0,4.2185,4.1982,4.0595,3.7787,3.6973,3.6456,0.0,0.0,0.0,0.0,0.0,0.0,0.0,0.0,0.0,3.5589,3.5639,0.0,3.5379,3.4418,3.4081,3.4081,3.4081,3.3944,3.3807,3.3807,3.3807,3.3697,3.2889,3.2543,3.2428,3.1952,3.2073,3.2466,3.2893,3.3479,3.4056,3.4176,3.4383,3.4675,3.4963,3.5016,3.5047,3.5177,3.5182,3.5124,3.4878,3.4715,3.4449,3.377,3.4431,3.5578,3.7139,3.6853,3.6273,3.585,3.5771,0.0,0.0,3.5654,3.5435,3.507,3.3862,3.2634,3.1583,3.0163,2.9941,3.1208,3.0072,3.0609,3.3237,3.1652,3.1647,3.3577,3.0855,3.0673,3.2907,3.0573,2.975,3.0269,2.933,2.856,2.803,2.8274,2.8048,2.7564,2.8537,2.9572,3.0466,2.9784,2.9359,2.8821,2.7611,2.6467,2.556,0.0,0.0,0.0,0.0,0.0,0.0,0.0,4.585,4.6184,4.7976,4.9238,4.9573,4.8362,4.9989,5.0777,4.9627,4.8173,4.7192,4.6819,4.5365,4.3842,4.2354,4.1914,4.0696,3.8531,3.7075,3.6798,3.7745,0.0,0.0,0.0,0.0,0.0,0.0,0.0,3.4677,0.0,0.0,3.5212,3.5511,3.4427,3.4093,3.426,3.426,3.426,3.426,3.426,3.4141,3.3857,3.2904,3.2889,3.3146,3.2669,3.2944,3.3475,3.387,3.42,3.4486,3.4668,3.4829,3.504,3.5337,3.54,3.5431,3.5518,3.5545,3.5489,3.5174,3.5488,3.5951,3.6381,3.6384,3.6669,3.7834,3.7052,3.622,3.5845,3.5664,3.5402,0.0,0.0,0.0,3.4182,3.3729,3.2627,3.0586,2.8969,2.8142,2.8376,2.8229,2.9326,3.1942,3.1924,3.2463,3.3684,3.171,3.1121,3.1921,3.0044,2.91,2.8939,2.7782,2.6778,2.6103,2.6774,2.6472,2.5491,2.7258,2.8309,2.88,2.8393,2.7908,2.7319,2.5997,2.5129,2.4683,0.0,3.7108,0.0,0.0,4.0441,4.2916,4.6584,4.8653,5.0112,5.074,5.0676,5.0135,4.8984,5.0135,5.0507,4.9357,4.7902,4.6955,4.6819,4.4823,4.3267,4.232,4.1576,4.0527,3.9039,3.7103,3.6916,0.0,0.0,3.5077,3.7167,0.0,0.0,0.0,0.0,0.0,3.6768,3.5123,3.4806,3.5371,3.4531,3.442,3.4713,3.4713,3.4713,3.4713,3.4713,3.4529,3.4195,3.3339,3.3386,3.375,3.3361,3.3678,3.4269,3.4593,3.4753,3.487,3.5134,3.5262,3.5343,3.5637,3.5688,3.5688,3.5611,3.5637,3.5542,3.5261,3.5929,3.704,3.8536,3.7987,3.7411,3.7763,3.6861,3.6048,3.5843,3.5561,3.5113,0.0,0.0,0.0,3.3601,3.4083,3.308,2.9797,2.8357,2.7212,2.6254,2.7113,2.8865,3.1564,3.2432,3.3288,3.4206,3.2382,3.1351,3.111,2.9327,2.8228,2.7644,2.6139,2.5086,2.4443,2.5043,2.4709,2.3778,2.6213,2.7173,2.7076,2.7072,2.6701,2.6107,2.4597,2.407,2.4097,0.0,0.0,0.0,0.0,0.0,4.4683,4.6955,4.9193,5.1275,5.2975,5.2536,5.2029,5.1894,5.0879,5.0135,4.9999,4.8646,4.753,4.6819,4.5331,4.3809,4.2354,4.1576,4.0527,3.9039,3.6818,3.6088,0.0,0.0,3.4829,3.5807,3.6247,3.5959,3.4939,3.341,3.3372,3.4554,3.5142,3.4969,3.4335,3.4237,3.442,3.4713,3.4713,3.4713,3.4713,3.4713,3.4693,3.4634,3.4538,3.42,3.3823,3.403,3.4162,3.4269,3.4593,3.487,3.5072,3.5189,3.5359,3.5599,3.5685,3.5694,3.5694,3.5694,3.5676,3.5699,3.5633,3.6285,3.71,3.7958,3.7997,3.7711,3.7113,3.6884,3.6577,3.5967,3.5579,3.5301,3.5353,3.53,0.0,3.5028,3.5174,3.3667,2.9701,2.8641,2.8254,2.849,2.8434,3.053,3.5155,3.2127,3.1657,3.4262,2.9787,2.8417,3.0115,2.7948,2.7208,2.767,2.5832,2.5016,2.4826,2.3559,2.3226,2.3716,2.5585,2.6384,2.6493,2.6493,2.6652,2.6542,2.4237,2.3468,2.3458,0.0,0.0,0.0,0.0,0.0,4.6707,4.8461,5.0051,5.1337,5.1995,5.2232,5.1961,5.1082,5.0439,4.9898,4.9492,4.8105,4.7124,4.6819,4.4553,4.2929,4.232,4.117,4.0257,3.9648,3.7449,3.6688,0.0,0.0,0.0,3.4892,3.5559,3.5622,3.5148,3.3524,3.3665,3.504,3.4806,3.4614,3.4529,3.4695,3.4906,3.519,3.519,3.519,3.519,3.519,3.5069,3.4944,3.4944,3.4655,3.4375,3.4675,3.4755,3.4794,3.5124,3.5331,3.5415,3.5592,3.5705,3.5789,3.5875,3.5852,3.5772,3.5499,3.5411,3.5468,3.5779,3.6504,3.7396,3.828,3.8003,3.7611,3.7507,3.6656,3.616,3.6562,3.5059,3.4473,3.5969,3.5249,3.4867,3.5549,3.5484,3.3919,3.038,2.866,2.7263,2.6224,2.6411,2.7826,3.0681,2.9707,2.9567,3.0503,2.8471,2.7596,2.7927,2.6896,2.6316,2.602,2.4684,2.3948,2.3578,2.2302,2.225,2.3013,2.4182,2.457,2.4446,2.4972,2.5123,2.4951,2.3109,2.2705,2.2833,4.4964,0.0,4.5304,4.6455,4.7242,4.8095,4.9124,5.0379,5.115,5.0913,5.1319,5.1251,5.0202,4.9898,4.9492,4.8748,4.753,4.6718,4.6481,4.3842,4.2286,4.2286,4.0865,0.0,4.0087,3.8125,3.7229,3.754,3.6149,3.4986,3.4099,3.4474,3.4764,3.4974,3.3598,3.3776,3.5032,3.4437,3.4383,3.4733,3.4981,3.5254,3.5493,3.5493,3.5493,3.5493,3.5493,3.5383,3.5223,3.5223,3.5069,3.4963,3.5051,3.5107,3.5179,3.5513,3.5612,3.5674,3.5842,3.5892,3.5908,3.5973,3.5939,3.5837,3.5555,3.5279,3.5248,3.5772,3.625,3.6863,3.7935,3.7427,3.6889,3.69,3.578,3.5324,3.6612,3.431,3.3508,3.6284,3.5221,3.4539,3.5292,3.5415,3.4167,3.096,2.8592,2.6768,2.555,2.6289,2.7381,2.8886,2.9027,2.8874,2.8505,2.7442,2.6436,2.5614,2.5524,2.5133,2.4492,2.3187,2.2274,2.1587,2.0724,2.0854,2.1733,2.2509,2.2834,2.296,2.3688,2.3892,2.3658,2.2411,2.2169,2.2331,4.9144,4.7713,4.652,4.8083,4.8384,4.8391,4.8425,5.0011,5.0947,5.0202,5.0101,5.0101,5.0101,4.9458,4.8714,4.8003,4.7225,4.6481,4.5771,4.3572,4.2286,4.2286,4.0865,4.0087,4.0087,3.8633,3.7516,3.6818,0.0,3.4868,3.342,3.3004,3.3359,3.4292,3.3455,3.3361,3.3834,3.4093,3.4383,3.4733,3.4981,3.5254,3.5493,3.5493,3.5493,3.5493,3.5493,3.5493,3.5493,3.5493,3.5493,3.5427,3.519,3.5148,3.5262,3.5513,3.5658,3.5718,3.5868,3.5892,3.5921,3.5978,3.5944,3.5894,3.5884,3.5343,3.4981,3.5749,3.5266,3.5187,3.6577,3.6179,3.5368,3.4666,3.4017,3.417,3.5785,3.3269,3.2564,3.6273,3.5325,3.4328,3.4136,3.5023,3.4335,3.1224,2.8586,2.737,2.8041,2.9464,3.0933,3.2579,3.1094,3.0076,2.9668,2.6386,2.4346,2.3576,2.3503,2.3526,2.3452,2.1349,1.9925,1.9,1.8524,1.8861,1.9707,2.0672,2.1613,2.2567,2.2861,2.3144,2.3199,2.2252,2.1962,2.1866,5.041,5.0401,5.0254,5.0265,4.9837,4.9492,4.9535,4.9622,4.9627,4.939,4.8917,4.8612,4.8612,4.8409,4.8173,4.7936,4.6786,4.5737,4.4993,4.3267,4.2083,4.1576,4.0595,4.0087,4.0087,3.8633,3.755,3.6772,3.6444,3.5676,3.4513,3.3737,3.3429,3.3561,3.3582,3.3644,3.3834,3.4093,3.4383,3.4733,3.4981,3.5254,3.5493,3.5493,3.5493,3.5493,3.5493,3.5493,3.5493,3.5493,3.5493,3.5493,3.5398,3.5431,3.5489,3.563,3.5746,3.5852,3.5922,3.5976,3.5976,3.5932,3.5699,3.5467,3.5405,3.4704,3.3998,3.3705,3.3039,3.2762,3.3734,3.3351,3.3058,3.3713,3.2788,3.2502,3.3858,3.2995,3.2757,3.4054,3.4104,3.3744,3.3014,3.2871,3.2619,3.2196,2.9876,2.8233,2.7635,2.6219,2.6112,2.754,2.6652,2.5966,2.5688,2.4419,2.3682,2.3526,2.2765,2.179,2.0411,1.9709,1.8841,1.7819,1.77,1.8404,1.9616,1.9912,2.0652,2.1615,2.1758,2.2039,2.2321,2.1355,2.1458,2.1886,5.1275,5.1333,5.1072,5.0717,5.0056,4.9528,4.9607,4.9033,4.8612,4.8612,4.7936,4.7496,4.7496,4.7259,4.709,4.709,4.5974,4.4959,4.4181,4.2726,4.1677,4.1238,4.0493,4.0087,4.0087,3.9174,3.8227,3.7212,3.618,3.5282,3.4513,3.3799,3.345,3.3437,3.3662,3.3807,3.3834,3.4093,3.4383,3.4733,3.4981,3.5254,3.5493,3.5493,3.5493,3.5493,3.5493,3.5493,3.5493,3.5493,3.5493,3.5493,3.5493,3.5545,3.5599,3.5668,3.5727,3.5834,3.5925,3.5963,3.593,3.5892,3.5687,3.5356,3.4691,3.4094,3.3346,3.2332,3.1715,3.1477,3.1937,3.1656,3.1578,3.2165,3.1287,3.1011,3.2438,3.1601,3.1373,3.2823,3.2849,3.2433,3.1741,3.1846,3.177,3.1404,3.0422,2.8939,2.6964,2.5574,2.5067,2.5474,2.5052,2.451,2.3931,2.3136,2.2729,2.2615,2.1683,2.0582,1.9173,1.8348,1.7449,1.6683,1.6683,1.7506,1.872,1.8807,1.9693,2.0945,2.0575,2.0904,2.1424,2.0815,2.0969,2.1375,5.1894,5.086,4.9803,4.9722,4.925,4.8841,4.8765,4.8265,4.7894,4.7834,4.7192,4.6684,4.665,4.6065,4.5625,4.5523,4.4914,4.4202,4.3457,4.2035,4.1222,4.1136,4.046,4.0087,4.0087,3.9986,3.9257,3.7801,3.54,3.4082,3.3703,3.3414,3.3444,3.3807,3.3807,3.3807,3.3834,3.4068,3.4398,3.4733,3.4963,3.5239,3.5493,3.5493,3.5493,3.5493,3.5493,3.5493,3.5493,3.5493,3.5493,3.5493,3.5493,3.5545,3.5586,3.5581,3.5655,3.5743,3.5847,3.5905,3.5892,3.5853,3.5776,3.5299,3.3802,3.3451,3.3014,3.1471,3.107,3.0982,3.0804,3.0715,3.0526,3.0051,2.9554,2.9751,3.1351,2.9412,2.9042,3.2291,3.1627,3.0716,3.0302,3.1544,3.1465,2.9362,3.002,2.9224,2.6258,2.6771,2.6675,2.5678,2.5561,2.5001,2.4072,2.25,2.15,2.1109,2.0301,1.968,1.9324,1.7122,1.594,1.5658,1.5628,1.6191,1.7203,1.7552,1.8784,2.0348,1.9635,1.9844,2.0573,2.0573,2.0569,2.0566,5.1977,5.171,5.1092,4.992,4.96,4.9132,4.8132,4.7838,4.7592,4.7115,4.6413,4.5737,4.5162,4.5357,4.5095,4.3872,4.4148,4.4044,4.3388,4.2408,4.1405,4.0409,4.0155,4.0087,4.0087,3.9005,3.7887,3.6793,3.5898,3.5332,3.5029,3.4371,3.396,3.3807,3.3807,3.3807,3.3807,3.385,3.4189,3.4713,3.4773,3.5069,3.5493,3.5493,3.5493,3.5493,3.5493,3.5493,3.5493,3.5493,3.5493,3.5493,3.5493,3.5507,3.5507,3.5573,3.5649,3.5724,3.5869,3.5893,3.5828,3.5507,3.4945,3.4268,3.3395,3.2475,3.1414,2.9879,2.901,2.8566,2.8447,2.8067,2.7742,2.7852,2.7822,2.7927,2.8336,2.9436,3.0021,2.957,3.0769,3.0675,2.8273,2.8454,2.8809,2.9039,2.7286,2.6663,2.7697,2.4456,2.2795,2.312,2.2592,2.2375,2.2469,2.1724,2.0996,2.0236,1.9144,1.8185,1.7329,1.6465,1.5647,1.4733,1.4599,1.5061,1.6175,1.7072,1.7943,1.8882,1.9512,1.9865,2.0044,2.0044,2.0325,2.0566,5.1022,5.0875,5.0501,4.9294,4.9104,4.8918,4.8169,4.7854,4.7387,4.6704,4.5959,4.5165,4.4406,4.4605,4.4598,4.4082,4.4167,4.3812,4.284,4.1994,4.0982,3.9664,3.958,3.9411,3.9106,3.8547,3.7757,3.6706,3.6041,3.5431,3.4939,3.4365,3.3952,3.3807,3.3807,3.3807,3.3807,3.3807,3.4154,3.4713,3.4713,3.5016,3.5493,3.5493,3.5493,3.5493,3.5493,3.5493,3.5493,3.5493,3.5493,3.5493,3.5493,3.5493,3.5507,3.5545,3.5584,3.5661,3.5776,3.5786,3.5728,3.5546,3.4805,3.3963,3.3444,3.2594,3.1507,3.0278,2.9261,2.8571,2.8199,2.7535,2.6895,2.6647,2.7115,2.744,2.7295,2.8437,2.9042,2.8313,2.9091,2.8884,2.6989,2.7363,2.7414,2.6591,2.5981,2.5185,2.4086,2.2477,2.1739,2.2116,2.0541,1.9826,2.0232,2.0111,1.9844,1.9436,1.8483,1.7594,1.6892,1.6109,1.5362,1.471,1.4416,1.4852,1.589,1.6164,1.6714,1.7447,1.8267,1.8769,1.9014,1.948,2.0019,2.0566,4.9848,4.9591,4.9334,4.8453,4.8421,4.8439,4.8351,4.79,4.7275,4.6459,4.5729,4.4915,4.4092,4.4112,4.4306,4.4597,4.4378,4.3687,4.2416,4.1522,4.0504,3.9336,3.9088,3.8749,3.8201,3.8466,3.8117,3.7033,3.6134,3.524,3.4388,3.4027,3.3823,3.3807,3.3807,3.3807,3.3807,3.3823,3.4165,3.4713,3.4753,3.5051,3.5507,3.5493,3.5507,3.5507,3.5493,3.5493,3.5493,3.5493,3.5493,3.5493,3.5493,3.5493,3.5493,3.5493,3.5493,3.5545,3.5661,3.5694,3.5693,3.5681,3.4871,3.3968,3.363,3.2935,3.2095,3.1161,3.0285,2.9402,2.8444,2.764,2.6822,2.5915,2.6816,2.7488,2.723,2.7304,2.7508,2.7686,2.7328,2.68,2.6089,2.6824,2.6173,2.3601,2.468,2.3653,1.9502,2.0636,2.1449,2.1464,1.915,1.7973,1.8316,1.8499,1.8588,1.8588,1.7811,1.7257,1.6963,1.5667,1.4956,1.4668,1.4203,1.4456,1.5205,1.4846,1.5004,1.5713,1.6495,1.7103,1.7703,1.8638,1.9411,1.9982,4.9627,4.9591,4.9334,4.8453,4.8339,4.8178,4.7651,4.7479,4.7187,4.6495,4.5693,4.4915,4.4137,4.4507,4.434,4.3162,4.4013,4.434,4.3647,4.2363,4.1349,4.0607,3.9569,3.9146,3.9411,3.908,3.8223,3.6784,3.6597,3.5947,3.4869,3.4363,3.4018,3.3807,3.3807,3.3807,3.3834,3.4043,3.4375,3.4733,3.4944,3.5261,3.5584,3.5545,3.5545,3.5584,3.5545,3.5493,3.5493,3.5493,3.5493,3.5493,3.5493,3.5493,3.5493,3.5493,3.5493,3.5545,3.5661,3.5845,3.5953,3.5756,3.4812,3.3773,3.3275,3.2225,3.1002,2.9916,2.9598,2.8786,2.6672,2.6118,2.5915,2.5438,2.6035,2.6626,2.6956,2.7604,2.7578,2.6574,2.6872,2.6678,2.5421,2.4599,2.3591,2.2411,2.0889,2.0215,2.046,1.8832,1.8297,1.9297,1.8559,1.8333,1.8676,1.8162,1.7887,1.7887,1.664,1.6075,1.5927,1.4447,1.3632,1.3381,1.1947,1.1367,1.151,1.2324,1.2745,1.3016,1.5043,1.5882,1.6059,1.6929,1.7507,1.7768,4.966,4.9881,4.9918,4.9098,4.8744,4.8531,4.8273,4.7636,4.7139,4.6819,4.573,4.4827,4.4466,4.4302,4.3907,4.3178,4.3722,4.3942,4.3725,4.2127,4.075,3.9753,3.8504,3.7969,3.8356,3.8582,3.8031,3.6707,3.6845,3.6194,3.482,3.4607,3.4398,3.4284,3.4284,3.4284,3.4284,3.442,3.4634,3.4926,3.5075,3.5337,3.5597,3.5626,3.562,3.5661,3.5584,3.5545,3.5545,3.5507,3.5545,3.5545,3.5545,3.5545,3.5545,3.5545,3.5584,3.5701,3.6129,3.598,3.5826,3.6194,3.5153,3.3842,3.3256,3.1896,3.0703,3.0608,2.9248,2.7879,2.7434,2.6225,2.5563,2.6157,2.5769,2.5812,2.7114,2.6593,2.5993,2.5688,2.58,2.5503,2.4625,2.3689,2.2651,2.1427,1.9264,1.8124,1.8477,1.7052,1.64,1.7017,1.6922,1.6934,1.6995,1.6779,1.6669,1.6669,1.6103,1.5439,1.4746,1.404,1.3259,1.2476,1.1456,1.1071,1.1038,1.1207,1.1272,1.1321,1.2858,1.3845,1.4593,1.5507,1.6493,1.7236,4.9679,5.0002,5.0229,4.9617,4.9084,4.8754,4.8911,4.7789,4.6985,4.7095,4.57,4.4709,4.4709,4.3975,4.3497,4.3497,4.3497,4.3424,4.3204,4.1459,4.0058,3.9215,3.7861,3.7213,3.7358,3.815,3.8034,3.6968,3.7303,3.6625,3.4977,3.5038,3.4942,3.4727,3.4727,3.471,3.4751,3.4788,3.4945,3.5169,3.5259,3.5446,3.5663,3.5685,3.5732,3.5725,3.5647,3.5612,3.5622,3.5584,3.5584,3.5636,3.5637,3.5623,3.5611,3.5611,3.5759,3.5988,3.6484,3.6289,3.6017,3.6339,3.5261,3.3764,3.2631,3.1155,3.0003,2.9974,2.802,2.6447,2.6752,2.5251,2.4296,2.5432,2.451,2.4359,2.626,2.5258,2.4416,2.4663,2.4641,2.4325,2.3469,2.2659,2.1563,2.0078,1.8081,1.6723,1.6386,1.5824,1.5498,1.5498,1.5712,1.5725,1.5498,1.5712,1.5832,1.5832,1.5832,1.514,1.3872,1.3584,1.2684,1.1366,1.0707,1.0426,1.0351,0.9986,0.9656,0.9592,1.0564,1.1721,1.2972,1.3939,1.5286,1.6437,4.9453,4.9579,4.9579,4.9504,4.8833,4.8423,4.8833,4.7508,4.6635,4.7022,4.57,4.4709,4.4709,4.3975,4.3497,4.3497,4.3497,4.3167,4.2433,4.0705,3.9944,4.0536,3.9,3.8102,3.7825,3.8656,3.8643,3.7813,3.8369,3.7679,3.5811,3.6083,3.5666,3.478,3.478,3.483,3.4922,3.5148,3.5244,3.5304,3.5576,3.5762,3.5855,3.5763,3.5763,3.5852,3.5722,3.5679,3.5699,3.5699,3.5699,3.5676,3.5676,3.5702,3.5702,3.5675,3.6048,3.6437,3.6434,3.6951,3.7197,3.5758,3.4644,3.3256,3.0764,2.9434,2.802,2.559,2.4954,2.4053,2.1523,2.0937,2.09,2.1232,2.1107,2.1572,2.3276,2.3816,2.3851,2.3332,2.3717,2.3406,2.1655,2.0459,1.9206,1.801,1.6626,1.5873,1.5859,1.5778,1.5792,1.5792,1.5818,1.5818,1.5792,1.5818,1.5832,1.5832,1.5832,1.514,1.3872,1.2619,1.125,0.9914,0.8509,0.7795,0.7647,0.7471,0.7305,0.7474,0.8599,0.9808,1.0898,1.1778,1.3041,1.4294,5.0159,5.023,5.023,5.023,4.9338,4.8643,4.8813,4.7231,4.6195,4.6598,4.5268,4.4391,4.4671,4.3975,4.3497,4.3497,4.3497,4.3167,4.2359,4.0633,3.8989,3.7603,3.7597,3.7567,3.747,3.8728,3.8976,3.815,3.8804,3.8197,3.6392,3.6588,3.6173,3.5293,3.5364,3.5367,3.5403,3.5481,3.5514,3.5492,3.5638,3.5699,3.5714,3.5703,3.5778,3.5898,3.5732,3.574,3.5805,3.5724,3.6107,3.6548,3.5968,3.6533,3.7377,3.7312,3.7383,3.73,3.6729,3.6485,3.6326,3.6237,3.4792,3.2916,3.1037,2.8794,2.6382,2.3885,2.1714,1.9826,1.8629,1.7668,1.7616,1.9213,1.7965,1.7778,2.0762,2.0913,2.0647,2.0449,2.1509,2.1738,2.0279,1.9131,1.8226,1.7684,1.648,1.5832,1.5832,1.5832,1.5832,1.5832,1.5832,1.5832,1.5832,1.5832,1.5832,1.5832,1.5045,1.398,1.2619,1.1268,0.996,0.8623,0.7987,0.7699,0.7624,0.738,0.7339,0.7414,0.7862,0.8706,0.9846,1.1056,1.2175,1.2979,5.0624,5.0702,5.0587,5.0317,4.935,4.8525,4.8433,4.6771,4.573,4.6158,4.5036,4.4311,4.4633,4.4188,4.3855,4.3855,4.3855,4.3347,4.2184,4.0059,3.8028,3.6156,3.6786,3.7361,3.7787,3.8979,3.9362,3.8861,3.9406,3.8931,3.7507,3.7339,3.6832,3.6029,3.5807,3.5715,3.5742,3.5732,3.5663,3.565,3.5662,3.5689,3.5641,3.5679,3.5755,3.5814,3.5778,3.5779,3.5888,3.6053,3.6615,3.7131,3.6774,3.7381,3.8171,3.8011,3.7853,3.7529,3.6576,3.5668,3.5118,3.5588,3.4153,3.2124,3.0295,2.7368,2.4263,2.164,1.86,1.6178,1.5617,1.4676,1.4579,1.6314,1.4824,1.4723,1.8144,1.8159,1.8034,1.8921,2.0052,2.0296,1.9039,1.8241,1.7498,1.7138,1.6292,1.5832,1.5832,1.5832,1.5832,1.5832,1.5832,1.5832,1.5832,1.5832,1.5629,1.514,1.4364,1.3006,1.1268,1.0386,0.9312,0.8031,0.7875,0.7814,0.7794,0.7543,0.7502,0.759,0.7482,0.8436,0.9894,1.0948,1.1801,1.254,5.0624,5.0664,5.0394,4.9548,4.8663,4.7952,4.7579,4.6145,4.527,4.5757,4.5089,4.4624,4.4599,4.4599,4.4599,4.4599,4.4561,4.3713,4.1707,3.8826,3.7173,3.721,3.721,3.7787,3.9053,3.9414,3.9775,4.012,4.0372,4.0085,3.9277,3.8454,3.7692,3.695,3.6083,3.5777,3.588,3.5745,3.5684,3.5702,3.5674,3.5699,3.5699,3.5699,3.5699,3.5714,3.5864,3.5835,3.5842,3.6779,3.7165,3.7319,3.8066,3.8075,3.7737,3.7414,3.7272,3.6932,3.5788,3.4708,3.3794,3.3419,3.2458,3.0946,2.7957,2.4957,2.1708,1.8208,1.5551,1.3419,1.2124,1.1853,1.1853,1.1853,1.1853,1.2802,1.5253,1.5631,1.6664,1.9115,1.9497,1.9039,1.7777,1.7684,1.7138,1.5927,1.5832,1.5832,1.5832,1.5832,1.5832,1.5832,1.5832,1.5832,1.5832,1.5832,1.514,1.3872,1.3872,1.2522,1.0002,1.0002,0.9213,0.8031,0.7882,0.7814,0.7801,0.7658,0.7604,0.7604,0.7604,0.908,1.1283,1.1283,1.2016,1.3018,4.8837,4.8894,4.8779,4.8548,4.7855,4.728,4.7165,4.6283,4.5611,4.5475,4.5245,4.4985,4.4638,4.4599,4.4599,4.4599,4.4033,4.252,3.9812,3.8115,3.7288,3.7469,3.7469,3.7859,3.8664,3.9577,4.0122,4.0328,4.0572,4.0008,3.8577,3.8385,3.75,3.6085,3.5905,3.5727,3.5475,3.5463,3.5293,3.5075,3.5078,3.504,3.4982,3.4982,3.5136,3.5328,3.5405,3.5909,3.6617,3.6646,3.7509,3.8575,3.8848,3.8377,3.7772,3.7894,3.7462,3.6706,3.5395,3.4394,3.353,3.2782,3.2167,3.1284,2.9618,2.6453,2.3002,2.0254,1.6558,1.3177,1.0965,1.0583,1.034,0.9477,0.94,0.9987,1.1647,1.3389,1.4787,1.5481,1.7174,1.7777,1.648,1.6386,1.6197,1.5832,1.5832,1.5832,1.5832,1.5832,1.5832,1.5832,1.5832,1.5832,1.5832,1.5832,1.514,1.3872,1.2909,1.1648,1.0002,0.9015,0.8336,0.8038,0.7991,0.797,0.7963,0.7807,0.7814,0.7896,0.7787,0.8218,0.9084,1.102,1.1734,1.1875,4.8086,4.8086,4.8009,4.7702,4.7278,4.6855,4.6586,4.6082,4.5722,4.5568,4.549,4.534,4.5094,4.5026,4.4988,4.4988,4.3479,4.1622,3.9407,3.7969,3.7432,3.8039,3.8132,3.8382,3.8914,3.9665,4.014,4.0294,4.0432,3.9894,3.8695,3.8423,3.7546,3.6172,3.5792,3.5484,3.5248,3.5113,3.4936,3.4733,3.4547,3.4561,3.4655,3.4475,3.4661,3.5037,3.5376,3.5837,3.6265,3.6496,3.734,3.834,3.8554,3.7995,3.735,3.7685,3.7097,3.622,3.5865,3.4971,3.4032,3.3659,3.3227,3.258,3.1366,2.7703,2.3945,2.1541,1.6795,1.2425,1.0386,1.0053,0.9622,0.8376,0.8235,0.8751,0.9971,1.142,1.2541,1.3017,1.4924,1.5886,1.514,1.5534,1.5832,1.5832,1.5832,1.5832,1.5832,1.5832,1.5832,1.5832,1.5832,1.5832,1.5832,1.5832,1.4854,1.3102,1.2328,1.0974,0.9213,0.8336,0.8038,0.8038,0.8038,0.8038,0.8031,0.7936,0.7957,0.8031,0.8517,0.896,0.9647,1.1889,1.2533,1.2328,4.7894,4.7837,4.7587,4.6857,4.676,4.6527,4.5863,4.5675,4.5638,4.585,4.5702,4.5648,4.578,4.5697,4.5586,4.5453,4.2872,4.0836,3.9806,3.8148,3.761,3.8615,3.8899,3.9188,3.9533,3.9762,3.9969,4.0103,4.0103,3.9837,3.925,3.8433,3.7613,3.6784,3.5649,3.5116,3.5097,3.4771,3.4593,3.4529,3.399,3.4013,3.4389,3.3905,3.4013,3.4588,3.5447,3.5454,3.5235,3.6273,3.6683,3.6898,3.74,3.7115,3.6562,3.6953,3.6347,3.58,3.6955,3.6265,3.5305,3.5643,3.5579,3.4901,3.3241,2.8905,2.4581,2.2493,1.674,1.1658,1.0288,1.0129,0.9694,0.8279,0.818,0.8621,0.9657,0.9929,1.0404,1.156,1.3006,1.3872,1.3872,1.5045,1.5832,1.5832,1.5832,1.5832,1.5832,1.5832,1.5832,1.5832,1.5832,1.5832,1.5832,1.5832,1.4472,1.195,1.195,1.0485,0.8038,0.8038,0.8038,0.8038,0.8038,0.8038,0.8038,0.8038,0.8038,0.8336,0.9509,1.0779,1.2047,1.3392,1.3776,1.3488,4.6124,4.5937,4.5698,4.5507,4.5573,4.558,4.5424,4.5447,4.5531,4.5792,4.559,4.5506,4.5609,4.5718,4.534,4.4345,4.1653,3.9301,3.7683,3.7354,3.7506,3.8209,3.883,3.9089,3.8988,3.9979,4.0423,4.0244,4.0283,3.9833,3.9029,3.8044,3.7075,3.6159,3.5279,3.4711,3.4375,3.3981,3.3739,3.3413,3.2509,3.2181,3.2214,3.1638,3.1906,3.2709,3.3466,3.4202,3.4888,3.561,3.5236,3.4699,3.5606,3.5805,3.5711,3.5873,3.6219,3.6582,3.6997,3.741,3.766,3.7623,3.8652,3.8877,3.569,3.0548,2.6034,2.4566,1.8506,1.2716,1.0386,1.0027,0.9598,0.8404,0.8248,0.8357,0.8628,0.9516,1.0254,1.0404,1.2522,1.3872,1.3872,1.5045,1.5832,1.5832,1.5832,1.5832,1.5832,1.5832,1.5832,1.5832,1.5832,1.5832,1.5832,1.5832,1.4472,1.195,1.195,1.0485,0.8038,0.8038,0.8038,0.8038,0.8038,0.8038,0.8038,0.8038,0.8627,0.9608,0.9903,1.0779,1.2047,1.3392,1.3199,1.2134,4.54,4.5001,4.4635,4.4461,4.4511,4.4614,4.4822,4.5,4.5138,4.5224,4.5316,4.5287,4.5156,4.4986,4.4077,4.2023,4.0047,3.8222,3.6776,3.7009,3.747,3.8041,3.9027,3.94,3.9198,3.9502,3.93,3.8522,3.8212,3.7881,3.747,3.6922,3.6285,3.5565,3.5379,3.4784,3.3919,3.3954,3.3382,3.2393,3.1598,3.1018,3.0615,3.0385,3.0475,3.0847,3.1888,3.253,3.295,3.3743,3.3388,3.2728,3.363,3.4007,3.4268,3.5357,3.5599,3.6047,3.801,3.8757,3.9167,3.9932,4.0817,4.0898,3.845,3.2835,2.8312,2.9008,2.1466,1.387,1.0815,1.0293,0.9862,0.8376,0.8228,0.8248,0.8187,0.8758,0.9114,0.9031,1.1356,1.3392,1.4663,1.5439,1.5832,1.5832,1.5832,1.5832,1.5832,1.5832,1.5832,1.5832,1.5832,1.5832,1.5832,1.5235,1.3884,1.195,1.195,1.0485,0.8038,0.8038,0.8038,0.8038,0.8038,0.8038,0.8038,0.8038,0.8825,1.0092,1.0681,1.1648,1.2909,1.368,1.2716,1.0877,4.518,4.4573,4.397,4.3503,4.3509,4.3731,4.4015,4.4336,4.4534,4.4528,4.4774,4.4878,4.4603,4.3808,4.2303,3.9697,3.8353,3.7283,3.6468,3.698,3.754,3.8198,3.9364,3.9805,3.949,3.8582,3.7636,3.6654,3.5925,3.563,3.5685,3.551,3.5335,3.5083,3.5381,3.4818,3.3619,3.3908,3.2966,3.1227,3.0482,2.9695,2.8894,2.8649,2.8449,2.8437,2.9766,3.031,3.0567,3.146,3.1498,3.1273,3.1916,3.2338,3.302,3.51,3.5217,3.5512,3.9382,4.0294,4.0488,4.2101,4.2416,4.2056,4.0984,3.5129,3.0619,3.2763,2.4126,1.4812,1.0538,0.9971,0.9726,0.8185,0.816,0.8194,0.7985,0.7952,0.8038,0.8336,1.0681,1.3199,1.5534,1.5832,1.5832,1.5832,1.5832,1.5832,1.5832,1.5832,1.5832,1.5832,1.5832,1.5737,1.5439,1.4459,1.3102,1.156,1.156,1.0288,0.8038,0.8038,0.8038,0.8038,0.8038,0.8038,0.8038,0.8038,0.8825,1.01,1.1365,1.2716,1.3872,1.3872,1.2522,1.0583,4.518,4.4372,4.3435,4.2414,4.281,4.3133,4.2799,4.3117,4.3634,4.4169,4.3919,4.3855,4.4382,4.2344,4.0409,3.9032,3.6977,3.5936,3.6388,3.7122,3.7867,3.8674,3.9776,3.9895,3.8937,3.7383,3.6673,3.6751,3.5914,3.535,3.5078,3.4477,3.4404,3.4885,3.4251,3.3865,3.3656,3.2754,3.1508,2.9958,2.8032,2.6808,2.5966,2.4147,2.3791,2.433,2.5107,2.6916,2.8932,2.9336,2.9907,3.054,3.1215,3.1982,3.302,3.51,3.5937,3.6979,4.0637,4.1957,4.2499,4.3422,4.3666,4.3348,4.2297,3.6788,3.1729,3.1063,2.3819,1.5292,0.7496,0.7359,0.8285,0.8052,0.8058,0.8065,0.8045,0.8038,0.8428,0.9608,1.2037,1.4172,1.5642,1.5832,1.5832,1.5832,1.5832,1.5832,1.5832,1.5832,1.5832,1.5832,1.5832,1.5248,1.4172,1.3968,1.2716,1.0288,1.0288,0.9509,0.8038,0.8038,0.8038,0.8038,0.8038,0.8038,0.8038,0.8038,0.8825,1.01,1.1365,1.2716,1.3872,1.3872,1.368,1.3006,4.4896,4.3767,4.2704,4.202,4.2332,4.2691,4.2679,4.3046,4.3343,4.3399,4.3396,4.3284,4.3019,4.0909,3.8942,3.7577,3.6205,3.5756,3.6556,3.7504,3.8389,3.9149,3.9976,4.0075,3.9349,3.7353,3.5845,3.4889,3.3805,3.3139,3.2931,3.3512,3.3809,3.3883,3.3339,3.2418,3.1135,3.0116,2.8576,2.6697,2.5744,2.4334,2.2799,2.217,2.162,2.1428,2.3144,2.43,2.5301,2.6878,2.7762,2.8427,2.9633,3.125,3.2898,3.3824,3.5227,3.7138,4.0394,4.1907,4.2804,4.3762,4.4151,4.4125,4.3401,4.0041,3.5778,3.1383,2.0818,1.1542,0.8788,0.8158,0.7999,0.8167,0.8174,0.8174,0.818,0.8765,1.0004,1.195,1.3199,1.4364,1.5629,1.5832,1.5832,1.5832,1.5832,1.5534,1.4758,1.4758,1.4364,1.3692,1.3596,1.3307,1.2813,1.2037,1.1161,1.0002,0.9213,0.8528,0.8038,0.8038,0.8038,0.8038,0.8038,0.8038,0.8038,0.8038,0.8825,1.01,1.0583,1.1648,1.2909,1.3584,1.3006,1.1551]},{"header":{"parameterUnit":"m.s-1","parameterCategory":1,"la1":30.6,"la2":28.766,"lo1":-90.7593,"lo2":-88.6598,"dy":0.0162,"dx":0.0183,"nx":116,"ny":114,"refTime":"2023-08-15T06:00:00:Z","depth":0,"parameterNumber":3,"parameterNumberName":"V-component_of_WINDS"},"data":[0.0,0.0,0.0,0.0,0.0,0.0,0.0,0.0,0.0,0.0,0.0,0.0,0.0,0.0,0.0,0.0,0.0,0.0,0.0,0.0,0.0,0.0,0.0,0.0,0.0,0.0,0.0,0.0,0.0,0.0,0.0,0.0,0.0,0.0,0.0,0.0,0.0,0.0,0.0,0.0,0.0,0.0,0.0,0.0,0.0,0.0,0.0,0.0,0.0,0.0,0.0,0.0,0.0,0.0,0.0,0.0,0.0,0.0,0.0,0.0,0.0,0.0,0.0,0.0,0.0,0.0,0.0,0.0,0.0,0.0,0.0,0.0,0.0,0.0,0.0,0.0,0.0,0.0,0.0,0.0,0.0,0.0,0.0,0.0,0.0,0.0,0.0,0.0,0.0,0.0,0.0,0.0,0.0,0.0,0.0,0.0,0.0,0.0,0.0,0.0,0.0,0.0,0.0,0.0,0.0,0.0,0.0,0.0,0.0,0.0,0.0,0.0,0.0,0.0,0.0,0.0,0.0,0.0,0.0,0.0,0.0,0.0,0.0,0.0,0.0,0.0,0.0,0.0,0.0,0.0,0.0,0.0,0.0,0.0,0.0,0.0,0.0,0.0,0.0,0.0,0.0,0.0,0.0,0.0,0.0,0.0,0.0,0.0,0.0,0.0,0.0,0.0,0.0,0.0,0.0,0.0,0.0,0.0,0.0,0.0,0.0,0.0,0.0,0.0,0.0,0.0,0.0,0.0,0.0,0.0,0.0,0.0,0.0,0.0,0.0,0.0,0.0,0.0,0.0,0.0,0.0,0.0,0.0,0.0,0.0,0.0,0.0,0.0,0.0,0.0,0.0,0.0,0.0,0.0,0.0,0.0,0.0,0.0,0.0,0.0,0.0,0.0,0.0,0.0,0.0,0.0,0.0,0.0,0.0,0.0,0.0,0.0,0.0,0.0,0.0,0.0,0.0,0.0,0.0,0.0,0.0,0.0,0.0,0.0,0.0,0.0,0.0,0.0,0.0,0.0,0.0,0.0,0.0,0.0,0.0,0.0,0.0,0.0,0.0,0.0,0.0,0.0,0.0,0.0,0.0,0.0,0.0,0.0,0.0,0.0,0.0,0.0,0.0,0.0,0.0,0.0,0.0,0.0,0.0,0.0,0.0,0.0,0.0,0.0,0.0,0.0,0.0,0.0,0.0,0.0,0.0,0.0,0.0,0.0,0.0,0.0,0.0,0.0,0.0,0.0,0.0,0.0,0.0,0.0,0.0,0.0,0.0,0.0,0.0,0.0,0.0,0.0,0.0,0.0,0.0,0.0,0.0,0.0,0.0,0.0,0.0,0.0,0.0,0.0,0.0,0.0,0.0,0.0,0.0,0.0,0.0,0.0,0.0,0.0,0.0,0.0,0.0,0.0,0.0,0.0,0.0,0.0,0.0,0.0,0.0,0.0,0.0,0.0,0.0,0.0,0.0,0.0,0.0,0.0,0.0,0.0,0.0,0.0,0.0,0.0,0.0,0.0,0.0,0.0,0.0,0.0,0.0,0.0,0.0,0.0,0.0,0.0,0.0,0.0,0.0,0.0,0.0,0.0,0.0,0.0,0.0,0.0,0.0,0.0,0.0,0.0,0.0,0.0,0.0,0.0,0.0,0.0,0.0,0.0,0.0,0.0,0.0,0.0,0.0,0.0,0.0,0.0,0.0,0.0,0.0,0.0,0.0,0.0,0.0,0.0,0.0,0.0,0.0,0.0,0.0,0.0,0.0,0.0,0.0,0.0,0.0,0.0,0.0,0.0,0.0,0.0,0.0,0.0,0.0,0.0,0.0,0.0,0.0,0.0,0.0,0.0,0.0,0.0,0.0,0.0,0.0,0.0,0.0,0.0,0.0,0.0,0.0,0.0,0.0,0.0,0.0,0.0,0.0,0.0,0.0,0.0,0.0,0.0,0.0,0.0,0.0,0.0,0.0,0.0,0.0,0.0,0.0,0.0,0.0,0.0,0.0,0.0,0.0,0.0,0.0,0.0,0.0,0.0,0.0,0.0,0.0,0.0,0.0,0.0,0.0,0.0,0.0,0.0,0.0,0.0,0.0,0.0,0.0,0.0,0.0,0.0,0.0,0.0,0.0,0.0,0.0,0.0,0.0,0.0,0.0,0.0,0.0,0.0,0.0,0.0,0.0,0.0,0.0,0.0,0.0,0.0,0.0,0.0,0.0,0.0,0.0,0.0,0.0,0.0,0.0,0.0,0.0,0.0,0.0,0.0,0.0,0.0,0.0,0.0,0.0,0.0,0.0,0.0,0.0,0.0,0.0,0.0,0.0,0.0,0.0,0.0,0.0,0.0,0.0,0.0,0.0,0.0,0.0,0.0,0.0,0.0,0.0,0.0,0.0,0.0,0.0,0.0,0.0,0.0,0.0,0.0,0.0,0.0,0.0,0.0,0.0,0.0,0.0,0.0,0.0,0.0,0.0,0.0,0.0,0.0,0.0,0.0,0.0,0.0,0.0,0.0,0.0,0.0,0.0,0.0,0.0,0.0,0.0,0.0,0.0,0.0,0.0,0.0,0.0,0.0,0.0,0.0,0.0,0.0,0.0,0.0,0.0,0.0,0.0,0.0,0.0,0.0,0.0,0.0,0.0,0.0,0.0,0.0,0.0,0.0,0.0,0.0,0.0,0.0,0.0,0.0,0.0,0.0,0.0,0.0,0.0,0.0,0.0,0.0,0.0,0.0,0.0,0.0,0.0,0.0,0.0,0.0,0.0,0.0,0.0,0.0,0.0,0.0,0.0,0.0,0.0,0.0,0.0,0.0,0.0,0.0,0.0,0.0,0.0,0.0,0.0,0.0,0.0,0.0,0.0,0.0,0.0,0.0,0.0,0.0,0.0,0.0,0.0,0.0,0.0,0.0,0.0,0.0,0.0,0.0,0.0,0.0,0.0,0.0,0.0,0.0,0.0,0.0,0.0,0.0,0.0,0.0,0.0,0.0,0.0,0.0,0.0,0.0,0.0,0.0,0.0,0.0,0.0,0.0,0.0,0.0,0.0,0.0,0.0,0.0,0.0,0.0,0.0,0.0,0.0,0.0,0.0,0.0,0.0,0.0,0.0,0.0,0.0,0.0,0.0,0.0,0.0,0.0,0.0,0.0,0.0,0.0,0.0,0.0,0.0,0.0,0.0,0.0,0.0,0.0,0.0,0.0,0.0,0.0,0.0,0.0,0.0,0.0,0.0,0.0,0.0,0.0,0.0,0.0,0.0,0.0,0.0,0.0,0.0,0.0,0.0,0.0,0.0,0.0,0.0,0.0,0.0,0.0,0.0,0.0,0.0,0.0,0.0,0.0,0.0,0.0,0.0,0.0,0.0,0.0,0.0,0.0,0.0,0.0,0.0,0.0,0.0,0.0,0.0,0.0,0.0,0.0,0.0,0.0,0.0,0.0,0.0,0.0,0.0,0.0,0.0,0.0,0.0,0.0,0.0,0.0,0.0,0.0,0.0,0.0,0.0,0.0,0.0,0.0,0.0,0.0,0.0,0.0,0.0,0.0,0.0,0.0,0.0,0.0,0.0,0.0,0.0,0.0,0.0,0.0,0.0,0.0,0.0,0.0,0.0,0.0,0.0,0.0,0.0,0.0,0.0,0.0,0.0,0.0,0.0,0.0,0.0,0.0,0.0,0.0,0.0,0.0,0.0,0.0,0.0,0.0,0.0,0.0,0.0,0.0,0.0,0.0,0.0,0.0,0.0,0.0,0.0,0.0,0.0,0.0,0.0,0.0,0.0,0.0,0.0,0.0,0.0,0.0,0.0,0.0,0.0,0.0,0.0,0.0,0.0,0.0,0.0,0.0,0.0,0.0,0.0,0.0,0.0,0.0,0.0,0.0,0.0,0.0,0.0,0.0,0.0,0.0,0.0,0.0,0.0,0.0,0.0,0.0,0.0,0.0,0.0,0.0,0.0,0.0,0.0,0.0,0.0,0.0,0.0,0.0,0.0,0.0,0.0,0.0,0.0,0.0,0.0,0.0,0.0,0.0,0.0,0.0,0.0,0.0,0.0,0.0,0.0,0.0,0.0,0.0,0.0,0.0,0.0,0.0,0.0,0.0,0.0,0.0,0.0,0.0,0.0,0.0,0.0,0.0,0.0,0.0,0.0,0.0,0.0,0.0,0.0,0.0,0.0,0.0,0.0,0.0,0.0,0.0,0.0,0.0,0.0,0.0,0.0,0.0,0.0,0.0,0.0,0.0,0.0,0.0,0.0,0.0,0.0,0.0,0.0,0.0,0.0,0.0,0.0,0.0,0.0,0.0,0.0,0.0,0.0,0.0,0.0,0.0,0.0,0.0,0.0,0.0,0.0,0.0,0.0,0.0,0.0,0.0,0.0,0.0,0.0,0.0,0.0,0.0,0.0,0.0,0.0,0.0,0.0,0.0,0.0,0.0,0.0,0.0,0.0,0.0,0.0,0.0,0.0,0.0,0.0,0.0,0.0,0.0,0.0,0.0,0.0,0.0,0.0,0.0,0.0,0.0,0.0,0.0,0.0,0.0,0.0,0.0,0.0,0.0,0.0,0.0,0.0,0.0,0.0,0.0,0.0,0.0,0.0,0.0,0.0,0.0,0.0,0.0,0.0,0.0,0.0,0.0,0.0,0.0,0.0,0.0,0.0,0.0,0.0,0.0,0.0,0.0,0.0,0.0,0.0,0.0,0.0,0.0,0.0,0.0,0.0,0.0,0.0,0.0,0.0,0.0,0.0,0.0,0.0,0.0,0.0,0.0,0.0,0.0,0.0,0.0,0.0,0.0,0.0,0.0,0.0,0.0,0.0,0.0,0.0,0.0,0.0,0.0,0.0,0.0,0.0,0.0,0.0,0.0,0.0,0.0,0.0,0.0,0.0,0.0,0.0,0.0,0.0,0.0,0.0,0.0,0.0,0.0,0.0,0.0,0.0,0.0,0.0,0.0,0.0,0.0,0.0,0.0,0.0,0.0,0.0,0.0,0.0,0.0,0.0,0.0,0.0,0.0,0.0,0.0,0.0,0.0,0.0,0.0,0.0,0.0,0.0,0.0,0.0,0.0,0.0,0.0,0.0,0.0,0.0,0.0,0.0,0.0,0.0,0.0,0.0,0.0,0.0,0.0,0.0,0.0,0.0,0.0,0.0,0.0,0.0,0.0,0.0,0.0,0.0,0.0,0.0,0.0,0.0,0.0,0.0,0.0,0.0,0.0,0.0,0.0,0.0,0.0,0.0,0.0,0.0,0.0,0.0,0.0,0.0,0.0,0.0,0.0,0.0,0.0,0.0,0.0,0.0,0.0,0.0,0.0,0.0,0.0,0.0,0.0,0.0,0.0,0.0,0.0,0.0,0.0,0.0,0.0,0.0,0.0,0.0,0.0,0.0,0.0,0.0,0.0,0.0,0.0,0.0,0.0,0.0,0.0,0.0,0.0,0.0,0.0,0.0,0.0,0.0,0.0,0.0,0.0,0.0,0.0,0.0,0.0,0.0,0.0,0.0,0.0,0.0,0.0,0.0,0.0,0.0,0.0,0.0,0.0,0.0,0.0,0.0,0.0,0.0,0.0,0.0,0.0,0.0,0.0,0.0,0.0,0.0,0.0,0.0,0.0,0.0,0.0,0.0,0.0,0.0,0.0,0.0,0.0,0.0,0.0,0.0,0.0,0.0,0.0,0.0,0.0,0.0,0.0,0.0,0.0,0.0,0.0,0.0,0.0,0.0,0.0,0.0,0.0,0.0,0.0,0.0,0.0,0.0,0.0,0.0,0.0,0.0,0.0,0.0,0.0,0.0,0.0,0.0,0.0,0.0,0.0,0.0,0.0,0.0,0.0,0.0,0.0,0.0,0.0,0.0,0.0,0.0,0.0,0.0,0.0,0.0,0.0,0.0,0.0,0.0,0.0,0.0,0.0,0.0,0.0,0.0,0.0,0.0,0.0,0.0,0.0,0.0,0.0,0.0,0.0,0.0,0.0,0.0,0.0,0.0,0.0,0.0,0.0,0.0,0.0,0.0,0.0,0.0,0.0,0.0,0.0,0.0,0.0,0.0,0.0,0.0,0.0,0.0,0.0,0.0,0.0,0.0,0.0,0.0,0.0,1.1119,0.0,0.0,0.0,0.0,0.0,0.0,0.0,0.0,0.0,0.0,0.0,0.0,0.0,0.0,0.0,0.0,0.0,0.0,0.0,0.0,0.0,0.0,0.0,0.0,0.0,0.0,0.0,0.0,0.0,0.0,0.0,0.0,0.0,0.0,0.0,0.0,0.0,0.0,0.0,0.0,0.0,0.0,0.0,0.0,0.0,0.0,0.0,0.0,0.0,0.0,0.0,0.0,0.0,0.0,0.0,0.0,0.0,0.0,0.0,0.0,0.0,0.0,0.0,0.0,0.0,0.0,0.0,0.0,0.0,0.0,0.0,0.0,0.0,0.0,0.0,0.0,0.0,0.0,0.0,0.0,0.0,0.0,0.0,0.0,0.0,0.0,0.0,0.0,0.0,0.0,0.0,0.0,0.0,0.0,0.0,0.0,0.0,0.0,0.0,0.0,0.0,0.0,0.0,0.0,0.0,0.0,0.0,0.0,0.0,0.0,0.0,0.0,0.0,0.0,0.0,0.0,1.2041,0.0,0.0,0.0,0.0,0.0,0.0,0.0,0.0,0.0,0.0,0.0,0.0,0.0,0.0,0.0,0.0,0.0,0.0,0.0,0.0,0.0,0.0,0.0,0.0,0.0,0.0,0.0,0.0,0.0,0.0,0.0,0.0,0.0,0.0,0.0,0.0,0.0,0.0,0.0,0.0,0.0,0.0,0.0,0.0,0.0,0.0,0.0,0.0,0.0,0.0,0.0,0.0,0.0,0.0,0.0,0.0,0.0,0.0,0.0,0.0,0.0,0.0,0.0,0.0,0.0,0.0,0.0,0.0,0.0,0.0,0.0,0.0,0.0,0.0,0.0,0.0,0.0,0.0,0.0,0.0,0.0,0.0,0.0,0.0,0.0,0.0,0.0,0.0,0.0,0.0,0.0,0.0,0.0,0.0,0.0,0.0,0.0,0.0,0.0,0.0,0.0,0.0,0.0,0.0,0.0,0.0,0.0,0.0,1.5718,1.6115,1.6498,1.7927,1.794,1.6936,1.5673,1.4624,1.3802,1.3467,0.0,0.0,0.0,0.0,0.0,0.0,0.0,0.0,0.0,0.0,0.0,0.0,0.0,0.0,0.0,0.0,0.0,0.0,0.0,0.0,0.0,0.0,0.0,0.0,0.0,0.0,0.0,0.0,0.0,0.0,0.0,0.0,0.0,0.0,0.0,0.0,0.0,0.0,1.5396,1.6556,1.6857,1.6504,0.0,0.0,0.0,0.0,0.0,0.0,0.0,0.0,0.0,0.0,0.0,0.0,0.0,0.0,0.0,0.0,0.0,0.0,0.0,0.0,0.0,0.0,0.0,0.0,0.0,0.0,0.0,0.0,0.0,0.0,0.0,0.0,0.0,0.0,0.0,0.0,0.0,0.0,0.0,0.0,0.0,0.0,0.0,0.0,1.0872,1.2107,0.0,0.0,0.0,0.0,0.0,0.0,0.0,0.0,0.0,0.0,0.0,0.0,0.0,1.7499,1.8991,1.9612,2.0223,2.0815,2.1709,2.2009,2.1612,2.2245,2.2545,2.2231,2.1843,0.0,1.5668,1.63,0.0,0.0,0.0,0.0,0.0,0.0,0.0,0.0,0.0,0.0,0.0,0.0,0.0,0.0,0.0,0.0,0.0,0.0,0.0,0.0,0.0,0.0,0.0,0.0,0.0,0.0,0.0,0.0,0.0,0.0,0.0,0.0,0.0,0.0,0.0,0.0,0.0,0.0,0.0,0.0,0.0,0.0,0.0,0.0,0.0,0.0,0.0,0.0,0.0,0.0,0.0,0.0,0.0,0.0,0.0,0.0,0.0,0.0,0.0,0.0,0.0,0.0,0.0,0.0,0.0,0.0,0.0,0.0,0.0,0.0,0.0,0.0,0.0,0.0,0.0,0.0,0.0,0.0,0.0,0.0,0.0,0.0,0.0,0.0,0.0,1.064,1.2893,1.4504,1.4492,1.3939,0.0,0.0,0.0,0.0,0.0,0.0,0.0,0.0,0.0,1.8295,1.9507,2.0508,2.149,2.1923,2.2486,2.3178,2.3668,2.3829,2.4057,2.5377,2.5509,2.4704,2.6334,2.4624,2.0757,1.9177,1.7642,1.5991,0.0,0.0,0.0,0.0,1.2953,1.2987,0.0,0.0,0.0,0.0,0.0,0.0,0.0,0.0,0.0,0.0,0.0,0.0,0.0,0.0,0.0,1.2959,0.0,0.0,0.0,0.0,0.0,0.0,0.0,0.0,0.0,0.0,0.0,0.0,0.0,0.0,0.0,0.0,0.0,0.0,0.0,0.0,0.0,0.0,0.0,0.0,0.0,0.0,0.0,0.0,0.0,0.0,0.0,0.0,0.0,0.0,0.0,0.0,0.0,0.0,0.0,0.0,0.0,0.0,0.0,0.0,0.0,0.0,0.0,0.0,0.0,0.0,0.0,0.0,0.0,0.0,0.0,0.0,0.0,0.0,0.0,0.0,0.0,1.2608,1.4972,1.6473,1.6719,1.638,0.0,0.0,0.0,0.0,0.0,0.0,1.7224,1.9318,2.102,2.2372,2.3391,2.4199,2.4595,2.4969,2.5392,2.6127,2.6215,2.6451,2.7011,2.8392,2.8419,2.7449,2.9732,2.9028,2.6005,2.2639,2.0408,1.8879,1.7131,1.6026,1.5363,1.5193,1.5097,1.5063,0.0,0.0,0.0,0.0,0.0,0.0,0.0,0.0,0.0,0.0,0.0,0.0,0.0,0.0,1.4544,1.6228,1.628,1.5642,0.0,0.0,0.0,0.0,0.0,0.0,0.0,0.0,0.0,0.0,0.0,0.0,0.0,0.0,0.0,0.0,0.0,0.0,0.0,0.0,0.0,0.0,0.0,0.0,0.0,0.0,0.0,0.0,0.0,0.0,0.0,0.0,0.0,0.0,0.0,0.0,0.0,0.0,0.0,0.0,0.0,0.0,0.0,0.0,0.0,0.0,0.0,0.0,0.0,0.0,0.0,0.0,0.0,0.0,0.0,0.0,0.0,0.0,0.0,0.0,0.0,1.6875,2.0324,0.0,0.0,0.0,0.0,1.7169,1.8126,1.9485,2.0925,2.3099,2.5076,2.6921,2.842,2.9634,3.049,3.0918,3.1052,3.111,3.1517,3.1871,3.191,3.193,3.1949,3.1828,3.207,3.1582,3.0374,2.7082,2.4668,2.2888,2.0319,1.9497,1.949,1.7728,1.7208,1.7502,0.0,0.0,0.0,0.0,0.0,0.0,0.0,0.0,0.0,0.0,0.0,0.0,0.0,1.6382,1.8877,2.031,2.1429,2.0961,1.8568,0.0,0.0,0.0,0.0,0.0,0.0,0.0,0.0,0.0,0.0,0.0,0.0,0.0,0.0,0.0,0.0,0.0,0.0,0.0,0.0,0.0,0.0,0.0,0.0,0.0,0.0,0.0,0.0,0.0,0.0,0.0,0.0,0.0,0.0,0.0,0.0,0.0,0.0,0.0,0.0,0.0,0.0,0.0,0.0,0.0,0.0,0.0,0.0,0.0,0.0,0.0,0.0,0.0,0.0,0.0,0.0,0.0,0.0,0.0,0.0,2.0254,2.2531,0.0,2.1291,2.0765,2.0584,2.0619,2.203,2.3637,2.5344,2.7453,2.9221,3.037,3.144,3.2207,3.2519,3.2676,3.2617,3.2344,3.25,3.2422,3.2187,3.2441,3.2422,3.2187,3.2461,3.2246,3.1621,3.0103,2.7847,2.5147,2.3084,2.2241,2.2192,2.1771,2.1759,2.1932,0.0,0.0,0.0,0.0,0.0,0.0,0.0,0.0,0.0,0.0,0.0,1.3934,1.6413,1.9487,2.2164,2.3956,2.4562,2.3702,2.1076,0.0,0.0,0.0,0.0,0.0,0.0,0.0,0.0,0.0,0.0,0.0,0.0,0.0,0.0,0.0,0.0,0.0,0.0,0.0,0.0,0.0,0.0,0.0,1.6343,0.0,0.0,0.0,0.0,0.0,0.0,0.0,0.0,0.0,0.0,0.0,0.0,0.0,0.0,0.0,0.0,0.0,0.0,0.0,0.0,0.0,0.0,0.0,0.0,0.0,0.0,0.0,0.0,0.0,0.0,0.0,0.0,0.0,0.0,0.0,2.1235,2.2944,2.4932,2.5774,2.4711,2.411,2.4136,2.4999,2.6342,2.788,2.9573,3.1185,3.2285,3.3008,3.3555,3.3848,3.3848,3.3711,3.3496,3.3223,3.3086,3.2871,3.2598,3.2871,3.2851,3.2598,3.2891,3.2773,3.2363,3.207,3.0546,2.8277,2.6116,2.5284,2.5017,2.4822,2.4778,2.4844,0.0,0.0,0.0,0.0,0.0,0.0,0.0,0.0,0.0,0.0,1.3476,1.6154,2.033,2.2271,2.4297,2.6855,2.5488,2.3563,2.1323,1.8426,0.0,0.0,0.0,0.0,0.0,0.0,0.0,0.0,0.0,0.0,0.0,0.0,0.0,0.0,0.0,0.0,0.0,0.0,0.0,0.0,0.0,0.0,1.9255,0.0,0.0,0.0,0.0,0.0,0.0,0.0,0.0,0.0,0.0,0.0,0.0,0.0,0.0,0.0,0.0,0.0,0.0,0.0,0.0,0.0,0.0,0.0,0.0,0.0,0.0,0.0,0.0,0.0,0.0,0.0,0.0,0.0,1.722,2.1446,2.4387,2.4777,2.7699,2.9199,2.7969,2.8574,2.9414,3.0254,3.1113,3.2148,3.3398,3.3887,3.4297,3.4707,3.4726,3.4746,3.4746,3.4336,3.4121,3.4101,3.3691,3.3476,3.3457,3.3437,3.3437,3.3437,3.3437,3.3184,3.2812,3.2793,3.2559,3.1968,2.9508,2.8564,2.8325,2.6729,2.6106,2.6106,0.0,0.0,0.0,0.0,0.0,0.0,0.0,0.0,0.0,0.0,1.5349,1.8497,2.2276,2.4972,2.6953,2.8281,2.6836,2.5102,2.3438,0.0,0.0,0.0,0.0,0.0,0.0,0.0,0.0,0.0,0.0,0.0,0.0,0.0,0.0,0.0,0.0,0.0,0.0,0.0,0.0,0.0,0.0,0.0,2.0969,0.0,0.0,0.0,0.0,0.0,0.0,0.0,0.0,0.0,0.0,0.0,0.0,0.0,0.0,0.0,0.0,0.0,0.0,0.0,0.0,0.0,0.0,0.0,0.0,0.0,0.0,0.0,0.0,0.0,0.0,0.0,0.0,2.1206,2.1624,2.4299,2.7029,2.9295,3.1249,3.2226,3.1875,3.2051,3.2422,3.2969,3.3223,3.3652,3.4316,3.4785,3.5078,3.5195,3.5508,3.5664,3.5664,3.5547,3.5332,3.5039,3.4902,3.4668,3.4336,3.4023,3.3887,3.3887,3.3555,3.3359,3.3223,3.293,3.2734,3.2559,3.1507,3.0983,3.0596,3.0099,2.9774,2.953,0.0,0.0,0.0,0.0,0.0,0.0,0.0,0.0,0.0,0.0,1.6878,2.0273,2.4703,2.6512,2.7865,2.9152,2.7221,2.5195,2.3461,0.0,0.0,0.0,0.0,2.1336,2.3653,0.0,0.0,0.0,0.0,0.0,0.0,0.0,0.0,0.0,0.0,0.0,0.0,0.0,0.0,0.0,0.0,0.0,2.3729,2.2206,2.0596,1.9047,1.8073,1.7752,1.7596,1.5518,0.0,0.0,0.0,0.0,0.0,0.0,0.0,0.0,0.0,0.0,0.0,0.0,0.0,0.0,0.0,0.0,0.0,0.0,0.0,0.0,0.0,0.0,0.0,0.0,2.1979,2.5514,2.7281,2.8634,3.0249,3.2533,3.3672,3.4238,3.4238,3.4238,3.4355,3.4609,3.4629,3.4883,3.5488,3.5605,3.582,3.6172,3.6074,3.6113,3.6289,3.5937,3.5625,3.5391,3.5195,3.4961,3.4687,3.4453,3.4336,3.4316,3.3887,3.3691,3.3652,3.3223,3.3066,3.3008,0.0,0.0,0.0,0.0,3.1094,3.0898,0.0,0.0,0.0,0.0,0.0,0.0,0.0,0.0,0.0,0.0,0.0,2.1337,2.6702,2.7066,2.756,2.9226,2.6932,2.4461,0.0,0.0,0.0,2.0667,2.2031,2.3937,2.6484,2.7422,0.0,0.0,0.0,0.0,0.0,0.0,0.0,0.0,0.0,0.0,0.0,0.0,0.0,0.0,0.0,0.0,2.6874,2.512,2.3898,2.2924,2.1677,2.0826,2.0057,1.9206,0.0,0.0,0.0,0.0,0.0,0.0,0.0,0.0,0.0,0.0,0.0,0.0,0.0,0.0,0.0,0.0,0.0,0.0,0.0,0.0,0.0,0.0,0.0,0.0,2.4632,2.848,3.3049,3.3476,3.3691,3.4726,3.5293,3.5586,3.5547,3.5547,3.5547,3.5547,3.5547,3.5859,3.6641,0.0,0.0,0.0,0.0,3.6328,3.666,3.5918,3.5508,3.5469,3.5039,3.4844,3.4844,3.4805,3.4785,3.4746,3.4277,3.4082,3.4043,3.3594,3.3418,3.334,3.2559,3.1973,3.1543,3.1113,3.0937,3.0898,0.0,0.0,0.0,0.0,0.0,0.0,0.0,0.0,0.0,1.6485,1.8476,2.1178,2.5179,2.5788,2.6388,2.7459,2.5932,2.4146,0.0,0.0,2.1161,2.2606,2.4236,2.5799,2.7383,2.8594,2.9492,0.0,0.0,0.0,0.0,0.0,0.0,0.0,0.0,0.0,0.0,0.0,0.0,0.0,0.0,0.0,2.8019,2.7591,2.7321,2.6996,2.5366,2.5714,2.6547,2.3204,2.23,2.2171,1.9488,0.0,0.0,0.0,0.0,0.0,0.0,0.0,0.0,0.0,0.0,0.0,0.0,0.0,0.0,0.0,0.0,0.0,0.0,0.0,0.0,2.6082,2.9855,3.3231,3.5293,3.6035,3.6269,3.582,3.6445,3.6797,3.6465,3.6426,3.6426,3.6426,3.6426,3.6504,3.666,3.6914,3.7129,3.7285,3.7129,3.6934,3.668,3.6504,3.625,3.5898,3.5801,0.0,3.5742,3.541,3.5254,3.5215,3.4414,3.4082,3.4043,3.3594,3.3418,3.3379,3.2871,3.2422,3.1992,3.1562,3.1191,3.0898,0.0,0.0,0.0,0.0,0.0,0.0,0.0,0.0,0.0,0.0,1.8018,2.0584,2.4325,2.4877,2.5305,2.6002,2.4263,0.0,0.0,2.264,2.3396,2.5025,2.6326,2.7617,2.8906,2.9551,3.0195,3.0859,0.0,0.0,0.0,0.0,0.0,0.0,0.0,0.0,0.0,0.0,0.0,0.0,0.0,0.0,3.2543,3.2078,3.1591,3.1048,3.0205,3.0321,3.0469,2.7659,2.6583,2.5889,2.3204,2.0589,1.8243,0.0,0.0,0.0,0.0,0.0,0.0,0.0,0.0,0.0,0.0,0.0,0.0,0.0,0.0,1.8688,0.0,0.0,2.7012,2.9434,3.3014,3.582,3.7109,3.7676,3.7695,3.7051,3.7344,3.7539,3.7324,3.7305,3.7207,3.7012,3.6992,3.707,3.7285,3.7305,3.75,3.793,3.7519,3.7305,3.7305,3.709,3.6777,3.6348,3.6348,3.623,3.6016,3.5801,3.5586,3.5351,3.4687,3.4258,3.4043,3.3594,3.3418,3.3398,3.3184,3.2715,3.209,3.1445,3.1074,3.0898,0.0,0.0,0.0,0.0,0.0,0.0,0.0,0.0,0.0,0.0,0.0,1.9827,2.3282,2.3596,2.3693,0.0,0.0,0.0,0.0,2.4199,2.5449,2.7187,2.8086,2.9062,3.0176,3.0616,3.1166,3.1959,0.0,0.0,0.0,0.0,0.0,0.0,0.0,0.0,0.0,0.0,0.0,0.0,0.0,0.0,3.7952,3.7257,3.5979,3.4585,3.4283,3.3424,3.2384,3.1278,2.9833,2.8119,2.6697,2.457,2.2054,1.9462,1.819,0.0,0.0,0.0,0.0,0.0,0.0,0.0,0.0,0.0,1.8296,1.9502,2.0925,2.246,2.4207,2.7246,3.0174,3.2542,3.522,3.7422,3.8535,3.8633,3.8418,3.7969,3.8008,3.8027,3.793,3.793,3.7773,3.7441,3.7422,3.7559,3.791,3.7676,3.7851,3.8555,3.791,3.7656,3.793,3.7598,3.7207,3.6797,3.6719,3.6484,3.6152,3.6055,3.584,3.5488,3.5039,3.4551,3.4043,3.3691,3.3496,3.3418,3.332,3.2832,3.209,3.1387,3.1094,3.0996,0.0,0.0,0.0,0.0,0.0,0.0,0.0,0.0,0.0,0.0,0.0,0.0,0.0,0.0,0.0,0.0,0.0,0.0,2.4291,2.5117,2.6348,2.8066,2.8965,2.9668,3.0176,3.2014,3.3152,3.3654,3.5402,0.0,0.0,0.0,0.0,0.0,0.0,0.0,0.0,0.0,0.0,0.0,0.0,0.0,4.2314,4.219,4.0038,3.6897,3.5153,3.339,3.2007,3.2555,3.0525,2.8006,2.9787,2.7824,2.4584,2.3095,0.0,1.7733,1.5754,1.4757,1.4339,1.4379,1.5804,1.7845,0.0,0.0,2.3777,2.5715,2.7995,3.0007,3.0914,3.332,3.5413,3.656,3.7695,3.8535,3.9062,3.8809,3.8418,3.7969,3.8262,3.8359,3.7969,3.793,3.791,3.7851,3.7851,3.7871,3.793,3.8242,3.8476,3.8574,3.8476,3.8262,3.793,3.7871,3.7637,3.7226,3.6855,3.6641,3.6582,3.6191,3.5996,3.5937,3.5508,3.4844,3.4062,3.4023,3.3769,3.3379,3.3008,3.2578,3.2148,3.2051,3.1777,3.1387,0.0,0.0,0.0,0.0,0.0,0.0,0.0,0.0,0.0,0.0,0.0,0.0,0.0,0.0,0.0,0.0,0.0,0.0,2.3472,2.516,2.6992,2.8945,3.046,3.1452,3.1901,3.3904,3.5172,3.5517,3.6693,0.0,0.0,0.0,0.0,0.0,0.0,0.0,0.0,0.0,0.0,0.0,0.0,0.0,4.3413,4.3112,4.1056,3.8099,3.6405,3.4793,0.0,0.0,2.999,2.8869,2.8757,2.7062,2.4983,2.3519,2.1813,0.0,1.9481,1.8337,1.7797,0.0,2.0925,2.2321,2.4914,2.6541,2.8447,3.1131,3.2276,3.3519,3.5895,3.6714,3.75,0.0,3.9316,3.9687,3.9609,3.9219,3.8496,3.7324,3.7363,3.7598,3.7891,3.793,3.8027,3.8281,3.8301,3.8301,3.8301,3.8476,3.8574,3.8574,3.8574,3.8496,3.8301,3.8301,3.8086,3.7656,3.748,3.7148,3.666,3.6484,3.6133,3.5625,3.5176,3.4648,3.4082,3.4082,3.3809,3.3398,3.3223,3.291,3.248,3.1973,3.1523,3.1133,0.0,0.0,0.0,0.0,0.0,0.0,0.0,0.0,0.0,0.0,0.0,0.0,0.0,0.0,0.0,0.0,0.0,0.0,0.0,2.5217,2.7759,2.9939,3.2211,0.0,3.3926,3.6117,3.7291,3.7634,3.862,3.9546,0.0,0.0,0.0,0.0,0.0,0.0,0.0,0.0,0.0,0.0,0.0,0.0,4.3714,4.2861,4.0802,3.8091,3.6824,3.5006,0.0,0.0,2.8958,2.8156,2.7186,2.6044,2.4769,2.3301,2.209,2.1291,2.1582,0.0,0.0,2.4275,2.5724,2.698,2.9172,3.1047,3.295,3.5634,3.631,3.7274,4.0067,4.0146,3.9982,4.0404,4.0674,4.0583,3.9739,3.8945,3.7949,3.6484,3.6113,3.625,3.6973,3.7363,3.7812,3.8359,3.8398,3.8398,3.8398,3.8516,3.8516,3.8398,3.8516,3.8574,3.8574,3.8574,3.8418,3.8105,3.7871,3.7441,3.6836,3.6601,3.6152,3.5547,3.5215,3.4824,3.4434,3.4297,3.3984,3.3594,3.3476,3.3105,3.2559,3.1934,3.1426,3.1055,0.0,0.0,0.0,0.0,0.0,0.0,0.0,0.0,0.0,0.0,0.0,0.0,0.0,0.0,0.0,0.0,0.0,0.0,0.0,2.555,2.8628,3.0937,3.4186,3.5983,3.6005,3.8564,3.992,3.992,4.1854,4.3125,4.3701,0.0,0.0,0.0,0.0,0.0,0.0,0.0,0.0,0.0,0.0,0.0,4.3614,4.2007,3.9337,3.6578,3.601,0.0,0.0,0.0,2.7144,2.4744,2.6194,2.5585,0.0,2.3288,2.1174,0.0,0.0,0.0,2.3668,2.5867,2.892,3.1579,3.2969,3.5285,3.772,3.8982,4.0954,4.266,4.3242,4.4001,4.3947,4.2183,4.1916,4.1214,3.8964,3.7539,3.6426,3.5547,3.4668,3.4316,0.0,3.5957,3.7051,3.7871,3.7949,3.7949,3.7949,3.834,3.8379,3.7969,3.8359,3.8574,3.8574,3.8574,3.8574,3.8555,3.7715,3.7305,3.7246,3.6426,3.6035,3.5996,3.5996,3.5742,3.5312,3.4863,3.4434,3.4004,3.3594,3.291,3.2187,3.2148,3.1875,3.1445,0.0,0.0,0.0,0.0,0.0,0.0,0.0,0.0,0.0,0.0,0.0,0.0,0.0,0.0,0.0,0.0,0.0,0.0,0.0,2.45,2.7708,2.9247,3.3915,3.661,3.7068,3.9576,4.1101,4.1447,4.2463,4.3438,4.4342,4.4543,0.0,0.0,0.0,0.0,0.0,0.0,0.0,0.0,0.0,0.0,4.2667,3.9849,3.6517,3.3197,0.0,0.0,0.0,0.0,2.4019,2.3145,2.3227,0.0,0.0,2.0294,2.0816,2.1858,2.3329,0.0,2.8203,3.2076,3.4427,3.6686,3.967,4.0957,4.1993,4.3545,4.1965,4.0581,4.1511,3.9477,3.7922,3.8366,3.8708,3.8783,3.8661,3.7949,3.6758,3.4746,3.4492,0.0,0.0,0.0,0.0,3.7012,3.7344,3.7637,3.791,3.834,3.8516,3.8359,3.8496,3.8574,3.8574,3.8574,3.8574,3.8555,3.7715,3.7305,3.7266,3.6406,3.6016,3.6016,3.6016,3.5605,3.4922,3.4766,3.4121,3.3203,3.3066,3.248,3.1738,3.1738,3.1465,3.1074,0.0,0.0,0.0,0.0,0.0,0.0,0.0,0.0,0.0,0.0,0.0,0.0,0.0,0.0,0.0,0.0,0.0,0.0,0.0,0.0,2.5931,2.7565,3.2248,3.4975,3.5482,3.7394,3.8564,3.8973,4.0055,4.1087,4.1979,4.2937,4.4041,0.0,0.0,0.0,0.0,0.0,0.0,0.0,0.0,0.0,3.9296,3.6213,3.2982,0.0,0.0,0.0,0.0,0.0,0.0,0.0,0.0,2.0525,1.9944,2.0275,2.1967,2.4212,2.6584,2.965,3.3028,3.6771,3.9239,4.1197,4.3489,4.4412,4.4695,4.4337,4.2454,4.0591,3.9719,3.7495,3.5953,3.6517,3.6777,3.7109,3.7642,3.6875,3.5879,3.4687,3.4238,3.3809,0.0,0.0,0.0,3.6328,3.6973,3.7422,3.7676,3.8262,3.8496,3.8359,3.8496,3.8574,3.8574,3.8574,3.8418,3.8105,3.7559,3.7129,3.6816,3.6269,3.6016,3.6016,3.5859,3.5469,3.4922,3.4609,3.3984,3.3223,3.291,3.2363,3.1738,3.1582,3.1348,3.1094,0.0,0.0,0.0,0.0,0.0,0.0,0.0,0.0,0.0,0.0,0.0,0.0,0.0,0.0,0.0,0.0,0.0,0.0,0.0,0.0,0.0,2.5988,2.9304,3.129,3.1737,3.2436,3.285,3.2986,3.5088,3.6459,3.7012,3.9668,4.1439,4.2574,0.0,0.0,0.0,0.0,0.0,0.0,0.0,0.0,3.3947,3.1391,0.0,0.0,0.0,0.0,0.0,0.0,0.0,0.0,0.0,2.0532,2.1318,2.3057,2.4476,2.636,3.0353,3.4286,3.7932,4.0039,4.298,4.5161,4.4823,4.5704,4.5704,4.1903,4.2231,4.2214,0.0,0.0,3.777,3.6161,3.6051,3.6039,3.6091,3.4687,3.4101,0.0,0.0,0.0,0.0,0.0,0.0,3.5937,0.0,3.7266,3.7324,3.8125,3.8379,3.7969,3.8359,3.8574,3.8574,3.8574,3.8164,3.7324,3.7305,3.6855,3.6016,3.5996,3.5976,3.5937,3.5527,3.5351,3.5254,3.4414,3.4043,3.3926,3.3105,3.2539,3.2129,3.1699,3.1562,3.1484,0.0,0.0,0.0,0.0,0.0,0.0,0.0,0.0,0.0,0.0,0.0,0.0,0.0,0.0,0.0,0.0,0.0,0.0,0.0,0.0,0.0,0.0,0.0,0.0,0.0,0.0,0.0,0.0,0.0,3.3138,3.3773,3.4869,3.5679,0.0,3.7263,0.0,0.0,0.0,0.0,0.0,0.0,0.0,3.2414,0.0,0.0,0.0,0.0,0.0,0.0,0.0,0.0,0.0,0.0,2.2116,2.3369,2.5352,2.8568,3.2247,3.516,3.9239,4.3242,4.5849,4.7071,4.8017,4.9169,4.7743,4.5493,4.3506,3.9467,3.5733,0.0,0.0,0.0,3.2572,3.3793,0.0,3.6818,3.6855,0.0,3.5937,0.0,3.5527,3.5098,3.5527,0.0,0.0,3.6406,3.6758,3.7715,3.8281,3.8516,3.8418,3.8516,3.8574,3.8574,3.8574,3.8301,3.7754,3.7441,3.6855,3.6016,3.5703,3.5371,3.5039,3.4922,3.4687,3.4394,3.416,3.3691,3.3105,3.2891,3.2539,3.2148,3.2051,3.2012,3.1934,0.0,0.0,0.0,0.0,0.0,0.0,0.0,0.0,0.0,0.0,0.0,0.0,0.0,0.0,0.0,0.0,0.0,0.0,0.0,0.0,0.0,0.0,0.0,0.0,0.0,0.0,0.0,0.0,0.0,0.0,0.0,3.0079,3.095,3.1366,3.2268,3.273,0.0,0.0,0.0,0.0,0.0,0.0,0.0,0.0,0.0,0.0,0.0,0.0,0.0,0.0,0.0,2.3381,2.4105,2.5547,2.757,3.0489,0.0,3.6896,4.004,4.3894,4.7214,4.8823,4.9655,4.9842,4.8754,4.6489,4.3301,3.8863,3.5002,0.0,2.8696,0.0,0.0,0.0,0.0,0.0,3.6113,3.6484,3.6601,0.0,3.6738,0.0,3.625,3.6504,3.6894,0.0,3.7109,3.7168,3.7891,3.834,3.8574,3.8574,3.8574,3.8574,3.8574,3.8379,3.8066,3.7637,3.7226,3.6562,3.5742,3.5684,3.5312,3.4707,3.4707,3.4453,3.4062,3.3867,3.3496,3.3047,3.2871,3.2656,3.2422,3.2246,3.2285,3.2383,0.0,0.0,0.0,0.0,0.0,0.0,0.0,0.0,0.0,0.0,0.0,0.0,0.0,0.0,0.0,0.0,0.0,0.0,0.0,0.0,0.0,0.0,0.0,0.0,0.0,0.0,0.0,0.0,0.0,0.0,0.0,0.0,0.0,0.0,0.0,0.0,0.0,0.0,0.0,0.0,0.0,0.0,0.0,0.0,0.0,0.0,0.0,0.0,0.0,0.0,2.591,2.6492,2.7999,3.0162,3.2813,3.6415,3.8852,4.1155,4.4661,4.8006,5.041,5.041,5.1019,5.0513,4.5817,4.3375,3.9927,3.1903,0.0,2.8903,2.4364,2.5737,2.7582,2.7944,0.0,3.2031,3.5059,3.5176,3.5838,3.796,3.7465,3.7191,3.7825,3.7328,3.7461,3.8574,3.8359,3.8164,3.8105,3.8457,3.8633,3.8574,3.8516,3.8496,3.8496,3.8066,3.7637,3.7207,3.7114,3.6621,3.5791,3.6147,3.587,3.508,3.476,3.4414,3.4043,3.3594,3.3418,3.3379,3.3027,3.2871,3.2832,3.248,3.2559,3.2812,0.0,0.0,0.0,0.0,0.0,0.0,0.0,0.0,0.0,0.0,1.3148,1.4028,0.0,0.0,0.0,0.0,0.0,0.0,0.0,0.0,0.0,0.0,0.0,0.0,0.0,0.0,0.0,0.0,0.0,0.0,0.0,0.0,0.0,0.0,0.0,0.0,0.0,0.0,0.0,0.0,0.0,0.0,0.0,0.0,0.0,0.0,0.0,0.0,0.0,0.0,2.7843,2.9776,3.1813,3.4487,3.7443,3.9643,4.2951,4.6414,4.814,5.044,5.2352,5.2352,5.118,4.8985,4.5097,4.0428,0.0,0.0,2.8373,2.6151,2.4999,2.6238,2.7784,2.9035,0.0,0.0,0.0,0.0,3.7252,0.0,0.0,0.0,0.0,0.0,0.0,0.0,3.9375,3.9394,3.9004,3.9043,3.8926,3.8594,3.8223,3.8027,3.8027,3.7617,3.7187,3.6777,3.8133,3.8274,3.7405,3.7488,3.7348,3.6787,3.4943,3.4141,3.4043,3.3594,3.3418,3.3418,3.334,3.332,3.3301,3.3242,3.3242,3.3242,0.0,0.0,0.0,0.0,0.0,0.0,0.0,0.0,1.0923,1.1076,1.2625,1.3498,1.2887,1.288,0.0,0.0,0.0,0.0,0.0,0.0,0.0,0.0,0.0,0.0,0.0,0.0,0.0,0.0,0.0,0.0,0.0,0.0,0.0,0.0,0.0,0.0,0.0,0.0,0.0,0.0,0.0,0.0,0.0,0.0,0.0,0.0,0.0,0.0,0.0,0.0,2.7435,3.0084,3.3603,3.7408,4.052,4.0573,4.4186,4.8332,4.8284,5.0553,5.2854,5.2578,5.0041,4.6437,4.1791,0.0,0.0,0.0,2.5859,2.4567,2.4104,0.0,0.0,0.0,0.0,0.0,0.0,0.0,0.0,0.0,0.0,0.0,0.0,0.0,4.0144,4.2375,4.0901,3.9687,3.9219,3.9004,3.9188,3.9962,3.9739,4.0185,4.1151,4.0456,3.9993,3.9761,4.0077,3.9845,3.93,3.9561,3.8766,3.7191,3.6485,3.536,3.4062,3.3848,3.3633,3.3418,3.3418,3.3418,3.3418,3.3418,3.3418,3.3398,0.0,0.0,0.0,0.0,0.0,0.0,0.0,1.0122,1.1,1.1148,1.2458,1.3235,1.2632,1.2482,1.2126,0.0,0.0,0.0,0.0,0.0,0.0,0.0,0.0,0.0,0.0,0.0,0.0,0.0,0.0,0.0,0.0,0.0,0.0,0.0,0.0,0.0,0.0,0.0,0.0,0.0,0.0,0.0,0.0,0.0,0.0,0.0,0.0,0.0,0.0,0.0,2.6229,2.8914,3.3749,3.8051,4.1299,4.0908,4.4505,4.8642,4.856,5.074,5.2641,5.1793,4.8396,4.3721,3.8131,3.3382,0.0,0.0,2.3756,2.3699,2.2934,0.0,2.6344,0.0,0.0,0.0,0.0,0.0,0.0,0.0,0.0,0.0,0.0,0.0,0.0,4.511,4.269,4.0692,3.979,3.979,4.0371,4.189,4.1784,4.244,4.3959,4.3063,4.2615,4.2615,4.213,4.1774,4.1388,4.1302,4.0118,3.8125,3.7415,3.6091,3.4199,3.4004,3.373,3.3418,3.3418,3.3418,3.3418,3.3418,3.3418,3.3418,0.0,0.0,0.0,0.0,0.0,0.0,0.0,1.0348,1.1361,1.192,1.2994,1.3506,1.2916,1.2351,1.1601,0.0,0.0,0.0,0.0,0.0,0.0,0.0,0.0,0.0,0.0,0.0,0.0,1.4357,1.4285,0.0,0.0,0.0,0.0,0.0,0.0,0.0,0.0,0.0,0.0,0.0,0.0,0.0,0.0,0.0,0.0,0.0,0.0,0.0,0.0,0.0,0.0,2.652,3.1196,3.4714,3.7848,4.173,0.0,0.0,5.1408,5.2616,5.2341,5.018,4.6319,4.1564,3.5726,0.0,0.0,2.2432,2.2956,2.3638,2.2218,2.395,0.0,0.0,0.0,2.9001,0.0,0.0,0.0,0.0,0.0,0.0,0.0,4.5642,4.4923,4.4783,4.4901,4.409,4.1916,4.2991,4.3703,4.3841,4.3554,4.3308,4.3421,4.3017,4.2725,4.2725,4.3811,4.4318,4.412,4.213,4.1136,4.0618,3.6725,3.4838,3.459,3.3809,3.3457,3.3418,3.3418,3.3418,3.3418,3.3418,3.3418,3.3418,0.0,0.0,0.0,0.0,0.0,0.0,0.8751,1.0046,1.1122,1.1707,1.2959,1.3468,1.2626,1.2011,1.1346,0.0,0.0,0.0,0.0,0.0,0.0,0.0,0.0,0.0,0.0,0.0,0.0,1.294,1.316,0.0,0.0,0.0,0.0,0.0,0.0,1.4844,0.0,0.0,0.0,0.0,0.0,0.0,0.0,0.0,0.0,0.0,0.0,0.0,0.0,0.0,0.0,0.0,2.5292,2.7402,0.0,0.0,4.1345,4.6553,4.6199,4.951,5.2192,4.9246,4.4579,3.9313,3.4298,0.0,2.3939,2.2577,2.2648,2.2805,2.2694,2.4302,2.563,0.0,0.0,0.0,3.2767,0.0,0.0,0.0,0.0,0.0,0.0,0.0,4.5617,4.5707,4.8052,4.8373,4.5574,4.4932,4.5095,4.6192,4.5704,4.5982,4.7064,4.6689,4.6231,4.5893,4.6064,4.54,4.404,4.3051,4.1384,3.9174,3.7411,3.5811,3.4297,3.3945,3.3652,3.3418,3.3418,3.3418,3.3418,3.3418,3.3418,3.3418,0.0,0.0,0.0,0.0,0.0,0.7859,0.8559,0.9875,1.1032,1.1701,1.3001,1.3492,1.2462,1.1799,1.1063,1.0272,0.0,0.0,0.0,0.0,0.0,0.0,0.0,0.0,0.0,0.0,1.234,1.166,1.2051,1.2176,0.0,0.0,1.291,1.3521,0.0,0.0,0.0,0.0,0.0,0.0,0.0,0.0,0.0,0.0,0.0,0.0,0.0,0.0,0.0,0.0,0.0,0.0,0.0,0.0,0.0,0.0,3.7063,4.252,4.2691,4.6867,5.0456,4.7631,4.2841,3.7561,0.0,0.0,2.1953,2.1734,2.1756,2.1923,2.2522,2.3903,2.502,0.0,0.0,2.711,3.1718,3.2827,0.0,0.0,0.0,4.3529,0.0,4.779,4.7493,4.8027,5.0352,5.0936,4.8888,4.7294,4.6993,4.8222,4.7835,4.8118,4.9339,4.8962,4.8485,4.7908,4.6861,4.55,4.3945,4.2613,4.0501,3.7884,3.7115,3.5759,3.4062,3.3926,3.3691,3.3418,3.3418,3.3418,3.3418,3.3418,3.3418,3.3418,0.0,0.0,0.0,0.0,0.0,0.0,0.0,1.0173,1.142,1.2027,1.3264,1.3678,1.2638,1.1694,1.0786,0.977,0.0,0.0,0.0,0.0,0.0,0.0,0.0,0.0,0.0,0.0,1.0941,1.0601,1.0887,1.106,1.1107,1.139,1.1865,1.2513,0.0,0.0,0.0,0.0,0.0,0.0,0.0,0.0,0.0,0.0,0.0,0.0,0.0,0.0,0.0,0.0,0.0,0.0,0.0,0.0,0.0,0.0,3.2241,3.5133,4.3211,4.6197,4.649,4.4936,4.1399,3.6317,0.0,2.432,2.074,1.9145,2.002,2.1132,2.146,2.2385,2.3764,0.0,0.0,0.0,3.1398,3.3273,0.0,0.0,0.0,4.0673,4.4255,4.867,5.1498,5.2051,5.1599,0.0,5.1272,5.072,5.0167,4.9615,4.959,4.9339,4.8786,4.8761,4.8485,4.7908,4.5687,4.4666,4.4492,3.9993,3.7905,3.7733,3.5191,3.4082,3.4043,3.3613,3.3418,3.3418,3.3418,3.3418,3.3418,3.3418,3.3418,3.3418,0.0,0.0,0.0,0.0,0.0,0.0,0.0,0.9742,1.0725,1.1296,1.2008,1.2125,1.1263,1.03,0.9438,0.8617,0.0,0.0,0.0,0.0,0.0,0.0,0.0,0.0,0.0,0.0,1.0466,0.9775,1.021,1.0549,1.088,1.1163,1.1623,1.2305,1.2714,0.0,0.0,0.0,0.0,0.0,0.0,0.0,0.0,0.0,0.0,0.0,0.0,0.0,0.0,0.0,0.0,0.0,0.0,0.0,0.0,0.0,0.0,0.0,3.5949,3.8783,4.0216,3.7244,3.4245,3.0812,2.5572,2.2108,1.9831,1.9169,1.9431,1.989,2.0412,2.2002,2.3474,0.0,0.0,0.0,0.0,0.0,0.0,3.7846,4.3668,4.8025,0.0,0.0,5.1925,5.2101,5.1599,5.1096,5.072,5.0519,5.0343,5.0167,4.9791,4.9339,4.8786,4.8761,4.8309,4.738,4.5518,4.3631,4.1651,3.9045,3.6923,3.5211,3.4438,3.3906,3.3613,3.3476,3.3418,3.3418,3.3418,3.3418,3.3418,3.3418,3.3418,3.3418,0.0,0.0,0.0,0.0,0.0,0.0,0.0,0.9343,1.0173,1.0561,1.1172,1.1247,1.0383,0.9627,0.8797,0.7936,0.0,0.0,0.0,0.0,0.0,0.0,0.0,0.0,0.0,0.9577,0.9792,0.9166,0.9738,1.0272,1.0709,1.0974,1.1472,1.2167,1.2512,0.0,0.0,0.0,0.0,0.0,0.0,0.0,1.3974,0.0,0.0,0.0,0.0,0.0,0.0,0.0,0.0,0.0,0.0,0.0,0.0,0.0,2.3937,0.0,0.0,3.3549,3.5225,3.2742,3.0376,0.0,0.0,2.0481,1.875,1.8575,1.8594,1.8903,1.9875,2.1389,2.2838,2.3847,0.0,0.0,0.0,0.0,0.0,3.7167,0.0,0.0,0.0,5.1005,5.1699,5.1473,5.1147,5.072,5.0142,5.0117,5.0017,4.9791,4.9464,4.9012,4.846,4.8259,4.7606,4.6502,4.4715,4.2599,4.015,3.8209,3.6193,3.4062,3.3906,3.3672,0.0,3.3418,3.3418,3.3418,3.3418,3.3418,3.3418,3.3418,3.3418,3.3418,0.0,0.0,0.0,0.0,0.0,0.0,0.0,0.0,0.9688,0.9879,1.0655,1.0919,0.9961,0.9409,0.8653,0.7635,0.0,0.0,0.0,0.0,0.0,0.0,0.0,0.0,0.0,0.8593,0.8911,0.8805,0.9563,1.0205,1.071,1.1012,1.1469,1.2074,1.2449,1.2644,1.2709,1.3978,1.4473,1.4487,1.4735,1.4234,0.0,0.0,0.0,0.0,0.0,0.0,0.0,0.0,0.0,0.0,0.0,0.0,0.0,0.0,0.0,0.0,0.0,0.0,0.0,0.0,0.0,0.0,0.0,1.9281,0.0,1.741,1.767,1.832,1.9644,2.0722,2.2028,2.3921,0.0,0.0,0.0,2.9001,0.0,0.0,4.1354,0.0,4.6118,4.9289,5.0996,5.0469,5.0393,5.0117,4.9565,4.954,4.9289,4.8736,4.8686,4.841,4.7857,4.733,4.6552,4.5547,4.3699,4.176,3.968,3.7481,3.5534,3.4004,3.3594,3.3418,3.3418,3.3418,3.3418,3.3418,3.3418,3.3398,3.3379,3.3379,3.3359,3.332,0.0,0.0,0.0,0.0,0.0,0.0,0.0,0.0,0.0,0.0,0.9298,0.9336,0.8622,0.8038,0.727,0.0,0.0,0.0,0.0,0.0,0.0,0.0,0.0,0.0,0.0,0.8036,0.8655,0.9111,0.9841,1.0755,1.1813,1.2305,1.272,1.2999,1.2905,1.28,1.2724,1.3459,1.3848,1.3984,1.4204,1.3659,0.0,0.0,0.0,0.0,1.1328,1.1458,0.0,0.0,0.0,0.0,0.0,0.0,0.0,0.0,1.7948,1.9004,2.0699,0.0,2.3384,2.2523,2.1621,2.0353,0.0,0.0,0.0,0.0,0.0,1.8108,1.8627,2.0176,2.1767,2.2819,0.0,0.0,2.5658,0.0,0.0,4.0503,4.5697,4.8978,4.8803,4.9912,5.0569,5.0419,5.0017,4.954,4.8987,4.8962,4.8711,4.8134,4.7732,4.7456,4.7305,4.6778,4.6376,4.61,4.3482,4.1411,3.9781,3.7481,3.5371,3.3574,3.3476,3.3418,3.3418,3.3418,3.3418,3.3418,3.3418,3.3223,3.2949,3.2949,3.2734,3.2461,0.0,0.0,0.0,0.0,0.0,0.0,0.0,0.0,0.0,0.0,0.0,0.0,0.0,0.0,0.0,0.0,0.0,0.0,0.0,0.0,0.0,0.0,0.0,0.0,0.6519,0.7312,0.7997,0.8667,0.9866,1.1136,1.246,1.3188,1.3647,1.3717,1.3155,1.2877,1.2821,1.3113,1.3271,1.3359,1.3277,0.0,0.0,0.0,0.0,0.0,1.096,1.1078,0.0,1.2181,1.2881,1.3543,0.0,0.0,0.0,0.0,1.6805,1.7319,1.8191,1.9834,2.1139,1.9901,1.9296,1.8721,0.0,0.0,0.0,0.0,0.0,0.0,1.8177,1.9502,0.0,0.0,2.4384,0.0,0.0,0.0,3.9071,4.2232,4.6588,4.9439,0.0,4.9791,4.9665,4.9665,4.9138,4.8686,4.8385,4.8385,4.8134,4.7581,4.728,4.7129,4.7129,4.6326,4.5799,4.5522,4.3684,4.1922,4.0214,3.8133,3.6304,3.4487,3.3776,3.3418,3.3398,3.3203,3.3144,3.3105,3.293,3.2715,3.25,3.25,3.2363,3.2168,0.0,0.0,0.0,0.0,0.0,0.0,0.0,0.0,0.0,0.0,0.0,0.0,0.0,0.0,0.0,0.0,0.0,0.0,0.0,0.0,0.0,0.0,0.0,0.5283,0.5741,0.6507,0.7291,0.8173,0.986,1.152,1.3043,1.4065,1.4461,1.4355,1.344,1.2916,1.2744,1.2739,1.2735,1.2617,1.2195,0.0,0.0,0.0,0.0,0.0,0.0,0.0,0.0,1.1969,1.2671,1.328,1.3773,0.0,0.0,0.0,0.0,0.0,1.7504,1.9438,2.0736,1.9351,1.8757,1.8417,0.0,0.0,0.0,0.0,0.0,0.0,0.0,0.0,0.0,0.0,0.0,0.0,3.3185,3.6814,3.9906,4.2254,4.5822,0.0,4.9791,4.9138,4.8611,4.8535,4.8134,4.7832,4.7682,4.7657,4.7431,4.6903,4.6803,4.6753,4.6753,4.5824,4.5121,4.4618,4.3991,4.2618,4.0711,3.8889,3.7276,3.5579,3.3973,3.3223,3.3203,3.2851,3.2695,3.2656,3.2305,3.2129,3.207,3.207,3.2031,3.1973,0.0,0.0,0.0,0.0,0.0,0.0,0.0,0.0,0.0,0.0,0.0,0.0,0.0,0.0,0.0,0.0,0.0,0.0,0.0,0.0,0.0,0.0,0.4099,0.4582,0.5227,0.6011,0.7212,0.8831,1.0421,1.2302,1.4408,1.5512,1.5555,1.4709,1.394,1.3025,1.2036,1.204,1.1858,1.154,1.1431,0.0,0.0,0.0,0.0,0.0,0.0,0.0,0.0,1.172,1.2293,1.2849,1.2737,0.0,0.0,0.0,0.0,0.0,1.6107,1.7296,1.7881,1.6766,1.5731,1.5042,0.0,0.0,0.0,0.0,0.0,0.0,0.0,0.0,0.0,0.0,0.0,3.1946,0.0,0.0,4.1393,4.1801,0.0,4.836,4.7707,4.7883,4.7857,4.7431,4.7707,4.7506,4.6602,4.6552,4.6301,4.5748,4.5271,4.4995,4.4995,4.4844,4.4719,4.4618,4.3589,4.247,4.1234,3.8824,3.6772,3.5218,3.3214,3.2363,3.2363,3.2285,3.2266,3.2266,3.2187,3.1953,3.1621,3.1621,3.1387,3.1094,0.0,0.0,0.0,0.0,0.0,0.0,0.0,0.0,0.0,0.0,0.0,0.0,0.0,0.0,0.0,0.0,0.0,0.0,0.0,0.0,0.0,0.322,0.3626,0.4235,0.5051,0.5985,0.7227,0.8718,1.1066,1.3177,1.5121,1.6344,1.6172,1.4868,1.3892,1.2978,1.2085,1.1669,1.1267,1.0879,0.0,0.0,0.0,0.0,0.0,0.0,0.0,0.0,0.0,0.0,1.1981,1.243,1.2359,0.0,0.0,0.0,0.0,0.0,1.4809,1.526,1.5423,1.5196,1.5295,1.5504,1.5623,0.0,0.0,0.0,0.0,0.0,0.0,0.0,2.3543,2.868,0.0,3.5348,3.775,4.0231,4.2381,0.0,0.0,4.7481,4.7556,4.7506,4.728,4.6728,4.6903,4.6702,4.5899,4.5874,4.5748,4.5497,4.3894,4.2837,4.2543,4.1509,4.2001,4.4166,4.3062,4.1829,4.0521,3.8228,3.6268,3.4736,3.2934,3.2168,3.2148,3.1914,3.1816,3.1797,3.1562,3.1348,3.1191,3.1191,3.1055,3.0898,0.0,0.0,0.0,0.0,0.0,0.0,0.0,0.0,0.0,0.0,0.0,0.0,0.0,0.0,0.0,0.0,0.0,0.0,0.0,0.0,0.3043,0.2915,0.336,0.4025,0.4935,0.6067,0.743,0.8895,1.1518,1.3791,1.5757,1.6786,1.6516,1.5024,1.3729,1.2757,1.2017,1.1267,1.071,1.0285,0.0,0.0,0.0,0.0,0.0,0.0,0.0,0.0,0.0,0.0,0.0,0.0,0.0,0.0,0.0,1.3941,1.4038,1.3914,1.4242,1.4037,1.3891,1.4403,0.0,1.6064,1.6978,0.0,0.0,0.0,0.0,0.0,0.0,2.2257,0.0,3.1815,3.5521,3.8576,4.1322,4.2434,4.3614,4.5472,4.6175,4.6778,4.7481,4.7054,4.6451,4.5773,4.5465,4.5171,4.4625,4.422,4.3958,4.3958,4.1827,4.0481,4.008,3.8366,3.9082,4.2119,4.1286,4.0338,3.9165,3.7018,3.5418,3.4274,3.2595,3.1875,3.1836,3.1504,3.1367,3.1348,3.1016,3.0898,3.0898,3.0898,3.0898,3.0898,0.0,0.0,0.0,0.0,0.0,0.0,0.0,0.0,0.0,0.0,0.0,0.0,0.0,0.0,0.0,0.0,0.0,0.0,0.0,0.0,0.2909,0.2909,0.336,0.4031,0.4882,0.6046,0.7726,1.006,1.158,1.3819,1.6637,1.6835,1.6348,1.519,1.3499,1.228,1.1401,1.0744,1.0095,0.9472,0.9159,0.0,0.0,0.0,0.0,0.0,0.0,0.0,0.0,0.0,0.0,0.0,0.0,0.0,1.2924,1.3959,1.405,1.3917,1.5022,1.4492,1.3752,1.4345,0.0,0.0,1.8391,0.0,0.0,0.0,0.0,0.0,0.0,2.7285,3.1083,3.2791,3.7076,4.0821,4.2635,0.0,4.5497,4.6175,4.6753,4.6903,4.6476,4.5924,4.5146,4.4066,4.311,4.2305,4.1755,4.0283,3.9417,3.9417,3.8467,3.783,3.7785,3.7266,3.7155,3.7451,3.7383,3.7224,3.7087,3.5042,3.4043,3.3791,3.1816,3.0976,3.0976,3.0957,3.0937,3.0937,3.0898,3.0898,3.0898,3.0898,3.0898,3.0898,0.0,0.0,0.0,0.0,0.0,0.0,0.0,0.0,0.0,0.0,0.0,0.0,0.0,0.0,0.0,0.0,0.0,0.0,0.0,0.0,0.286,0.2642,0.3309,0.4299,0.5604,0.6903,0.8616,1.0648,1.4079,1.6093,1.6798,1.7144,1.6394,1.466,1.2997,1.1944,1.1267,1.0387,0.9821,0.9458,0.8935,0.8738,0.0,0.0,0.0,0.0,0.0,0.0,0.0,0.0,1.0563,1.0737,0.0,1.1762,1.2711,1.3332,1.3682,1.383,1.382,1.4574,1.5404,1.5573,0.0,0.0,0.0,0.0,0.0,0.0,0.0,0.0,0.0,0.0,3.4023,3.4593,3.8503,4.1654,4.1988,4.2579,4.2782,4.232,4.2532,4.2579,4.239,4.2202,4.1516,4.0481,4.0406,3.9956,3.915,3.8635,3.8281,3.8281,3.6268,3.5323,3.5323,3.3833,3.3161,3.3161,3.5347,3.5934,3.5021,3.3883,3.2892,3.2009,3.1171,3.0898,3.0859,3.0586,3.0449,3.0449,3.0449,3.0449,3.0488,3.0781,3.0898,3.0898,0.0,0.0,0.0,0.0,0.0,0.0,0.0,0.0,0.0,0.0,0.0,0.0,0.0,0.0,0.0,0.0,0.0,0.0,0.2732,0.2771,0.2726,0.246,0.3302,0.4479,0.5962,0.7576,0.9411,1.1493,1.5683,1.7341,1.6529,1.6808,1.5821,1.3878,1.2339,1.1478,1.1015,1.0343,0.9859,0.9472,0.8991,0.8605,0.0,0.0,0.0,0.0,0.0,0.0,0.0,0.0,1.0383,0.0,0.0,0.0,0.0,1.3293,1.3659,1.3841,1.3612,1.4684,1.5936,0.0,0.0,0.0,0.0,0.0,0.0,0.0,0.0,0.0,0.0,0.0,0.0,0.0,3.7956,4.0403,4.0388,4.055,4.0403,3.9656,3.9679,3.9611,3.9476,3.9318,3.8867,3.8033,3.7807,3.748,3.6816,3.6326,3.5972,3.5972,3.4169,3.3094,3.3094,3.1659,3.0898,3.0898,3.3152,3.3735,3.2984,3.2559,3.1802,3.0664,3.0664,3.0605,3.0449,3.0137,3.0,3.0,3.0,3.0078,3.0215,3.041,3.0644,3.0859,0.0,0.0,0.0,0.0,0.0,0.0,0.0,0.0,0.0,0.0,0.0,0.0,0.0,0.0,0.0,0.0,0.0,0.0,0.2326,0.2415,0.246,0.2326,0.3343,0.4509,0.5766,0.7857,1.0194,1.2788,1.6067,1.6996,1.5661,1.5487,1.452,1.2822,1.1579,1.0859,1.0624,1.0592,1.012,0.9382,0.9153,0.8597,0.7865,0.0,0.0,0.0,0.0,0.0,0.0,0.0,1.0384,1.0271,0.0,0.0,0.0,1.3956,1.4019,1.4081,1.4826,1.4764,0.0,0.0,0.0,0.0,0.0,0.0,0.0,0.0,0.0,0.0,0.0,0.0,0.0,3.2875,3.5076,3.7081,3.8089,3.8627,3.894,3.894,3.9039,3.8957,3.8342,3.7988,3.7492,3.6859,3.5337,3.4421,3.4421,3.3075,3.2148,3.2148,3.1738,3.1504,3.1504,3.1094,3.0898,3.0879,3.041,3.043,3.0879,3.0879,3.0625,3.0195,3.0195,2.9961,2.957,2.957,2.957,2.9551,2.957,2.9824,3.0137,2.9726,3.0137,3.0762,0.0,0.0,0.0,0.0,0.0,0.0,0.0,0.0,0.0,0.0,0.0,0.0,0.0,0.0,0.0,0.0,0.0,0.0,0.246,0.237,0.2281,0.2107,0.2937,0.4095,0.5551,0.8858,1.1556,1.3553,1.5632,1.6039,1.4819,1.4759,1.406,1.2764,1.1597,1.0915,1.0613,1.0184,0.9597,0.8907,0.8158,0.7548,0.7101,0.0,0.0,0.0,0.0,0.0,0.0,0.0,0.0,0.0,0.0,0.0,0.0,1.3049,1.3553,1.4087,1.41,1.5401,0.0,0.0,0.0,0.0,0.0,0.0,0.0,0.0,0.0,3.0884,2.906,0.0,0.0,3.3215,3.4865,3.6769,3.7983,3.6837,3.555,3.4572,3.4409,3.4206,3.4063,3.394,3.3674,3.3085,3.2612,3.2255,3.1956,3.1486,3.1269,3.1269,3.1152,3.1074,3.1074,3.0957,3.0723,3.041,3.0254,3.0273,3.041,3.041,3.0156,2.9766,3.0059,2.9961,2.9551,2.9238,2.8945,2.8691,2.9004,2.918,2.9316,2.9512,2.9726,2.9922,0.0,0.0,0.0,0.0,0.0,0.0,0.0,0.0,0.0,0.0,0.0,0.0,0.0,0.0,0.0,0.0,0.0,0.0,0.0,0.2237,0.2107,0.2018,0.2773,0.4069,0.5962,0.8775,1.0913,1.2249,1.4239,1.4687,1.3779,1.3504,1.2836,1.1914,1.0958,1.0481,1.0339,0.9963,0.9437,0.8911,0.8016,0.7328,0.6724,0.0,0.0,0.0,0.0,0.0,0.0,0.0,0.0,0.0,0.0,0.0,0.0,1.2758,1.3407,1.4046,1.424,0.0,0.0,0.0,0.0,0.0,0.0,0.0,0.0,0.0,0.0,3.1436,3.0038,3.1918,0.0,3.2675,3.3455,3.4666,3.5746,3.4658,3.3195,3.2289,3.2012,3.1914,3.1914,3.1758,3.1543,3.1289,3.1269,3.1152,3.0898,3.0898,3.0898,3.0898,3.0703,3.0605,3.0605,3.0449,3.0215,2.9941,2.9766,2.9687,2.9687,2.9863,2.9707,2.9316,2.9394,2.9297,2.9043,2.8789,2.8516,2.832,2.8574,2.8769,2.8926,2.9023,2.8925,2.8709,0.0,0.0,0.0,0.0,0.0,0.0,0.0,0.0,0.0,0.0,0.0,0.0,0.0,0.0,0.0,0.0,0.0,0.0,0.0,0.0,0.1973,0.1973,0.2789,0.4293,0.6593,0.7822,0.889,0.9673,1.2146,1.317,1.2645,1.1861,1.1207,1.0654,0.998,0.9778,0.9877,0.9834,0.9534,0.9005,0.8401,0.7571,0.6645,0.6003,0.0,0.0,0.0,0.0,0.0,0.0,0.0,0.0,0.0,0.0,1.2166,1.2841,1.3314,1.3803,0.0,0.0,0.0,0.0,0.0,0.0,0.0,0.0,0.0,0.0,0.0,3.1268,3.0876,3.1176,3.1411,3.1388,3.1465,3.174,3.2332,3.2211,3.2031,3.1711,3.154,3.1465,3.1465,3.1113,3.0879,3.084,3.082,3.082,3.0762,3.0762,3.0762,3.0762,3.0351,3.0137,3.0137,2.9766,2.9551,2.9512,2.9101,2.8906,2.8867,2.9316,2.9297,2.8906,2.8476,2.8301,2.8301,2.8301,2.8301,2.8301,2.8301,2.8516,2.8809,2.8437,2.7876,2.7264,0.0,0.0,0.0,0.0,0.0,0.0,0.0,0.0,0.0,0.0,0.0,0.0,0.0,0.0,0.0,0.0,0.0,0.0,0.0,0.0,0.1794,0.1705,0.283,0.4087,0.5528,0.6811,0.788,0.8703,1.0771,1.1547,1.1008,1.0903,1.0746,1.0442,0.9998,0.9735,0.9649,0.9487,0.887,0.7959,0.7355,0.6642,0.5891,0.5441,0.5409,0.0,0.0,0.0,0.0,0.0,0.0,0.0,1.1336,1.1728,1.1761,1.1876,1.2444,1.3286,0.0,1.6474,0.0,0.0,0.0,0.0,0.0,0.0,0.0,2.8794,3.0036,3.1305,3.0585,3.0988,3.1406,3.1035,3.1035,3.1055,3.129,3.1172,3.1152,3.1015,3.1074,3.1035,3.1035,3.0937,3.0742,3.0371,3.0351,3.0195,2.9883,2.9844,2.9844,2.9844,2.9766,2.9707,2.9707,2.9609,2.9394,2.9062,2.8965,2.875,2.8437,2.8867,2.9004,2.8906,2.8476,2.8301,2.8301,2.8301,2.8301,2.8301,2.8301,2.834,2.8418,2.832,2.7498,2.639,0.0,0.0,0.0,0.0,0.0,0.0,0.0,0.0,0.0,0.0,0.0,0.0,0.0,0.0,0.0,0.0,0.0,0.0,0.0,0.0,0.1928,0.2014,0.305,0.3994,0.4799,0.5989,0.6929,0.7602,0.8923,0.0,0.0,0.0,0.9794,0.9794,0.9381,0.9132,0.9048,0.877,0.8238,0.753,0.6888,0.6307,0.5685,0.5237,0.5296,0.5642,0.5936,0.0,0.0,0.0,0.0,0.0,0.0,0.0,1.114,1.1321,1.1797,1.2672,0.0,0.0,0.0,0.0,0.0,0.0,0.0,0.0,3.0054,2.9115,3.003,3.0858,3.0636,3.064,3.0586,3.0566,3.0391,3.0407,3.0869,3.0695,3.0407,3.0254,3.0603,3.0856,3.0566,3.0762,3.0703,3.0234,3.0195,3.0019,2.959,2.957,2.957,2.957,2.9375,2.9258,2.9258,2.8867,2.8555,2.832,2.8105,2.7554,2.6816,2.7786,2.8437,2.8594,2.8184,2.8105,2.8301,2.8301,2.8301,2.8262,2.8066,2.8125,2.8155,2.7264,2.61,2.5041,0.0,0.0,0.0,0.0,0.0,0.0,0.0,0.0,0.0,0.0,0.0,0.0,0.0,0.0,0.0,0.0,0.0,0.0,0.0,0.0,0.0,0.246,0.3296,0.3913,0.4299,0.5384,0.619,0.6624,0.0,0.0,0.0,0.0,0.0,0.9024,0.8627,0.8446,0.8357,0.8044,0.7697,0.7349,0.6774,0.6221,0.575,0.5241,0.5328,0.5717,0.5793,0.6435,0.7223,0.7433,0.0,0.0,0.0,0.0,1.0438,1.0963,1.1305,1.1978,0.0,0.0,0.0,0.0,0.0,0.0,0.0,0.0,2.9551,2.9473,2.9805,3.0215,3.0586,3.0059,2.9687,3.0039,2.9805,2.9852,3.061,3.0175,2.9852,2.957,3.0187,3.0517,3.0098,3.043,3.0469,3.0019,2.998,2.9785,2.9375,2.9355,2.9316,2.9238,2.8887,2.8672,2.8594,2.791,2.7559,2.7539,2.6962,2.5947,2.4664,2.6124,2.7008,2.7389,2.7046,2.7209,2.7728,2.7728,2.7854,2.8047,2.7544,2.7535,2.7592,2.5756,2.4436,2.3375,0.0,0.0,0.0,0.0,0.0,0.0,0.0,0.0,0.0,0.0,0.0,0.0,0.0,0.0,0.0,0.0,0.0,0.0,0.0716,0.0,0.0,0.2326,0.3341,0.3906,0.3949,0.5168,0.6023,0.6429,0.0,0.0,0.0,0.0,0.0,0.8348,0.0,0.0,0.7961,0.7795,0.7447,0.7056,0.6774,0.6349,0.575,0.5318,0.5404,0.5793,0.591,0.652,0.725,0.7685,0.8136,0.0,0.0,0.0,0.981,1.0423,1.0809,1.1507,0.0,0.0,0.0,0.0,0.0,0.0,0.0,0.0,2.9453,0.0,2.9355,2.9668,2.9726,2.9648,2.959,2.9648,2.9609,2.9702,2.9721,2.9551,2.94,2.957,2.9478,2.9497,2.9648,2.9707,2.957,2.9121,2.9082,2.8906,2.8476,2.8457,2.8301,2.793,2.7871,2.7656,2.7266,2.7168,2.7109,2.7109,2.5863,2.4542,2.3157,2.3114,2.3286,2.3627,2.3593,2.4228,2.5454,2.5454,2.6097,2.7104,2.6101,2.57,2.5666,2.4429,2.3103,2.1926,0.0,0.0,0.0,0.0,0.0,0.0,0.0,0.0,0.0,0.0,0.0,0.0,0.0,0.0,0.0,0.1069,0.125,0.125,0.0848,0.1832,0.242,0.2504,0.3473,0.4001,0.4001,0.5014,0.5717,0.0,0.0,0.0,0.0,0.7941,0.8247,0.0,0.0,0.0,0.0,0.0,0.7188,0.6689,0.652,0.6093,0.562,0.5448,0.5534,0.5836,0.6081,0.6605,0.7237,0.7531,0.8034,0.8578,0.8837,0.0,0.0,0.0,1.0179,0.0,1.4039,0.0,0.0,0.0,0.0,0.0,2.707,0.0,2.8086,2.7891,2.8008,2.8281,2.8769,2.8672,2.8574,2.8809,2.8457,2.8223,2.833,2.8516,2.8623,2.8349,2.8906,2.9199,2.9199,2.9434,2.9297,2.8613,2.8574,2.8281,2.7617,2.7578,2.75,2.7305,2.7305,2.6879,2.5928,2.6352,2.6121,2.5151,2.2963,2.1619,2.0992,2.0121,2.086,2.2838,2.2639,2.3513,2.4977,2.4123,2.4664,2.5722,2.428,2.3891,2.4127,2.2365,2.1539,2.1175,0.0,0.0,0.0,0.0,0.0,0.0,0.0,0.0,0.0,0.0,0.0,0.0,0.0,0.0,0.0,0.0,0.1116,0.1294,0.1517,0.2233,0.2732,0.2821,0.3612,0.4052,0.4001,0.4851,0.5528,0.0,0.0,0.0,0.7722,0.7771,0.8224,0.0,0.8616,0.0,0.0,0.0,0.0,0.0,0.63,0.5964,0.562,0.5577,0.5707,0.6,0.6233,0.6778,0.7328,0.7349,0.7831,0.8444,0.8371,0.8581,0.0,0.0,0.0,1.0805,0.0,0.0,0.0,0.0,0.0,0.0,0.0,0.0,2.6523,2.6523,2.6621,2.6816,2.7226,2.7422,2.7598,2.791,2.7441,2.7109,2.7299,2.7643,2.7786,2.7357,2.8066,2.8584,2.8437,2.875,2.878,2.8008,2.7949,2.7513,2.6894,2.6953,2.6914,2.6699,2.6797,2.6168,2.4669,2.4913,2.4189,2.2391,2.0389,1.9184,1.8877,1.7943,1.8941,2.1481,2.1217,2.2116,2.3514,2.2468,2.2888,2.4015,2.2374,2.2128,2.2317,2.0405,2.0026,2.0294,0.0,0.0,0.0,0.0,0.0,0.0,0.0,0.0,0.0,0.0,0.0,0.0,0.2821,0.2732,0.2233,0.1158,0.1746,0.2286,0.2593,0.2687,0.2865,0.317,0.3656,0.0,0.3744,0.4752,0.0,0.0,0.0,0.0,0.8799,0.838,0.8689,0.9543,0.8657,0.8143,0.7898,0.0,0.0,0.0,0.0,0.6105,0.5933,0.5761,0.5991,0.6384,0.6446,0.6988,0.7636,0.7314,0.7573,0.8047,0.8165,0.8327,0.861,0.0,0.0,0.0,0.0,0.0,0.0,0.0,0.0,0.0,0.0,0.0,2.5176,2.5176,2.5508,2.5566,2.4766,2.5957,2.7051,2.707,2.7051,2.7012,2.7051,2.7051,2.7051,2.7051,2.709,2.7109,2.7109,2.7393,2.7412,2.709,2.6807,2.6613,2.6445,2.6797,2.6641,2.582,2.6211,2.5595,2.3755,2.224,2.0589,1.8996,1.8799,1.8108,1.6854,1.715,1.7284,1.7531,1.7698,1.8646,1.9879,1.9776,2.0585,2.1742,2.0631,2.0257,2.0104,1.9015,1.8601,1.8615,0.0,0.0,0.0,0.0,0.0,0.0,0.0,0.0,0.0,0.0,0.0,0.0,0.0,0.1739,0.165,0.0802,0.16,0.2135,0.2135,0.3021,0.3442,0.322,0.3708,0.3896,0.37,0.4405,0.0,0.0,0.0,0.6728,0.809,0.796,0.8436,0.9441,0.9275,0.8849,0.8362,0.8213,0.0,0.0,0.0,0.0,0.0,0.0,0.0,0.0,0.0,0.0,0.9447,1.027,1.0238,0.9867,1.0027,0.9299,0.855,0.9314,0.996,1.0809,0.0,0.0,0.0,0.0,1.9406,2.0805,2.224,2.3047,2.3635,2.418,2.4375,2.4473,2.4414,2.5156,2.5762,2.5762,2.5527,2.5449,2.5723,2.5762,2.5762,2.5762,2.6269,2.6602,2.6602,2.6976,2.7058,2.6765,2.6606,2.627,2.552,2.5254,2.4966,2.4902,2.4259,2.3281,2.1844,1.946,1.8464,1.8641,1.7867,1.7186,1.6714,1.682,1.686,1.6874,1.6967,1.7932,1.9314,1.8409,1.8818,1.9922,1.8743,1.8415,1.8548,1.7041,1.6696,1.671,0.0,0.0,0.0,0.0,0.0,0.0,0.0,0.0,0.0,0.0,0.0,0.0,0.0,0.0,0.2091,0.1531,0.2447,0.2906,0.2733,0.3752,0.4204,0.377,0.3858,0.3911,0.3947,0.4338,0.0,0.0,0.0,0.0,0.0,0.7743,0.8166,0.8977,0.9275,0.9142,0.0,0.0,0.0,0.7034,0.0,0.0,0.6672,0.0,0.0,0.0,0.0,0.0,0.0,1.1751,1.1378,1.0597,1.0589,0.9674,0.8791,0.9434,0.9819,1.0399,1.2114,0.0,0.0,0.0,0.0,1.8714,2.0442,2.1167,2.174,2.2727,2.294,2.3105,2.3672,2.4023,2.4355,2.4785,2.4609,2.4512,2.4805,2.4844,2.4844,2.4844,2.5371,2.5723,2.5723,2.6094,2.6192,2.6008,2.5295,2.464,2.3817,2.3261,2.3037,2.3168,2.1925,2.0903,2.0006,1.7709,1.6993,1.7746,1.6785,1.6406,1.642,1.6513,1.6355,1.5944,1.6047,1.6894,1.8283,1.7401,1.759,1.8182,1.6879,1.66,1.6711,1.5211,1.4748,1.4775,0.0,0.0,0.0,0.0,0.0,0.0,0.0,0.0,0.0,0.0,0.0,0.0,0.0,0.0,0.0,0.3574,0.4348,0.4734,0.4561,0.4898,0.5037,0.4907,0.4208,0.401,0.4405,0.4576,0.0,0.0,0.0,0.0,0.0,0.0,0.7863,0.8151,0.8624,0.8843,0.872,0.0,0.7091,0.6426,0.0,0.6657,0.7323,0.0,0.0,0.0,1.2976,1.3116,0.0,1.1623,1.0801,1.0017,0.9655,0.9388,0.9313,0.9773,0.9786,0.0,0.0,0.0,0.0,0.0,0.0,0.0,1.8099,1.9013,1.9678,2.0832,2.112,2.1445,2.2285,2.2461,2.2891,2.4121,2.4355,2.4375,2.4375,2.4283,2.4283,2.4283,2.4302,2.4302,2.4302,2.4677,2.4901,2.4789,2.2777,2.1591,2.1476,2.0985,2.0729,2.0729,1.9392,1.8559,1.8258,1.6926,1.6112,1.5724,1.5724,1.5737,1.5737,1.6029,1.5452,1.426,1.4619,1.5444,1.6587,1.6587,1.6587,1.6487,1.5254,1.4749,1.4671,1.3466,1.3026,1.3056,0.0,0.0,0.0,0.0,0.0,0.0,0.0,0.0,0.0,0.0,0.0,0.0,0.2455,0.3202,0.3946,0.4792,0.5061,0.5282,0.5634,0.5491,0.5386,0.5349,0.4857,0.4564,0.4462,0.4641,0.0,0.0,0.0,0.0,0.0,0.0,0.0,0.0,0.7954,0.7795,0.7714,0.7807,0.0,0.0,0.7297,0.7746,0.0,0.0,0.0,0.0,0.0,1.4114,1.4385,0.0,1.3281,1.2073,0.0,0.0,0.0,0.0,0.0,0.0,1.0831,0.0,0.0,0.0,0.0,0.0,1.6874,1.726,1.7712,1.9008,1.9715,2.0217,2.0586,2.1152,2.1699,2.2051,2.2891,2.3496,2.3496,2.2744,2.2187,2.2187,2.2464,2.2649,2.2649,2.3779,2.4021,2.2649,2.1913,2.0945,1.9314,1.9586,1.9423,1.8597,1.8142,1.753,1.651,1.6143,1.5421,1.4459,1.4459,1.3884,1.3017,1.3083,1.2921,1.2531,1.2692,1.3248,1.4103,1.3734,1.3579,1.3579,1.3947,1.4286,1.4367,1.3237,1.2975,1.288,0.0,0.0,0.0,0.0,0.0,0.0,0.0,0.0,0.0,0.0,0.0,0.0,0.4068,0.4718,0.5464,0.6328,0.6389,0.6425,0.6654,0.6342,0.6081,0.5888,0.5585,0.5228,0.4863,0.4864,0.5056,0.0,0.0,0.0,0.0,0.0,0.0,0.0,0.0,0.0,0.0,0.0,0.0,0.0,0.7401,0.0,0.0,1.1734,1.2892,0.0,0.0,0.0,1.6667,1.5186,1.3776,0.0,0.0,0.0,0.0,0.0,0.0,0.0,0.0,0.0,0.0,0.0,0.0,0.0,1.5422,1.5708,1.6049,1.7259,1.8303,1.9108,1.9487,2.0605,2.1345,2.0828,2.1556,2.2064,2.1873,2.125,2.0709,2.0184,2.0394,2.0622,2.0779,2.1626,2.1935,2.126,2.0474,1.9201,1.7379,1.7717,1.7669,1.6951,1.6358,1.5792,1.5045,1.4472,1.3788,1.3102,1.3102,1.2619,1.195,1.2273,1.2088,1.1394,1.1717,1.1541,1.0959,0.9498,1.0228,1.2282,1.2762,1.2435,1.1484,0.9737,0.9257,0.9057,0.0,0.0,0.0,0.0,0.0,0.0,0.0,0.0,0.0,0.0,0.0,0.5304,0.641,0.6894,0.7336,0.7745,0.7741,0.7645,0.7545,0.7286,0.6906,0.6508,0.6283,0.5898,0.5371,0.5215,0.5324,0.5707,0.0,0.0,0.0,0.0,0.0,0.0,0.0,0.0,0.0,0.0,0.0,0.7591,0.7176,0.827,0.0,0.0,1.5075,1.5729,1.783,1.8683,1.8285,1.5171,1.3042,0.0,0.0,0.0,0.0,0.0,0.9703,0.0,0.0,0.0,0.0,0.0,1.1969,0.0,1.3835,1.4247,1.4545,1.5576,1.6881,1.799,1.862,2.0232,2.1101,1.9931,2.019,2.0366,1.9985,1.9817,1.9396,1.8377,1.8291,1.844,1.8803,1.8924,1.9318,2.0218,1.855,1.6936,1.5629,1.5629,1.5534,1.5343,1.4268,1.368,1.368,1.263,1.196,1.1765,1.1873,1.1765,1.1473,1.2314,1.1639,0.9937,1.0375,0.9283,0.6959,0.4522,0.6299,1.06,1.0573,0.9145,0.6708,0.4082,0.3084,0.278,0.2109,0.0,0.0,0.0,0.0,0.0,0.0,0.0,0.0,0.0,0.0,0.0,0.0,0.7082,0.7111,0.7661,0.7333,0.7289,0.7889,0.7436,0.7146,0.705,0.6602,0.6171,0.5887,0.5535,0.5659,0.6237,0.0,0.0,0.0,0.0,0.0,0.0,0.0,0.0,0.0,0.0,0.0,0.7723,0.8385,0.0,1.2838,1.3932,1.5263,1.6517,1.6047,1.6121,1.6118,1.4113,1.2833,1.1929,0.0,0.0,0.0,1.0604,0.0,0.0,0.0,0.0,0.0,0.0,0.0,0.0,1.2315,1.2721,1.3064,1.4018,1.5309,1.6417,1.6883,1.8027,1.8537,1.7726,1.8083,1.8417,1.8232,1.7368,1.6625,1.6459,1.6459,1.6514,1.6854,1.7738,1.8288,1.7869,1.6793,1.5615,1.4364,1.4268,1.3788,1.2727,1.2436,1.2328,1.2328,1.2694,1.2227,1.0842,1.1589,1.0789,0.877,0.8977,0.7646,0.5214,0.3199,0.1999,0.1503,0.1,0.1397,0.2292,0.2298,0.1999,0.1198,-0.1406,-0.2418,-0.2521,0.2584,0.0,0.0,0.0,0.0,0.0,0.0,0.0,0.0,0.0,0.0,0.0,0.0,0.0,0.0,0.8451,0.7918,0.7903,0.8788,0.7949,0.7481,0.7685,0.7203,0.6614,0.6062,0.5838,0.5845,0.5991,0.0,0.0,0.0,0.0,0.0,0.0,0.0,0.0,0.0,0.0,0.713,0.8172,0.8543,0.0,1.294,1.3729,1.4958,1.6154,1.5564,1.5063,1.4621,1.4209,1.3228,0.0,1.16,1.1121,1.0825,0.0,1.0764,1.0857,0.0,0.0,0.0,1.1118,0.0,0.0,0.0,1.1772,1.2093,1.2816,1.4224,1.5463,1.5983,1.7424,1.817,1.7186,1.6835,1.626,1.4982,1.5012,1.4963,1.4424,1.4202,1.4288,1.4693,1.5457,1.597,1.6074,1.5101,1.4254,1.359,1.3017,1.2625,1.2416,1.1527,1.1345,1.1879,1.1009,0.9485,0.7324,0.6388,0.5232,0.4055,0.3993,0.3307,0.1902,-0.08,-0.3501,-0.5907,-0.5649,-0.594,-0.6366,-0.4706,-0.4014,-0.431,-0.693,-0.7945,-0.8045,0.3149,0.0,0.0,0.0,0.0,0.0,0.0,0.0,0.0,0.0,0.0,0.0,0.0,0.0,0.0,0.0,0.8691,0.8607,0.0,0.8538,0.8006,0.8221,0.7774,0.7102,0.6236,0.615,0.6057,0.5901,0.0,0.0,0.0,0.0,0.0,0.0,0.0,0.0,0.0,0.0,0.0,0.8766,0.0,1.0431,1.2675,1.3719,1.4647,1.5374,1.5256,1.4543,1.3791,1.433,1.377,1.2543,1.1619,1.1419,0.0,0.0,0.0,0.0,0.0,0.0,0.0,0.0,0.0,1.0507,0.0,0.0,0.0,1.185,1.3395,1.4765,1.5339,1.704,1.8058,1.6949,1.5889,1.4394,1.2158,1.2736,1.3051,1.2171,1.1917,1.2018,1.2674,1.3013,1.347,1.4102,1.3416,1.2925,1.2609,1.1925,1.1301,1.0924,0.9247,0.8777,0.9636,0.7577,0.5422,0.3222,0.0576,-0.0966,-0.1451,-0.148,-0.179,-0.2384,-0.4384,-0.7793,-1.2041,-1.1596,-1.2055,-1.2866,-0.9993,-0.8847,-0.8969,-1.1095,-1.1915,-1.2003,0.3843,0.2956,0.0,0.0,0.0,0.0,0.0,0.0,0.0,0.9024,0.0,0.0,0.0,0.0,0.0,0.0,0.0,0.0,0.9199,0.0,0.8938,0.831,0.8071,0.7503,0.6669,0.6303,0.6449,0.7106,0.0,0.0,0.0,0.0,0.0,0.0,0.5684,0.0,0.0,0.0,0.8036,0.0,1.1179,1.2677,0.0,1.4525,1.4732,1.4634,1.3746,1.3696,1.4032,0.0,1.3938,1.4168,0.0,1.2693,1.2706,1.1738,0.0,0.0,0.0,0.0,0.0,0.0,1.0364,0.0,0.9989,0.0,1.088,1.0995,0.0,1.415,1.4527,0.0,0.0,1.5978,1.4638,1.3251,1.2133,1.0685,0.9691,0.9426,0.9797,1.0296,1.093,1.1409,1.1579,1.112,1.194,1.1839,1.041,1.1129,0.9129,0.4065,0.2263,0.1508,0.1698,0.1321,0.1038,0.066,-0.1896,-0.4478,-0.6703,-0.6937,-0.8376,-1.0554,-0.9711,-1.0674,-1.2606,-1.2525,-1.2564,-1.2711,-1.2299,-1.1839,-1.1473,-1.1765,-1.1873,-1.1873,0.5846,0.5085,0.0,0.0,0.0,0.0,0.0,0.0,0.0,0.9425,0.0,0.0,0.0,0.0,0.0,0.0,0.0,1.0484,0.0,0.0,0.0,1.0967,0.9334,0.8141,0.7486,0.72,0.7092,0.7153,0.6932,0.0,0.0,0.0,0.0,0.0,0.6201,0.0,0.6564,0.0,0.9085,0.0,0.0,1.2799,0.0,1.3978,1.4185,1.3746,1.3319,1.3373,1.3507,0.0,1.3525,0.0,0.0,0.0,0.0,1.2187,0.0,0.0,0.0,0.0,0.0,0.0,0.0,0.0,1.0058,0.0,1.0605,1.0961,0.0,0.0,0.0,0.0,0.0,0.0,1.5708,1.4531,1.386,1.137,0.9429,0.8862,0.8749,0.8837,0.9412,0.9349,0.9764,1.0881,1.01,0.8398,0.5883,0.5161,0.3688,0.1184,-0.1269,-0.365,-0.5942,-0.6037,-0.5986,-0.6076,-0.7745,-0.9125,-1.0186,-0.9894,-1.0444,-1.1412,-1.1528,-1.2433,-1.3811,-1.4343,-1.5094,-1.5906,-1.5743,-1.4903,-1.3848,-1.476,-1.5119,-1.5308,0.8359,0.0,0.0,0.0,0.0,0.0,0.0,0.0,0.0,0.0,0.0,0.0,1.1423,1.0634,0.0,0.0,1.2988,1.3155,0.0,0.0,1.2476,0.0,0.0,0.0,0.0,0.8553,0.8097,0.7344,0.0,0.0,0.0,0.0,0.0,0.0,0.0,0.6564,0.667,0.0,0.9892,1.0349,1.2879,1.3341,1.2596,1.3307,1.3418,1.3066,1.2986,1.3066,1.316,1.2929,1.3269,1.3671,1.2666,1.2891,1.33,0.0,0.0,0.0,1.2016,0.0,0.0,0.0,0.0,1.0876,1.0306,1.0229,1.0396,1.0741,1.1674,0.0,0.0,0.0,1.6609,1.7934,0.0,1.4816,1.4554,1.1307,0.8801,0.8497,0.777,0.7415,0.7659,0.7134,0.7244,0.8492,0.677,0.4516,0.2034,-0.094,-0.2512,-0.2549,-0.5078,-0.7811,-1.0542,-1.0932,-1.1068,-1.1068,-1.2133,-1.2587,-1.2587,-1.1801,-1.1876,-1.2484,-1.2921,-1.3989,-1.55,-1.6354,-1.7546,-1.8834,-1.9076,-1.8482,-1.7573,-1.7763,-1.7873,-1.7995,1.1455,0.877,0.0,0.0,0.0,0.0,0.0,0.0,0.0,0.0,0.0,0.0,0.0,0.0,0.0,0.0,0.0,1.6395,1.5692,0.0,1.4407,0.0,0.0,1.235,0.0,0.0,0.9572,0.8261,0.0,0.0,0.0,0.0,0.0,0.0,0.0,0.6304,0.785,0.8543,1.0013,1.2019,1.4261,1.5117,1.488,0.0,1.2453,1.2795,1.2438,1.2705,1.316,1.2929,1.3402,1.3963,1.2856,1.3518,1.4347,0.0,0.0,0.0,1.2002,1.2236,1.2482,1.1699,1.158,1.1439,1.0501,1.0317,1.0272,1.0071,1.1601,1.314,1.3528,1.5221,0.0,0.0,0.0,0.0,0.0,0.9388,0.6905,0.7682,0.6607,0.5665,0.5518,0.4879,0.373,0.1999,0.1088,0.0503,0.0084,-0.5735,-0.8965,-0.893,-1.0288,-1.0879,-1.0626,-1.1594,-1.2155,-1.2155,-1.331,-1.3811,-1.3824,-1.2856,-1.3671,-1.5815,-1.4647,-1.5533,-1.7795,-1.8556,-1.9492,-2.0508,-2.1978,-2.3118,-2.3535,-2.0022,-1.8774,-1.884,0.0,0.0,0.0,0.0,0.0,0.0,0.0,1.0086,0.0,0.0,0.0,0.0,0.0,1.7417,1.8312,0.0,0.0,1.9298,1.9393,1.8355,0.0,0.0,0.0,1.4577,0.0,0.0,0.0,0.0,0.0,0.0,0.0,0.0,0.0,0.0,0.0,0.6865,0.0,0.0,0.0,0.0,0.0,1.2709,1.2438,1.2322,1.2302,1.2438,1.2345,1.2438,1.2599,1.2492,1.3535,1.4624,1.3338,1.4296,1.5626,1.395,1.3614,1.3678,1.3134,1.2858,1.2615,1.1903,1.1673,1.1431,1.0499,1.0401,1.0421,1.0127,1.1268,1.2661,1.3641,0.0,0.0,0.0,0.0,1.4501,0.0,0.9142,0.586,0.4801,0.468,0.4289,0.3494,0.2231,0.1081,0.0246,-0.1096,-0.2804,-0.5256,-0.8487,-1.0295,-1.0317,-1.2544,-1.3669,-1.349,-1.4846,-1.5539,-1.5539,-1.595,-1.6114,-1.6129,-1.5824,-1.6133,-1.6892,-1.722,-1.8181,-1.9622,-2.0605,-2.1542,-2.252,-2.3014,-2.3475,-2.3705,-2.3408,-2.3266,-2.341,1.3346,0.0,0.0,0.0,0.0,0.0,0.0,0.0,0.0,0.0,1.4435,0.0,1.856,0.0,2.1638,0.0,2.2535,2.2203,2.1757,2.0761,0.0,1.9687,1.854,0.0,0.0,0.0,0.0,0.0,0.0,0.9229,0.0,0.0,0.0,0.0,0.0,0.6751,0.7045,0.9215,1.0419,0.0,0.0,1.1866,0.0,1.2133,1.2231,1.2207,1.2297,1.2305,1.2305,1.2305,1.323,1.4308,1.3404,1.4597,1.5965,1.4421,1.4242,1.4333,1.3372,1.3096,1.2886,1.2133,1.2059,1.1772,1.0483,1.0168,1.0119,0.9956,1.1089,1.2574,1.4129,1.6198,0.0,0.0,0.0,0.0,0.0,0.7517,0.4728,0.3027,0.3223,0.3046,0.1608,0.0334,-0.0848,-0.1809,-0.2971,-0.4784,-0.7527,-0.9676,-1.1169,-1.1917,-1.4528,-1.5982,-1.6031,-1.8005,-1.8788,-1.8426,-1.9122,-1.9496,-1.9496,-1.9085,-1.9182,-1.9496,-1.9906,-2.0584,-2.1576,-2.2242,-2.3158,-2.4036,-2.4036,-2.4253,-2.4609,-2.4934,-2.5352,-2.5847,0.0,0.0,0.0,0.0,1.1459,0.0,0.0,0.0,1.23,0.0,1.5061,1.8499,1.9277,2.2162,2.4523,2.5742,2.582,2.4902,2.2812,2.2122,0.0,0.0,2.0232,1.9192,1.7689,0.0,0.0,0.0,0.0,0.0,0.0,0.0,0.0,0.0,0.5465,0.0,0.6633,0.8403,0.9801,1.0803,1.1765,1.2656,1.3341,1.2426,1.2064,1.1988,1.2205,1.2305,1.2305,1.2278,1.2669,1.312,1.3105,1.4405,1.5493,1.3716,1.4104,1.4728,1.2865,1.2928,1.3334,1.2444,1.2497,1.229,1.0275,0.961,0.9425,0.9562,1.0989,1.289,1.4976,1.7116,1.8757,0.0,0.0,0.0,0.6278,0.4688,0.3608,0.2353,0.2322,0.1717,-0.0167,-0.092,-0.2177,-0.4277,-0.4869,-0.5667,0.0,-0.9597,-1.1924,-1.3933,-1.6456,-1.7933,-1.8181,-2.0702,-2.1494,-2.0584,-2.2595,-2.3526,-2.3452,-2.2434,-2.2509,-2.3408,-2.2434,-2.2583,-2.3531,-2.3576,-2.4181,-2.504,-2.5063,-2.5652,-2.6377,-2.5001,-2.5269,-2.6395,1.4706,1.3791,1.2972,0.0,1.1476,1.1096,0.0,0.0,0.0,0.0,1.7419,2.0686,2.1745,2.5619,2.7863,2.7246,2.6875,0.0,0.0,0.0,0.0,2.2559,2.2707,2.1503,1.8843,1.7586,0.0,1.333,0.0,0.0,0.8175,0.0,0.0,0.0,0.0,0.0,0.6586,0.8354,1.0001,1.1462,1.2003,1.2298,1.2374,1.2283,1.212,1.1988,1.2205,1.2305,1.2265,1.2051,1.2558,1.3284,1.3707,1.4412,1.4968,1.4763,1.4453,1.3909,1.3099,1.2784,1.2417,1.144,1.1211,1.0823,0.9219,0.8857,0.8964,0.9512,1.0415,1.2226,1.5762,1.5938,1.5791,0.0,0.0,0.0,0.0,0.3976,0.3374,0.1963,0.0552,-0.0476,-0.0957,-0.3021,-0.4713,-0.5675,-0.8023,-0.9467,-0.9683,-1.2928,-1.4887,-1.528,-1.791,-1.9877,-2.0949,-2.1941,-2.2615,-2.2744,-2.3283,-2.3526,-2.3526,-2.3187,-2.2988,-2.2916,-2.3032,-2.3221,-2.3397,-2.4237,-2.4895,-2.55,-2.5921,-2.662,-2.7468,-2.7915,-2.8679,-2.9565,1.5412,0.0,0.0,1.2471,0.0,0.0,1.3106,1.3492,0.0,1.6235,2.0605,0.0,2.299,2.6943,2.9062,2.7773,2.7266,0.0,2.5801,0.0,0.0,2.3477,2.3477,2.2418,2.0085,1.8227,0.0,1.4168,0.0,0.0,0.8059,0.0,0.0,0.0,0.0,0.6113,0.6739,0.8718,1.0164,1.1349,1.1967,1.2171,0.0,1.217,1.217,1.2132,1.2276,1.2305,1.2265,1.1971,1.2501,1.3269,1.3411,1.3993,1.4577,1.4379,1.4033,1.3476,1.2367,1.1866,1.1391,1.0421,1.0132,0.9708,0.8333,0.8088,0.8337,0.9186,1.0093,1.1619,1.4504,1.5001,1.4552,0.0,0.0,0.0,0.0,0.0,0.2969,0.1314,-0.0077,-0.154,-0.3213,-0.5325,-0.7057,-0.8005,-1.0327,-1.1689,-1.1702,-1.4324,-1.5895,-1.6156,-1.8723,-2.0421,-2.1198,-2.3,-2.3863,-2.3668,-2.4826,-2.5344,-2.5344,-2.5424,-2.5333,-2.4994,-2.4905,-2.4725,-2.4524,-2.5326,-2.561,-2.5703,-2.6688,-2.7537,-2.8406,-2.9789,-3.0349,-3.0563,1.5993,0.0,0.0,0.0,0.0,0.0,0.0,1.707,0.0,1.9434,0.0,2.5775,2.3727,2.7112,2.9101,2.793,0.0,2.6758,2.5957,2.5488,2.4824,2.3906,2.3516,2.2676,2.1348,1.877,1.6477,0.0,0.0,0.0,0.0,0.0,0.0,0.0,0.0,0.0,0.0,0.9255,1.0384,1.0895,1.1787,1.2171,1.2171,1.2171,1.2231,1.2305,1.2305,1.2305,1.2265,1.1971,1.236,1.2936,1.2794,1.3431,1.4008,1.3374,1.3243,1.2924,1.123,1.0708,1.0335,0.9367,0.9074,0.8788,0.7641,0.7311,0.7681,0.8714,0.9696,1.0887,1.2508,1.4033,1.3844,0.0,0.8196,0.627,0.399,0.0,0.0,0.0,-0.0379,0.0,-0.5761,-0.7151,-0.8718,-1.0597,-1.2179,-1.3095,-1.3107,-1.4816,-1.598,-1.6332,-1.8841,-2.0312,-2.0661,-2.3779,-2.5031,-2.4296,-2.6515,-2.7591,-2.771,-2.8012,-2.8112,-2.7968,-2.722,-2.6469,-2.5818,-2.6228,-2.6123,-2.5703,-2.7025,-2.8179,-2.9184,-3.0511,-3.0826,-3.0717,0.0,0.0,0.0,0.0,0.0,1.6163,2.1812,1.969,1.8473,2.1492,2.4526,2.6208,2.5878,2.8052,2.9336,2.875,2.7988,0.0,0.0,0.0,0.0,2.4355,2.4238,2.3437,2.1816,1.9659,1.7389,0.0,0.0,0.0,0.0,0.0,0.0,0.0,0.0,0.0,0.838,0.9466,0.0,1.1581,1.2104,1.2236,1.2236,1.2236,1.2271,1.2305,1.2305,1.2305,1.2265,1.1971,1.2006,1.2205,1.2991,1.2796,1.2544,1.3373,1.2517,1.123,1.0858,1.0185,0.9291,0.8313,0.8084,0.777,0.6758,0.6521,0.6827,0.7812,0.8174,0.9231,1.2291,1.2532,1.1218,0.7894,0.6498,0.5179,0.3452,0.1875,0.0,0.0,-0.1869,-0.4037,-0.6263,-0.6352,-0.8136,-1.2441,-1.4065,-1.4442,-1.365,-1.6328,-1.7054,-1.5235,-1.7908,-2.0552,-2.3077,-2.3891,-2.5061,-2.6648,-2.693,-2.7261,-2.7736,-2.8447,-2.856,-2.8152,-2.7906,-2.685,-2.5368,-2.5808,-2.582,-2.5678,-2.6583,-2.7739,-2.9073,-2.948,-3.0717,-3.2277,0.0,0.0,0.0,0.0,0.0,0.0,0.0,2.2985,2.3278,2.5509,2.6873,2.7479,2.7084,2.8571,2.9316,2.8652,2.7812,2.7246,2.7031,2.6191,2.5312,2.4453,2.4199,2.3496,2.2246,2.013,1.7848,1.5442,0.0,0.0,0.0,0.0,0.0,0.0,0.0,0.745,0.0,0.0,1.0682,1.0772,1.1352,1.1242,1.072,1.072,1.072,1.072,1.072,1.1093,1.1575,1.1814,1.1971,1.2064,1.1891,1.1585,1.1363,1.1415,1.0783,0.997,0.9614,0.917,0.8493,0.735,0.7042,0.6887,0.6423,0.6268,0.6578,0.7557,0.7949,0.8714,1.0863,1.0005,0.8213,0.557,0.496,0.4047,0.1957,-0.0078,-0.1391,0.0,0.0,0.0,-0.8049,-0.6633,-0.7833,-1.322,-1.5242,-1.6412,-1.6631,-1.7554,-1.7708,-1.6806,-1.8062,-1.9313,-2.0541,-2.3144,-2.4755,-2.5505,-2.7171,-2.8348,-2.9066,-2.9533,-2.9871,-2.9896,-2.8711,-2.7653,-2.6861,-2.5867,-2.5827,-2.639,-2.6827,-2.7666,-2.8788,-3.0039,-3.1171,-3.2168,0.0,1.5751,0.0,0.0,1.7689,1.9898,2.3353,2.5733,2.7635,2.9147,2.9258,2.8945,2.8281,2.8945,2.916,2.8496,2.7656,2.7109,2.7031,2.5879,2.498,2.4434,2.4004,2.3398,2.2539,2.0566,1.8406,0.0,0.0,1.0724,0.8666,0.0,0.0,0.0,0.0,0.0,0.8827,1.0571,1.0808,1.0143,1.064,1.0196,0.9301,0.9301,0.9301,0.9301,0.9301,0.982,1.0536,1.1155,1.1741,1.2117,1.084,1.0619,1.0559,0.9593,0.915,0.8856,0.8435,0.806,0.7512,0.5964,0.5652,0.5652,0.564,0.5964,0.6507,0.7334,0.6984,0.6781,0.7491,0.6357,0.4925,0.3553,0.3549,0.2995,0.1095,-0.132,-0.2918,0.0,0.0,0.0,-0.8768,-0.6857,-0.7789,-1.3267,-1.5638,-1.7336,-1.8554,-1.8202,-1.7862,-1.7586,-1.7793,-1.8263,-1.8863,-2.2674,-2.4715,-2.508,-2.783,-2.9487,-3.03,-3.0741,-3.1256,-3.1712,-2.9978,-2.8931,-2.8338,-2.6213,-2.5899,-2.684,-2.6955,-2.765,-2.8741,-3.0647,-3.1653,-3.2123,0.0,0.0,0.0,0.0,0.0,2.1553,2.5098,2.671,2.8276,3.0431,3.0332,3.0039,2.9961,2.9375,2.8945,2.8867,2.8086,2.7441,2.7031,2.6172,2.5293,2.4453,2.4004,2.3398,2.2539,2.115,1.9492,0.0,0.0,1.1993,0.9594,0.7953,0.7234,0.7347,0.7025,0.8243,1.0564,1.0912,1.0942,1.0743,1.0795,1.0196,0.9301,0.9301,0.9301,0.9301,0.9301,0.9377,0.9442,0.9497,1.0783,1.2144,1.1057,1.0771,1.0559,0.9593,0.8694,0.8016,0.8205,0.7435,0.5957,0.3908,0.3437,0.3437,0.3437,0.4935,0.6295,0.6443,0.3414,0.081,0.0911,0.0912,0.1317,0.2351,0.2256,0.2157,0.2515,-0.0699,-0.3011,-0.286,-0.4804,0.0,-0.6492,-0.6123,-0.785,-1.2607,-1.4515,-1.5662,-1.6119,-1.7595,-1.7273,-1.4652,-1.6018,-1.8834,-2.311,-2.3482,-2.5475,-2.9209,-2.9322,-2.9693,-3.0329,-3.1758,-3.2454,-3.2501,-3.2278,-3.0822,-2.8389,-2.661,-2.604,-2.6263,-2.6263,-2.7479,-2.9349,-3.0334,-3.186,-3.3502,0.0,0.0,0.0,0.0,0.0,2.4314,2.6175,2.7744,2.9045,3.0019,3.0156,3.0,2.9492,2.9121,2.8809,2.8574,2.7773,2.7207,2.7031,2.5723,2.4785,2.4434,2.3769,2.3242,2.2891,2.1621,2.0024,0.0,0.0,0.0,1.1929,1.0196,0.9378,0.9336,0.9061,0.9574,1.0713,1.0808,1.05,0.982,0.9216,0.838,0.748,0.748,0.748,0.748,0.748,0.7855,0.8389,0.8389,0.9367,1.0346,0.9291,0.8988,0.8836,0.7787,0.7188,0.6964,0.708,0.6698,0.5509,0.2116,-0.0704,-0.2501,-0.2482,-0.1159,0.0155,0.039,-0.1195,-0.3272,-0.521,-0.5764,-0.5202,-0.287,-0.4014,-0.388,-0.016,-0.4538,-0.7092,-0.4178,-0.6374,-0.821,-0.8207,-0.6817,-0.8143,-1.3685,-1.5159,-1.7036,-1.9851,-1.9993,-1.9848,-1.9452,-1.8653,-1.9663,-2.2674,-2.3679,-2.5621,-2.8419,-2.9871,-3.0949,-3.1705,-3.2756,-3.2961,-3.2602,-3.3064,-3.163,-2.9062,-2.7942,-2.7287,-2.7031,-2.6546,-2.7417,-2.9085,-3.0666,-3.1978,-3.3223,2.1688,0.0,2.1246,2.2909,2.4724,2.6113,2.6672,2.8358,2.9531,2.9394,2.9629,2.959,2.8984,2.8809,2.8574,2.8144,2.7441,2.6973,2.6836,2.5312,2.4414,2.4414,2.3594,0.0,2.3144,2.2012,2.0742,1.9334,1.6569,1.4851,1.4037,1.1702,1.0545,1.0526,1.0352,1.0568,1.113,1.094,1.0185,0.9226,0.8237,0.7173,0.6338,0.6338,0.6338,0.6338,0.6338,0.6718,0.7326,0.7326,0.7855,0.8313,0.7931,0.7863,0.7718,0.6662,0.5879,0.5491,0.6159,0.6329,0.4967,-0.0471,-0.4095,-0.7047,-0.9777,-0.9453,-0.8462,-0.793,-0.8119,-0.8765,-1.0254,-1.0909,-1.023,-0.7507,-0.8921,-0.8481,-0.2801,-0.7842,-1.0244,-0.5099,-0.7889,-1.0067,-0.9704,-0.8095,-0.9075,-1.4109,-1.6177,-1.8569,-2.163,-2.1289,-2.1296,-2.1966,-1.9764,-2.0124,-2.3393,-2.4279,-2.6321,-2.9337,-3.1102,-3.2314,-3.2949,-3.3738,-3.3974,-3.3722,-3.3984,-3.2892,-3.0895,-2.9601,-2.8706,-2.8102,-2.713,-2.7728,-2.9346,-3.0987,-3.2257,-3.3421,2.0987,2.1619,2.2689,2.3582,2.5321,2.6548,2.6567,2.8295,2.9414,2.8984,2.8926,2.8926,2.8926,2.8555,2.8125,2.7715,2.7266,2.6836,2.6426,2.5156,2.4414,2.4414,2.3594,2.3144,2.3144,2.2305,2.166,2.115,0.0,1.6725,1.5584,1.1768,1.0199,1.0484,1.0149,1.084,1.2231,1.1242,1.0185,0.9226,0.8237,0.7173,0.6338,0.6338,0.6338,0.6338,0.6338,0.6338,0.6338,0.6338,0.6338,0.6486,0.748,0.8034,0.806,0.6662,0.4774,0.3597,0.5761,0.6329,0.4252,-0.4099,-0.6257,-0.8783,-1.8284,-1.9793,-1.8993,-1.8117,-1.7775,-1.6783,-1.4041,-1.3437,-1.2698,-1.0598,-1.0971,-0.9798,-0.4711,-0.954,-1.1372,-0.5179,-0.8807,-1.1403,-1.0193,-0.9795,-1.0743,-1.3415,-1.7346,-1.9613,-1.9543,-2.044,-2.0571,-1.9575,-1.7862,-2.0096,-2.6713,-2.5704,-2.8007,-3.3515,-3.3566,-3.3598,-3.3649,-3.4838,-3.5761,-3.6305,-3.5584,-3.4919,-3.4134,-3.1381,-3.0022,-2.941,-2.7981,-2.8708,-3.0647,-3.1341,-3.2869,-3.4655,2.2576,2.2308,2.2638,2.5336,2.6082,2.6732,2.8026,2.8505,2.8652,2.8516,2.8242,2.8066,2.8066,2.7949,2.7812,2.7676,2.7012,2.6406,2.5977,2.498,2.4297,2.4004,2.3437,2.3144,2.3144,2.2305,2.168,2.123,1.9073,1.7208,1.5638,1.4494,1.3506,1.2631,1.1892,1.1832,1.2231,1.1242,1.0185,0.9226,0.8237,0.7173,0.6338,0.6338,0.6338,0.6338,0.6338,0.6338,0.6338,0.6338,0.6338,0.6338,0.6641,0.6887,0.6578,0.4691,0.4706,0.48,0.2591,-0.0078,-0.291,-0.5611,-0.6295,-0.7863,-1.4036,-1.7587,-1.9629,-2.0052,-2.0545,-2.0472,-1.8989,-1.8392,-1.7117,-1.405,-1.5551,-1.5242,-1.0029,-1.2583,-1.3905,-1.0983,-1.1577,-1.27,-1.4099,-1.3531,-1.393,-1.5877,-1.8308,-1.9678,-1.9712,-2.2592,-2.4349,-2.458,-2.358,-2.5295,-2.9944,-2.8973,-3.0176,-3.3598,-3.4071,-3.4703,-3.5531,-3.5925,-3.6388,-3.6943,-3.6696,-3.5734,-3.4321,-3.347,-3.1954,-3.0164,-2.9675,-3.0195,-3.1292,-3.196,-3.3201,-3.4688,2.1765,2.1526,2.1942,2.4055,2.523,2.6334,2.7498,2.7883,2.8066,2.8066,2.7676,2.7422,2.7422,2.7285,2.7187,2.7187,2.6543,2.5957,2.5508,2.4668,2.4062,2.3809,2.3379,2.3144,2.3144,2.2617,2.207,2.1484,1.9237,1.7304,1.5638,1.5225,1.4371,1.3171,1.2586,1.2305,1.2231,1.1242,1.0185,0.9226,0.8237,0.7173,0.6338,0.6338,0.6338,0.6338,0.6338,0.6338,0.6338,0.6338,0.6338,0.6338,0.6338,0.6268,0.5957,0.4064,0.4229,0.4321,0.0941,-0.3067,-0.6335,-0.6329,-0.7586,-1.0055,-1.4547,-1.8416,-2.1449,-2.2745,-2.3468,-2.372,-2.3097,-2.2685,-2.1501,-1.8664,-2.0028,-1.9661,-1.4442,-1.6363,-1.7123,-1.3848,-1.4283,-1.5296,-1.6347,-1.6314,-1.6715,-1.7949,-1.9568,-2.0642,-2.0878,-2.3952,-2.6186,-2.7199,-2.6631,-2.8071,-3.1758,-3.0842,-3.1865,-3.4824,-3.5733,-3.6378,-3.6832,-3.7206,-3.7421,-3.747,-3.747,-3.6703,-3.5393,-3.4638,-3.31,-3.1199,-3.0648,-3.0992,-3.1913,-3.236,-3.3557,-3.5052,1.9145,1.9778,2.0629,2.0723,2.3228,2.529,2.5521,2.6616,2.7513,2.7617,2.7246,2.6953,2.6934,2.6462,2.6209,2.6151,2.58,2.5392,2.4964,2.4147,2.368,2.375,2.3359,2.3144,2.3144,2.3086,2.2551,2.1714,1.9121,1.7086,1.5716,1.4356,1.3258,1.2305,1.2305,1.2305,1.2231,1.1316,1.0271,0.9226,0.8313,0.7249,0.6338,0.6338,0.6338,0.6338,0.6338,0.6338,0.6338,0.6338,0.6338,0.6338,0.6338,0.6268,0.6035,0.4763,0.3826,0.2891,0.0939,-0.2826,-0.6329,-0.6322,-1.0006,-1.4712,-1.9027,-2.1932,-2.4207,-2.6058,-2.6536,-2.6578,-2.6426,-2.6349,-2.5728,-2.3904,-2.4147,-2.2829,-1.7647,-2.0309,-2.043,-1.4292,-1.6817,-1.8731,-1.7671,-1.8488,-1.9377,-1.9898,-2.1413,-2.2424,-2.2725,-2.5074,-2.6909,-2.8022,-2.7652,-2.9144,-3.2531,-3.1836,-3.3266,-3.6932,-3.818,-3.8417,-3.7721,-3.8685,-3.8722,-3.8036,-3.7964,-3.7685,-3.7104,-3.5203,-3.3714,-3.2564,-3.112,-3.145,-3.2607,-3.2607,-3.3896,-3.5622,1.8918,1.9077,1.9612,2.055,2.131,2.265,2.479,2.5436,2.5975,2.7065,2.6797,2.6406,2.6074,2.5013,2.4104,2.3573,2.3721,2.3666,2.307,2.2668,2.2715,2.3213,2.3184,2.3144,2.3144,2.2519,2.1326,1.9666,1.7996,1.6382,1.505,1.4501,1.3548,1.2305,1.2305,1.2305,1.2305,1.207,1.0944,0.9301,0.9074,0.7855,0.6338,0.6338,0.6338,0.6338,0.6338,0.6338,0.6338,0.6338,0.6338,0.6338,0.6338,0.6261,0.6261,0.5873,0.5646,0.5419,0.4961,-0.0627,-0.6237,-0.6261,-1.1018,-1.6621,-2.0265,-2.3486,-2.6127,-2.7984,-2.8884,-2.9324,-2.933,-2.8937,-2.8107,-2.6546,-2.5606,-2.3538,-1.9113,-1.8934,-1.8668,-1.6986,-1.8034,-2.0111,-2.2997,-2.3455,-2.4067,-2.5243,-2.5781,-2.5302,-2.3447,-2.9146,-3.2106,-3.1388,-3.1819,-3.3486,-3.6488,-3.5799,-3.6366,-3.8259,-3.9035,-3.9447,-3.9618,-3.9265,-3.922,-3.9406,-3.8789,-3.8234,-3.7649,-3.6821,-3.5793,-3.4597,-3.3795,-3.3725,-3.4028,-3.4028,-3.4678,-3.5622,1.8571,1.8517,1.8631,1.917,1.9964,2.1017,2.259,2.334,2.4015,2.4572,2.4309,2.3889,2.3487,2.285,2.1993,2.0908,2.1542,2.2083,2.2182,2.1861,2.202,2.2785,2.2852,2.2754,2.2578,2.1587,2.0182,1.8301,1.6711,1.5498,1.4561,1.3797,1.3033,1.2305,1.2305,1.2305,1.2305,1.2305,1.118,0.9301,0.9301,0.8084,0.6338,0.6338,0.6338,0.6338,0.6338,0.6338,0.6338,0.6338,0.6338,0.6338,0.6338,0.6338,0.6261,0.6268,0.6274,0.6288,0.6308,0.1562,-0.4545,-0.9359,-1.3535,-1.7492,-2.1512,-2.4118,-2.6321,-2.8358,-2.9517,-3.0239,-3.0639,-3.0715,-3.0134,-2.808,-2.5507,-2.272,-1.965,-1.8822,-1.868,-1.9008,-2.1233,-2.3916,-2.6872,-2.7603,-2.8264,-2.9146,-2.8855,-2.8466,-2.8077,-3.1804,-3.3157,-3.1294,-3.4186,-3.6706,-3.8659,-3.8633,-3.8947,-3.9631,-4.0557,-4.0951,-4.0781,-4.0634,-4.0547,-4.0414,-3.9606,-3.8944,-3.8363,-3.7398,-3.6255,-3.4993,-3.4174,-3.4035,-3.4301,-3.4084,-3.4675,-3.5622,1.8143,1.805,1.7956,1.7635,1.883,1.994,2.0152,2.1202,2.1919,2.1912,2.1445,2.1064,2.0795,2.057,1.9958,1.8701,1.9411,2.0371,2.138,2.1157,2.1423,2.2255,2.2454,2.2259,2.1723,2.0345,1.8797,1.7171,1.5245,1.4238,1.4156,1.2722,1.2144,1.2305,1.2305,1.2305,1.2305,1.2144,1.1019,0.9301,0.915,0.7931,0.6261,0.6338,0.6261,0.6261,0.6338,0.6338,0.6338,0.6338,0.6338,0.6338,0.6338,0.6338,0.6338,0.6338,0.6338,0.6268,0.6288,0.2496,-0.383,-1.343,-1.6353,-1.8156,-2.2791,-2.4706,-2.6223,-2.8554,-2.9761,-3.058,-3.1315,-3.2078,-3.1544,-2.8281,-2.4681,-2.1476,-1.9067,-1.903,-1.9621,-2.0768,-2.4932,-2.8365,-3.0011,-3.1131,-3.2034,-3.2633,-3.1875,-3.1966,-3.344,-3.4175,-3.3346,-3.0797,-3.5828,-3.8986,-3.9731,-4.0593,-4.1024,-4.1024,-4.2217,-4.2446,-4.1722,-4.2184,-4.1944,-4.1135,-4.0388,-3.9717,-3.9101,-3.7689,-3.6447,-3.5293,-3.4198,-3.4117,-3.4557,-3.3973,-3.4661,-3.5864,1.8063,1.805,1.7956,1.7635,1.7833,1.8373,1.9494,1.991,2.0395,2.1558,2.1429,2.1064,2.0699,1.97,1.8707,1.7878,1.7337,1.7466,1.864,1.9418,2.0279,2.1478,2.216,2.2035,2.1065,1.8327,1.6521,1.5614,1.332,1.2465,1.3037,1.1665,1.1465,1.2305,1.2305,1.2305,1.2231,1.1391,1.0346,0.9226,0.8389,0.7334,0.6274,0.6268,0.6268,0.6274,0.6268,0.6338,0.6338,0.6338,0.6338,0.6338,0.6338,0.6338,0.6338,0.6338,0.6338,0.6268,0.6288,-0.1017,-0.9802,-1.4628,-1.7547,-2.0394,-2.451,-2.6801,-2.8784,-3.1115,-3.174,-3.2111,-3.2938,-3.328,-3.1438,-2.5661,-2.3857,-2.1369,-1.6117,-1.8098,-2.0781,-2.2597,-2.6989,-3.0689,-3.2832,-3.3549,-3.4975,-3.7483,-3.6922,-3.5912,-3.4734,-3.8187,-3.8576,-3.4993,-3.7842,-3.9767,-4.0512,-4.1769,-4.2397,-4.2397,-4.3069,-4.3283,-4.3171,-4.2865,-4.227,-4.1489,-4.099,-4.0303,-3.9489,-3.8792,-3.8368,-3.8071,-3.7232,-3.6967,-3.6933,-3.5895,-3.6095,-3.6837,1.5658,1.5608,1.5619,1.5363,1.5956,1.6592,1.7213,1.7929,1.8568,1.9154,1.8825,1.8453,1.8305,1.7563,1.6964,1.6683,1.6239,1.632,1.6784,1.8317,1.9546,2.0584,2.1343,2.0938,1.9019,1.6377,1.4504,1.336,1.1617,1.0807,1.0895,1.0251,1.0271,1.0645,1.0645,1.0645,1.0645,1.0196,0.9442,0.8466,0.8178,0.735,0.6197,0.5007,0.5323,0.6288,0.6274,0.6268,0.6268,0.6261,0.6268,0.6268,0.6268,0.6268,0.6268,0.6268,0.6274,0.5814,0.3399,-0.4418,-1.2336,-1.4166,-1.7911,-2.1977,-2.506,-2.785,-3.0172,-3.1696,-3.3059,-3.397,-3.3879,-3.4333,-3.2573,-2.6157,-2.4993,-2.2937,-1.7273,-2.0591,-2.4133,-2.5577,-3.0208,-3.3998,-3.583,-3.6828,-3.7885,-3.926,-3.9498,-3.9089,-3.7883,-4.0417,-4.1107,-3.937,-4.0853,-4.165,-4.1541,-4.2596,-4.3142,-4.3142,-4.3356,-4.3597,-4.3754,-4.3534,-4.337,-4.3154,-4.2021,-4.1316,-4.0839,-3.9739,-3.8989,-3.8527,-3.7877,-3.7528,-3.7285,-3.6532,-3.6613,-3.7175,1.3661,1.3515,1.3576,1.3295,1.419,1.5022,1.5304,1.6106,1.6754,1.7141,1.6633,1.6273,1.6273,1.6005,1.5832,1.5832,1.5832,1.5805,1.5725,1.7598,1.9,1.9659,2.0237,1.9372,1.7025,1.474,1.3003,1.1745,1.0345,0.9557,0.9372,0.9143,0.9199,0.9549,0.9549,0.9463,0.9311,0.9322,0.8875,0.8119,0.7897,0.7211,0.6048,0.3908,0.3834,0.4862,0.5407,0.5879,0.6281,0.6274,0.6274,0.6203,0.5724,0.5562,0.564,0.6119,0.5185,0.3228,0.008,-0.6972,-1.3646,-1.4223,-1.8552,-2.3423,-2.6306,-2.9308,-3.1895,-3.3144,-3.4912,-3.6069,-3.5502,-3.6062,-3.4537,-2.8245,-2.7341,-2.5781,-2.1076,-2.4285,-2.7842,-2.9786,-3.3761,-3.6926,-3.8487,-3.9645,-4.0341,-4.0491,-4.1336,-4.1651,-4.1071,-4.2043,-4.258,-4.258,-4.3167,-4.3204,-4.258,-4.3167,-4.3497,-4.3497,-4.3497,-4.366,-4.3998,-4.4087,-4.4233,-4.4348,-4.2943,-4.2208,-4.1904,-4.0426,-3.9461,-3.8833,-3.8418,-3.804,-3.7673,-3.7034,-3.7133,-3.7578,1.3599,1.3285,1.3285,1.3264,1.3199,1.3657,1.5163,1.5207,1.5491,1.6998,1.6633,1.6273,1.6273,1.6005,1.5832,1.5832,1.5832,1.5712,1.5444,1.7174,1.8414,1.8902,1.8498,1.7465,1.5861,1.3594,1.2277,1.1922,0.9834,0.9046,0.9428,0.8497,0.8892,1.022,1.022,0.9905,0.9276,0.9336,0.9279,0.9048,0.7157,0.6386,0.6081,0.3917,0.2031,0.0704,0.2655,0.4618,0.6295,0.6295,0.6295,0.597,0.3986,0.3359,0.3752,0.573,0.181,-0.3028,-0.2548,-0.8023,-1.4279,-1.6108,-2.0305,-2.506,-2.9322,-3.2263,-3.4912,-3.7584,-3.8243,-3.8493,-3.9029,-3.917,-3.732,-3.1477,-3.0854,-3.0243,-2.7739,-2.8509,-3.1083,-3.5756,-3.7228,-3.8571,-4.0513,-4.1261,-4.1902,-4.2429,-4.3032,-4.3316,-4.3279,-4.3351,-4.3387,-4.3387,-4.3461,-4.3461,-4.3387,-4.3461,-4.3497,-4.3497,-4.3497,-4.366,-4.3998,-4.4373,-4.4297,-4.3814,-4.3273,-4.2574,-4.1767,-4.0806,-4.0399,-4.0329,-4.0024,-3.9705,-3.9298,-3.8226,-3.8145,-3.8486,1.0891,1.0562,1.0562,1.0562,1.1164,1.1903,1.251,1.2987,1.3903,1.5478,1.5146,1.5177,1.6149,1.6005,1.5832,1.5832,1.5832,1.5712,1.5418,1.7143,1.8701,1.9889,1.8439,1.7319,1.6683,1.3146,1.1176,1.0939,0.8692,0.7598,0.7652,0.7278,0.7359,0.7744,0.6395,0.5681,0.5449,0.5461,0.4675,0.3496,0.2727,0.2418,0.2184,0.0078,-0.0468,0.0078,0.0858,0.1717,0.2582,0.3912,0.5235,0.6198,0.5375,0.2234,-0.0652,0.1548,-0.1714,-0.6661,-0.9927,-1.428,-1.8013,-1.8364,-2.2594,-2.7376,-3.05,-3.3713,-3.6648,-3.8598,-3.9993,-4.0875,-4.0877,-4.0876,-3.9106,-3.3786,-3.5257,-3.5657,-3.1368,-3.396,-3.7058,-3.9074,-3.9615,-4.0246,-4.1349,-4.1979,-4.2422,-4.2693,-4.3214,-4.3497,-4.3497,-4.3497,-4.3497,-4.3497,-4.3497,-4.3497,-4.3497,-4.3497,-4.3497,-4.3497,-4.3693,-4.4004,-4.4373,-4.4776,-4.4925,-4.4882,-4.4166,-4.3662,-4.3239,-4.1854,-4.1623,-4.2047,-4.1409,-4.096,-4.0621,-4.0551,-3.9821,-3.9073,0.9154,0.894,0.892,0.8872,0.9593,1.0314,1.0737,1.1337,1.2253,1.3892,1.3554,1.3653,1.4826,1.4678,1.4567,1.4567,1.4567,1.4609,1.4628,1.6695,1.8445,1.9529,1.8141,1.683,1.5749,1.2383,1.0363,0.996,0.7928,0.6865,0.6614,0.6668,0.6163,0.5224,0.3054,0.1403,0.0156,0.0858,0.0311,-0.1011,-0.1713,-0.1948,-0.2102,-0.3593,-0.3207,-0.1799,-0.0468,-0.039,-0.0861,-0.0315,0.1359,0.3167,0.3217,-0.0408,-0.4518,-0.3827,-0.6675,-1.1117,-1.5999,-1.9366,-2.1415,-2.0858,-2.47,-2.918,-3.1509,-3.5029,-3.8269,-3.9856,-4.1533,-4.2702,-4.2619,-4.2622,-4.1456,-3.7972,-3.9914,-4.0451,-3.6392,-3.8943,-4.1228,-4.1044,-4.1113,-4.1385,-4.2021,-4.2458,-4.277,-4.2957,-4.3286,-4.3497,-4.3497,-4.3497,-4.3497,-4.3497,-4.3497,-4.3497,-4.3497,-4.3497,-4.3529,-4.366,-4.3881,-4.4261,-4.4776,-4.4988,-4.5263,-4.5547,-4.4662,-4.4316,-4.4201,-4.2777,-4.2547,-4.3047,-4.2431,-4.1933,-4.1613,-4.1954,-4.1154,-4.0076,0.9154,0.8933,0.8886,0.8737,0.8581,0.8996,1.0439,1.023,1.0555,1.2154,1.2082,1.1853,1.195,1.195,1.195,1.195,1.194,1.2225,1.295,1.5687,1.7334,1.7253,1.7253,1.5749,1.2407,1.1209,1.0009,0.8894,0.7665,0.7068,0.6926,0.6867,0.5465,0.2989,0.0866,-0.2423,-0.6165,-0.4073,-0.3122,-0.3359,-0.5491,-0.6295,-0.6295,-0.6295,-0.6295,-0.5736,-0.1566,-0.133,-0.353,-0.6237,-0.5554,-0.3676,-0.3665,-0.5266,-0.7506,-0.9938,-1.329,-1.6831,-1.9634,-2.2218,-2.3994,-2.3509,-2.6519,-3.0147,-3.2733,-3.6313,-3.9774,-4.1877,-4.3018,-4.3893,-4.4471,-4.4624,-4.4624,-4.4624,-4.4624,-4.428,-4.3373,-4.3238,-4.285,-4.1943,-4.181,-4.2021,-4.2655,-4.2693,-4.2957,-4.3463,-4.3497,-4.3497,-4.3497,-4.3497,-4.3497,-4.3497,-4.3497,-4.3497,-4.3497,-4.3497,-4.366,-4.3998,-4.3998,-4.4401,-4.5115,-4.5115,-4.5283,-4.5547,-4.4701,-4.4316,-4.4239,-4.3431,-4.3124,-4.3124,-4.3124,-4.2717,-4.2108,-4.2108,-4.1905,-4.1605,0.8721,0.8621,0.8601,0.856,0.8438,0.855,0.8955,0.8787,0.8763,0.9252,0.9205,0.987,1.1648,1.195,1.195,1.195,1.1798,1.2696,1.4984,1.6474,1.6895,1.6098,1.6098,1.5779,1.5035,1.1629,0.9911,1.0055,0.807,0.7054,0.7063,0.7028,0.4854,0.0787,-0.2826,-0.5899,-0.8353,-0.77,-0.7744,-0.8178,-0.8827,-0.8818,-0.8399,-0.8399,-0.7548,-0.615,-0.4897,-0.4012,-0.401,-0.7957,-0.8919,-0.8817,-1.0319,-1.1277,-1.2182,-1.398,-1.5613,-1.7409,-1.962,-2.1912,-2.4027,-2.5612,-2.7717,-3.0079,-3.2465,-3.4945,-3.7536,-3.9965,-4.2305,-4.4129,-4.4811,-4.4943,-4.5239,-4.6066,-4.6202,-4.5998,-4.5445,-4.4841,-4.4193,-4.3416,-4.2775,-4.2655,-4.3214,-4.325,-4.3321,-4.3497,-4.3497,-4.3497,-4.3497,-4.3497,-4.3497,-4.3497,-4.3497,-4.3497,-4.3497,-4.3497,-4.366,-4.3998,-4.429,-4.4638,-4.5115,-4.5323,-4.5532,-4.5586,-4.5316,-4.5201,-4.5163,-4.4278,-4.4316,-4.4778,-4.4162,-4.3806,-4.3675,-4.3791,-4.3038,-4.2107,0.8479,0.8479,0.8465,0.8411,0.8336,0.8262,0.8214,0.7196,0.6426,0.6404,0.6393,0.7384,1.01,1.0395,1.0386,1.0386,1.1447,1.3223,1.6021,1.6905,1.6862,1.5854,1.5213,1.3781,1.125,0.762,0.5731,0.5753,0.4339,0.3841,0.4409,0.4378,0.2873,-0.0079,-0.4951,-0.7785,-0.8952,-0.9163,-0.9525,-0.996,-1.0315,-0.9992,-0.9367,-0.9723,-0.8883,-0.7447,-0.7358,-0.7047,-0.7296,-1.1158,-1.2494,-1.2828,-1.4993,-1.5448,-1.5375,-1.6288,-1.7496,-1.8655,-1.9575,-2.1431,-2.3172,-2.3025,-2.6311,-2.9724,-3.0556,-3.3457,-3.6522,-3.8662,-4.1832,-4.4428,-4.4988,-4.5344,-4.5757,-4.6319,-4.6701,-4.6647,-4.5922,-4.5382,-4.4842,-4.4299,-4.3652,-4.3353,-4.366,-4.3563,-4.3497,-4.3497,-4.3497,-4.3497,-4.3497,-4.3497,-4.3497,-4.3497,-4.3497,-4.3497,-4.3497,-4.3497,-4.3758,-4.4233,-4.4455,-4.4849,-4.5283,-4.5532,-4.5586,-4.5586,-4.5586,-4.5586,-4.5547,-4.5009,-4.5124,-4.5547,-4.4863,-4.4537,-4.4433,-4.4372,-4.3707,-4.2994,0.8445,0.8543,0.8605,0.8473,0.835,0.8099,0.7572,0.4901,0.3091,0.3407,0.3296,0.4395,0.7353,0.7852,0.8038,0.8117,1.0988,1.3862,1.6386,1.6984,1.6942,1.5995,1.464,1.0409,0.3025,0.0521,-0.157,-0.3244,-0.2716,-0.1913,-0.0771,-0.0587,-0.0574,-0.0963,-0.6126,-0.8512,-0.8588,-0.9236,-0.9593,-0.982,-1.0799,-1.0724,-1.0024,-1.0935,-1.0724,-0.9755,-0.9581,-1.0418,-1.2132,-1.5117,-1.6046,-1.6139,-1.804,-1.8002,-1.7439,-1.7527,-1.8921,-2.0255,-1.9443,-2.0937,-2.1635,-1.7096,-2.1484,-2.7024,-2.6918,-3.0997,-3.5433,-3.7434,-4.1433,-4.4676,-4.5011,-4.5687,-4.6101,-4.5781,-4.6394,-4.6512,-4.543,-4.5252,-4.5065,-4.4701,-4.4261,-4.3998,-4.3998,-4.3693,-4.3497,-4.3497,-4.3497,-4.3497,-4.3497,-4.3497,-4.3497,-4.3497,-4.3497,-4.3497,-4.3497,-4.3497,-4.3886,-4.4599,-4.4599,-4.4966,-4.5586,-4.5586,-4.5586,-4.5586,-4.5586,-4.5586,-4.5586,-4.5586,-4.5586,-4.5532,-4.5222,-4.4896,-4.4572,-4.4146,-4.4028,-4.4117,0.8133,0.8929,0.9713,0.9673,0.8755,0.7117,0.4274,-0.1389,-0.4384,-0.1599,-0.1791,-0.0397,0.4392,0.6731,0.8301,0.9123,1.2042,1.4792,1.6876,1.7221,1.6406,1.4476,1.4037,0.8487,-0.2983,-0.5175,-0.9147,-1.4946,-1.07,-0.8558,-0.8207,-0.7567,-0.7627,-0.8514,-0.9453,-1.0035,-1.0346,-1.1205,-1.2031,-1.291,-1.4474,-1.5006,-1.4936,-1.586,-1.5133,-1.3716,-1.4033,-1.3992,-1.4273,-1.6985,-1.8933,-2.0134,-2.0042,-1.9847,-1.9693,-1.9885,-2.0387,-2.0697,-1.9362,-2.1058,-2.1091,-1.2134,-0.8835,-1.0054,-1.9077,-2.2811,-2.6609,-3.4441,-4.0375,-4.4346,-4.4988,-4.523,-4.5642,-4.6473,-4.6778,-4.6799,-4.6551,-4.6258,-4.578,-4.5065,-4.4401,-4.3998,-4.3998,-4.3693,-4.3497,-4.3497,-4.3497,-4.3497,-4.3497,-4.3497,-4.3497,-4.3497,-4.3497,-4.3497,-4.3497,-4.3497,-4.3886,-4.4599,-4.4599,-4.4966,-4.5586,-4.5586,-4.5586,-4.5586,-4.5586,-4.5586,-4.5586,-4.5586,-4.5438,-4.5201,-4.5137,-4.4896,-4.4572,-4.4146,-4.4204,-4.4508,0.8825,0.9976,1.1025,1.1706,1.1201,0.8975,0.3528,-0.1866,-0.6645,-1.0233,-0.7991,-0.486,-0.1873,0.3442,0.8468,1.2448,1.4576,1.6719,1.8941,1.7951,1.6293,1.4034,1.2869,0.7125,-0.412,-1.1607,-1.6178,-1.7861,-1.5536,-1.3788,-1.2719,-1.2265,-1.1702,-1.1128,-1.1581,-1.1639,-1.1514,-1.2695,-1.3827,-1.5105,-1.6537,-1.7282,-1.7676,-1.8895,-1.8675,-1.7899,-1.8596,-1.9353,-2.0093,-2.1188,-2.2521,-2.367,-2.2791,-2.2509,-2.2467,-2.1773,-2.1602,-2.1233,-1.9787,-1.8279,-1.5035,-0.6325,-0.0534,0.0089,-1.1025,-1.7458,-2.3443,-3.1381,-3.8926,-4.4326,-4.5048,-4.549,-4.5906,-4.6319,-4.6663,-4.6778,-4.6432,-4.6129,-4.5821,-4.54,-4.4713,-4.4146,-4.3823,-4.3597,-4.3497,-4.3497,-4.3497,-4.3497,-4.3497,-4.3497,-4.3497,-4.3497,-4.3497,-4.3497,-4.3497,-4.3627,-4.4035,-4.4599,-4.4599,-4.4966,-4.5586,-4.5586,-4.5586,-4.5586,-4.5586,-4.5586,-4.5586,-4.5586,-4.54,-4.5055,-4.4919,-4.4638,-4.429,-4.4058,-4.4346,-4.4872,0.9706,1.1113,1.2608,1.4135,1.4242,1.1718,0.4626,-0.0,-0.6457,-1.687,-1.3475,-0.9437,-0.7764,0.1338,0.9864,1.624,1.7479,1.8894,2.1055,1.8539,1.6032,1.3715,1.166,0.6127,-0.3542,-1.6377,-2.1293,-1.7877,-1.8801,-1.8351,-1.6735,-1.6183,-1.4727,-1.2682,-1.367,-1.3715,-1.3243,-1.4393,-1.5812,-1.7309,-1.8588,-1.9469,-2.0232,-2.2083,-2.2528,-2.2418,-2.3256,-2.4764,-2.6222,-2.5704,-2.5965,-2.6357,-2.5387,-2.5039,-2.4657,-2.3122,-2.222,-2.1444,-1.985,-1.4467,-0.7687,-0.0827,0.5208,0.7132,-0.161,-1.1839,-2.1241,-2.7982,-3.715,-4.4267,-4.5194,-4.5922,-4.6254,-4.5837,-4.6278,-4.6471,-4.5873,-4.568,-4.5586,-4.5532,-4.4919,-4.4204,-4.3563,-4.3497,-4.3497,-4.3497,-4.3497,-4.3497,-4.3497,-4.3497,-4.3497,-4.3497,-4.3497,-4.3532,-4.3597,-4.3849,-4.4233,-4.4701,-4.4701,-4.5011,-4.5586,-4.5586,-4.5586,-4.5586,-4.5586,-4.5586,-4.5586,-4.5586,-4.54,-4.5094,-4.4751,-4.4346,-4.3998,-4.3998,-4.4401,-4.4943,0.9706,1.1889,1.4218,1.6494,1.6113,1.3496,0.7643,0.0847,-0.5841,-1.2042,-1.523,-1.4567,-0.8326,0.5763,1.5613,1.7685,1.9147,2.0332,2.1115,1.7806,1.4821,1.2566,1.1218,0.5785,-0.4695,-1.5294,-2.0854,-2.1111,-2.1686,-2.252,-2.3438,-2.0512,-1.8583,-1.7488,-1.7358,-1.7255,-1.7149,-1.7692,-1.8932,-2.0686,-2.3107,-2.4458,-2.5406,-2.8024,-2.8479,-2.7865,-2.8378,-2.8363,-2.8184,-2.8329,-2.8011,-2.7378,-2.6425,-2.5554,-2.4657,-2.3122,-2.2022,-2.0709,-1.8306,-1.1833,-0.4092,0.2846,0.9681,1.398,1.1333,-0.0803,-1.421,-2.3621,-3.482,-4.3483,-4.5401,-4.5819,-4.5819,-4.5663,-4.5701,-4.574,-4.5624,-4.5586,-4.5475,-4.5201,-4.4535,-4.3943,-4.3566,-4.3497,-4.3497,-4.3497,-4.3497,-4.3497,-4.3497,-4.3497,-4.3497,-4.3497,-4.3497,-4.3664,-4.3943,-4.3967,-4.4346,-4.5011,-4.5011,-4.5222,-4.5586,-4.5586,-4.5586,-4.5586,-4.5586,-4.5586,-4.5586,-4.5586,-4.54,-4.5094,-4.4751,-4.4346,-4.3998,-4.3998,-4.4058,-4.4261,1.0779,1.3695,1.6392,1.8271,1.7535,1.4596,0.8489,0.0282,-0.7253,-1.3165,-1.6441,-1.7269,-1.4603,0.5295,1.8888,1.977,2.0172,2.0333,2.0263,1.6796,1.3878,1.1969,1.1086,0.6168,-0.3356,-1.4526,-2.1114,-2.2874,-2.4113,-2.5085,-2.5613,-2.3032,-2.1229,-2.0058,-2.043,-2.0652,-2.0902,-2.2082,-2.3244,-2.4464,-2.5632,-2.7026,-2.8534,-3.0099,-3.1165,-3.1769,-3.1565,-3.1526,-3.1384,-3.0514,-3.0033,-2.9566,-2.8244,-2.7165,-2.6285,-2.5604,-2.3985,-2.1767,-1.8836,-1.172,-0.3275,0.4793,1.0193,1.3596,1.3684,0.3944,-0.826,-1.9137,-3.072,-4.0253,-4.4691,-4.5683,-4.595,-4.6317,-4.6355,-4.6355,-4.6394,-4.6167,-4.5595,-4.4599,-4.4204,-4.3881,-4.3529,-4.3497,-4.3497,-4.3497,-4.3497,-4.3563,-4.3791,-4.3791,-4.3881,-4.4095,-4.4125,-4.4213,-4.4318,-4.4535,-4.4762,-4.5115,-4.5283,-4.5457,-4.5586,-4.5586,-4.5586,-4.5586,-4.5586,-4.5586,-4.5586,-4.5586,-4.54,-4.5094,-4.4943,-4.4638,-4.429,-4.4087,-4.4261,-4.4663]}]]